[[{"header":{"parameterUnit":"m.s-1","parameterCategory":1,"la1":30.6,"la2":29.2853,"lo1":-89.7004,"lo2":-87.6739,"dy":0.0162,"dx":0.0183,"nx":112,"ny":82,"refTime":"2023-07-12T12:00:00:Z","depth":0,"parameterNumber":2,"parameterNumberName":"U-component_of_WINDS"},"data":[0.0,0.0,0.0,0.0,0.0,0.0,0.0,0.0,0.0,0.0,0.0,0.0,0.0,0.0,0.0,0.0,0.0,0.0,0.0,0.0,0.0,0.0,0.0,0.0,0.0,0.0,0.0,0.0,0.0,0.0,0.0,0.0,0.0,0.0,0.0,0.0,0.0,0.0,0.0,0.0,0.0,0.0,0.0,0.0,0.0,0.0,0.0,0.0,0.0,0.0,0.0,0.0,0.0,0.0,0.0,0.0,0.0,0.0,0.0,0.0,0.0,0.0,0.0,0.0,0.0,0.0,0.0,0.0,0.0,0.0,0.0,0.0,0.0,0.0,0.0,0.0,0.0,0.0,0.0,0.0,0.0,0.0,0.0,0.0,0.0,0.0,0.0,0.0,0.0,0.0,0.0,-2.7975,-3.2138,-3.4607,-3.4506,-3.3525,-3.1461,-2.8009,0.0,0.0,0.0,0.0,0.0,0.0,0.0,0.0,0.0,0.0,0.0,0.0,0.0,0.0,0.0,0.0,0.0,0.0,0.0,0.0,0.0,0.0,0.0,0.0,0.0,0.0,0.0,0.0,0.0,0.0,0.0,0.0,0.0,0.0,0.0,0.0,0.0,0.0,0.0,0.0,0.0,0.0,0.0,0.0,0.0,0.0,0.0,0.0,0.0,0.0,0.0,0.0,0.0,0.0,0.0,0.0,0.0,0.0,0.0,0.0,0.0,0.0,0.0,0.0,0.0,0.0,0.0,0.0,0.0,0.0,0.0,0.0,0.0,0.0,0.0,0.0,0.0,0.0,0.0,0.0,0.0,0.0,0.0,0.0,0.0,0.0,0.0,0.0,0.0,0.0,0.0,0.0,0.0,0.0,0.0,0.0,0.0,0.0,0.0,0.0,0.0,0.0,0.0,0.0,-2.558,-3.0171,-3.3525,-3.5182,-3.4539,-3.2104,-2.9803,-2.7908,0.0,0.0,0.0,0.0,0.0,0.0,0.0,0.0,0.0,0.0,0.0,0.0,0.0,0.0,0.0,0.0,0.0,0.0,0.0,0.0,0.0,0.0,0.0,0.0,0.0,0.0,0.0,0.0,0.0,0.0,0.0,0.0,0.0,0.0,0.0,0.0,0.0,0.0,0.0,0.0,0.0,0.0,0.0,0.0,0.0,0.0,0.0,0.0,0.0,0.0,0.0,0.0,0.0,0.0,0.0,0.0,0.0,0.0,0.0,0.0,0.0,0.0,0.0,0.0,0.0,0.0,0.0,0.0,0.0,0.0,0.0,0.0,0.0,0.0,0.0,0.0,0.0,0.0,0.0,0.0,0.0,0.0,0.0,0.0,0.0,0.0,0.0,0.0,0.0,0.0,0.0,0.0,0.0,0.0,0.0,0.0,0.0,0.0,0.0,0.0,0.0,0.0,0.0,-2.5477,-2.8025,-3.1558,-3.4129,-3.5487,-3.5115,-3.2408,-2.9964,-2.8193,-2.625,0.0,0.0,0.0,0.0,0.0,0.0,0.0,0.0,0.0,0.0,0.0,0.0,0.0,0.0,0.0,0.0,0.0,0.0,0.0,0.0,0.0,0.0,0.0,0.0,0.0,0.0,0.0,0.0,0.0,0.0,0.0,0.0,0.0,0.0,0.0,0.0,0.0,0.0,0.0,0.0,0.0,0.0,0.0,0.0,0.0,0.0,0.0,0.0,0.0,0.0,0.0,0.0,0.0,0.0,0.0,0.0,0.0,0.0,0.0,0.0,0.0,0.0,0.0,0.0,0.0,0.0,0.0,0.0,0.0,0.0,0.0,0.0,0.0,0.0,0.0,0.0,0.0,0.0,0.0,0.0,0.0,0.0,0.0,0.0,0.0,0.0,0.0,0.0,0.0,0.0,0.0,0.0,0.0,0.0,0.0,0.0,0.0,0.0,0.0,0.0,0.0,0.0,-2.7415,-3.0034,-3.2475,-3.4497,-3.5631,-3.5631,-3.2488,-2.9809,-2.8168,-2.5092,0.0,0.0,0.0,0.0,0.0,0.0,0.0,0.0,0.0,0.0,0.0,0.0,0.0,0.0,0.0,0.0,0.0,0.0,0.0,0.0,0.0,0.0,0.0,0.0,0.0,0.0,0.0,0.0,0.0,0.0,0.0,0.0,0.0,0.0,0.0,0.0,0.0,0.0,0.0,0.0,0.0,0.0,0.0,0.0,0.0,0.0,0.0,0.0,0.0,0.0,0.0,0.0,0.0,0.0,0.0,0.0,0.0,0.0,0.0,0.0,0.0,0.0,0.0,0.0,0.0,0.0,0.0,0.0,0.0,0.0,0.0,0.0,0.0,0.0,0.0,0.0,0.0,0.0,0.0,0.0,0.0,0.0,0.0,0.0,0.0,0.0,0.0,0.0,0.0,0.0,0.0,0.0,0.0,0.0,0.0,0.0,0.0,0.0,0.0,0.0,0.0,0.0,-2.738,-3.0452,-3.3234,-3.482,-3.5712,-3.5712,-3.1336,-2.8233,-2.741,-2.3765,0.0,0.0,0.0,0.0,0.0,0.0,0.0,0.0,0.0,0.0,0.0,0.0,0.0,0.0,0.0,0.0,0.0,0.0,0.0,0.0,0.0,0.0,0.0,0.0,0.0,0.0,0.0,0.0,0.0,0.0,0.0,0.0,0.0,0.0,0.0,0.0,0.0,0.0,0.0,0.0,0.0,0.0,0.0,0.0,0.0,0.0,0.0,0.0,0.0,0.0,0.0,0.0,0.0,0.0,0.0,0.0,0.0,0.0,0.0,0.0,0.0,0.0,0.0,0.0,0.0,0.0,0.0,0.0,0.0,0.0,0.0,0.0,0.0,0.0,0.0,0.0,0.0,0.0,0.0,0.0,0.0,0.0,0.0,0.0,0.0,0.0,0.0,0.0,0.0,0.0,0.0,0.0,0.0,0.0,0.0,0.0,0.0,0.0,0.0,0.0,0.0,0.0,-2.6976,-2.9781,0.0,-3.4178,-3.4987,-3.4987,-3.0953,-2.7955,-2.6945,0.0,0.0,0.0,0.0,0.0,0.0,0.0,0.0,0.0,0.0,0.0,0.0,0.0,0.0,0.0,0.0,0.0,0.0,0.0,0.0,0.0,0.0,0.0,0.0,0.0,0.0,0.0,0.0,0.0,0.0,0.0,0.0,0.0,0.0,0.0,0.0,0.0,0.0,0.0,0.0,0.0,0.0,0.0,0.0,0.0,0.0,0.0,0.0,0.0,0.0,0.0,0.0,0.0,0.0,0.0,0.0,0.0,0.0,0.0,0.0,0.0,0.0,0.0,0.0,0.0,0.0,0.0,0.0,0.0,0.0,0.0,0.0,0.0,0.0,0.0,0.0,0.0,0.0,0.0,0.0,0.0,0.0,0.0,0.0,0.0,0.0,0.0,0.0,0.0,0.0,0.0,0.0,0.0,0.0,0.0,0.0,0.0,0.0,0.0,0.0,0.0,0.0,-2.3856,-2.6752,-2.9692,0.0,-3.4053,-3.4627,-3.4677,-3.027,-2.7105,-2.6024,0.0,0.0,0.0,0.0,0.0,0.0,0.0,0.0,0.0,0.0,0.0,0.0,0.0,0.0,0.0,0.0,0.0,0.0,0.0,0.0,0.0,0.0,0.0,0.0,0.0,0.0,0.0,0.0,0.0,0.0,0.0,0.0,0.0,0.0,0.0,0.0,0.0,0.0,0.0,0.0,0.0,0.0,0.0,0.0,0.0,0.0,0.0,0.0,0.0,0.0,0.0,0.0,0.0,0.0,0.0,0.0,0.0,0.0,0.0,0.0,0.0,0.0,0.0,0.0,0.0,0.0,0.0,0.0,0.0,0.0,0.0,0.0,0.0,0.0,0.0,0.0,0.0,0.0,0.0,0.0,0.0,0.0,0.0,0.0,0.0,0.0,0.0,0.0,0.0,0.0,0.0,0.0,0.0,0.0,0.0,0.0,0.0,0.0,0.0,0.0,0.0,0.0,-2.3383,-2.6725,-3.0315,-3.4244,-3.467,-3.4675,-3.478,-2.9144,-2.5315,0.0,0.0,0.0,0.0,0.0,0.0,0.0,0.0,0.0,0.0,0.0,0.0,0.0,0.0,0.0,0.0,0.0,0.0,0.0,0.0,0.0,0.0,0.0,0.0,0.0,0.0,0.0,0.0,0.0,0.0,0.0,0.0,0.0,0.0,0.0,0.0,0.0,0.0,0.0,0.0,0.0,0.0,0.0,0.0,0.0,0.0,0.0,0.0,0.0,0.0,0.0,0.0,0.0,0.0,0.0,0.0,0.0,0.0,0.0,0.0,0.0,0.0,0.0,0.0,0.0,0.0,0.0,0.0,0.0,0.0,0.0,0.0,0.0,0.0,0.0,0.0,0.0,0.0,0.0,0.0,0.0,0.0,0.0,0.0,0.0,0.0,0.0,0.0,0.0,0.0,0.0,0.0,0.0,0.0,0.0,0.0,0.0,0.0,0.0,0.0,0.0,0.0,0.0,-2.4382,-2.6752,-2.9526,-3.3393,-3.3876,-3.3745,-3.3315,-2.8539,-2.5315,-2.4612,0.0,0.0,0.0,0.0,0.0,0.0,0.0,0.0,0.0,0.0,0.0,0.0,0.0,0.0,0.0,0.0,0.0,0.0,0.0,0.0,0.0,0.0,0.0,0.0,0.0,0.0,0.0,0.0,0.0,0.0,0.0,0.0,0.0,0.0,0.0,0.0,0.0,0.0,0.0,0.0,0.0,0.0,0.0,0.0,0.0,0.0,0.0,0.0,0.0,0.0,0.0,0.0,0.0,0.0,0.0,0.0,0.0,0.0,0.0,0.0,0.0,0.0,0.0,0.0,0.0,0.0,0.0,0.0,0.0,0.0,0.0,0.0,0.0,0.0,0.0,0.0,0.0,0.0,0.0,0.0,0.0,0.0,0.0,0.0,0.0,0.0,0.0,0.0,0.0,0.0,0.0,0.0,0.0,0.0,0.0,0.0,0.0,0.0,0.0,0.0,0.0,0.0,-2.4804,-2.6873,-2.9435,-3.3448,-3.3448,-3.304,-3.2673,-2.8323,-2.5226,-2.4268,0.0,0.0,0.0,0.0,0.0,0.0,0.0,0.0,0.0,0.0,0.0,0.0,0.0,0.0,0.0,0.0,0.0,0.0,0.0,0.0,0.0,0.0,0.0,0.0,0.0,0.0,0.0,0.0,0.0,0.0,0.0,0.0,0.0,0.0,0.0,0.0,0.0,0.0,0.0,0.0,0.0,0.0,0.0,0.0,0.0,0.0,0.0,0.0,0.0,0.0,0.0,0.0,0.0,0.0,0.0,0.0,0.0,0.0,0.0,0.0,0.0,0.0,0.0,0.0,0.0,0.0,0.0,0.0,0.0,0.0,0.0,0.0,0.0,0.0,0.0,0.0,0.0,0.0,0.0,0.0,0.0,0.0,0.0,0.0,0.0,0.0,0.0,0.0,0.0,0.0,0.0,0.0,0.0,0.0,0.0,0.0,0.0,0.0,0.0,0.0,0.0,0.0,-2.5056,-2.7076,-2.9749,-3.3854,-3.3233,-3.2513,-3.2465,-2.823,-2.5046,-2.367,0.0,0.0,0.0,0.0,0.0,0.0,0.0,0.0,0.0,0.0,0.0,0.0,0.0,0.0,0.0,0.0,0.0,0.0,0.0,0.0,0.0,0.0,0.0,0.0,0.0,0.0,0.0,0.0,0.0,0.0,0.0,0.0,0.0,0.0,0.0,0.0,0.0,0.0,0.0,0.0,0.0,0.0,0.0,0.0,0.0,0.0,0.0,0.0,0.0,0.0,0.0,0.0,0.0,0.0,0.0,0.0,0.0,0.0,0.0,0.0,-3.6276,0.0,0.0,0.0,0.0,0.0,0.0,0.0,0.0,0.0,0.0,0.0,0.0,0.0,0.0,0.0,0.0,0.0,0.0,0.0,0.0,0.0,0.0,0.0,0.0,0.0,0.0,0.0,0.0,0.0,0.0,0.0,0.0,0.0,0.0,0.0,0.0,0.0,0.0,0.0,0.0,0.0,-2.6315,-2.7193,-2.8815,-3.2367,-3.2138,-3.1534,-3.1004,-2.7658,-2.5046,-2.367,0.0,0.0,0.0,0.0,0.0,0.0,0.0,0.0,0.0,0.0,0.0,0.0,0.0,0.0,0.0,0.0,0.0,0.0,0.0,0.0,0.0,0.0,0.0,0.0,0.0,0.0,0.0,0.0,0.0,0.0,0.0,0.0,0.0,0.0,0.0,0.0,0.0,0.0,0.0,0.0,0.0,0.0,0.0,0.0,0.0,0.0,0.0,0.0,0.0,0.0,0.0,0.0,0.0,0.0,0.0,0.0,0.0,0.0,0.0,0.0,0.0,-3.8275,0.0,0.0,0.0,0.0,0.0,0.0,0.0,0.0,0.0,0.0,0.0,0.0,0.0,0.0,0.0,0.0,0.0,0.0,0.0,0.0,0.0,0.0,0.0,0.0,0.0,0.0,0.0,0.0,0.0,0.0,0.0,0.0,0.0,0.0,0.0,0.0,0.0,0.0,0.0,0.0,-2.7651,-2.836,-2.9676,-3.2544,-3.2309,-3.1575,-3.0587,-2.8062,-2.5819,-2.4178,-2.2283,0.0,0.0,0.0,0.0,0.0,0.0,0.0,0.0,0.0,0.0,0.0,0.0,0.0,0.0,0.0,0.0,0.0,0.0,0.0,0.0,0.0,0.0,0.0,0.0,0.0,0.0,0.0,0.0,0.0,0.0,0.0,0.0,0.0,0.0,0.0,0.0,0.0,0.0,0.0,0.0,0.0,0.0,0.0,0.0,0.0,0.0,0.0,0.0,0.0,0.0,0.0,0.0,0.0,0.0,-4.6708,-4.6593,-4.8028,-4.7592,-4.5663,-4.4304,-4.2379,-4.025,0.0,0.0,0.0,0.0,0.0,0.0,0.0,0.0,0.0,0.0,0.0,0.0,0.0,0.0,0.0,0.0,0.0,0.0,0.0,0.0,0.0,0.0,0.0,0.0,0.0,-2.9541,-2.8278,0.0,0.0,0.0,0.0,0.0,0.0,0.0,0.0,0.0,0.0,0.0,0.0,-2.8685,-2.9533,-3.0751,-3.2983,-3.254,-3.1691,-3.0577,-2.8649,-2.6749,-2.5048,-2.3636,-2.2263,0.0,0.0,0.0,0.0,0.0,0.0,0.0,0.0,0.0,0.0,0.0,0.0,0.0,0.0,0.0,0.0,0.0,0.0,0.0,0.0,0.0,0.0,0.0,0.0,0.0,0.0,0.0,0.0,0.0,0.0,0.0,0.0,-3.2992,-3.3477,0.0,0.0,0.0,0.0,0.0,0.0,0.0,0.0,0.0,0.0,0.0,0.0,0.0,0.0,-4.6504,-4.9654,-5.0874,-5.0264,-5.2126,-5.2633,-5.1928,-5.2291,-5.27,-5.3084,-5.2854,0.0,-4.3254,-4.2618,0.0,0.0,0.0,0.0,0.0,0.0,0.0,0.0,0.0,0.0,0.0,0.0,0.0,0.0,0.0,0.0,0.0,0.0,0.0,0.0,0.0,0.0,-3.1505,-3.0618,-3.1304,-3.1836,0.0,-2.8697,-2.6713,-2.5239,0.0,0.0,0.0,0.0,0.0,0.0,0.0,0.0,-2.8856,-2.9059,-2.9973,-3.2205,-3.1308,-3.054,-3.0356,-2.8621,-2.7117,-2.6329,-2.4485,-2.2892,-2.1605,-2.0857,0.0,0.0,0.0,0.0,0.0,0.0,0.0,0.0,0.0,0.0,0.0,0.0,0.0,0.0,0.0,0.0,0.0,0.0,0.0,0.0,0.0,0.0,0.0,0.0,0.0,0.0,0.0,0.0,0.0,-3.4019,-3.6168,-3.4808,-3.7386,-3.8365,0.0,0.0,0.0,0.0,0.0,0.0,0.0,0.0,0.0,-4.5416,-4.7099,-4.8359,-4.9135,-5.166,-5.2967,-5.3043,-5.4866,-5.5502,-5.5189,-5.5988,-5.6307,-5.6269,-5.6499,-5.46,-5.1015,-4.7813,-4.4774,-4.195,0.0,0.0,0.0,0.0,0.0,-3.7905,-3.9396,-3.9489,0.0,0.0,0.0,0.0,0.0,0.0,0.0,0.0,0.0,0.0,0.0,0.0,0.0,-3.396,-3.4452,-3.482,-3.4604,-3.3582,-3.201,0.0,-2.9675,-2.9816,-2.9482,0.0,0.0,0.0,0.0,0.0,-3.0654,-3.1224,-3.1833,-3.2814,-3.2404,-3.1541,-3.0417,-2.9251,-2.8149,-2.7145,-2.5227,-2.3759,-2.2802,-2.1455,-2.0215,0.0,0.0,0.0,0.0,0.0,0.0,0.0,0.0,0.0,0.0,0.0,0.0,0.0,0.0,0.0,0.0,0.0,0.0,0.0,0.0,0.0,0.0,0.0,0.0,0.0,0.0,0.0,0.0,-3.6752,-3.8999,-3.632,-4.0348,-4.1825,0.0,0.0,0.0,0.0,0.0,0.0,-4.5956,-4.687,-4.8231,-5.0303,-5.1528,-5.2305,-5.2585,-5.4213,-5.5329,-5.5932,-5.7246,-5.7849,-5.7884,-5.8943,-5.9007,-5.8273,-5.8755,-5.8434,-5.7236,-5.2323,-4.8295,-4.5047,-4.3175,-4.1638,-4.0506,-4.0855,-4.0777,-4.0724,-4.2466,-4.2518,-4.1748,-4.1133,0.0,-3.7715,-3.5054,0.0,0.0,0.0,0.0,-3.4549,-3.5007,-3.5443,-3.5922,-3.6758,-3.7196,-3.7445,-3.7375,-3.7478,-3.6671,0.0,-3.3412,-3.325,-3.1989,0.0,0.0,0.0,0.0,-3.0649,-3.2144,-3.2949,-3.3491,-3.366,-3.3355,-3.2437,-3.0757,-2.9858,-2.8912,-2.786,-2.5955,-2.4567,-2.3879,-2.1994,-2.0626,-1.9912,0.0,0.0,0.0,0.0,0.0,0.0,0.0,0.0,0.0,0.0,0.0,0.0,0.0,0.0,0.0,0.0,0.0,0.0,0.0,0.0,0.0,0.0,0.0,0.0,0.0,0.0,0.0,0.0,0.0,-3.867,-4.4461,0.0,0.0,0.0,0.0,-4.4236,-4.581,-4.7829,-5.0081,-5.0999,-5.2798,-5.5612,-5.7367,-5.8464,-5.8867,-5.9734,-6.0259,-6.0297,-6.0372,-6.041,-6.041,-6.0957,-6.0722,-6.0018,-6.0444,-6.0165,-5.9042,-5.4638,-5.2629,-5.2053,-4.8708,-4.6801,-4.5716,-4.5,-4.4058,-4.309,-4.2303,-4.2012,-4.1993,-4.185,-3.9994,-3.7534,-3.6621,-3.4886,0.0,0.0,-3.4223,-3.4922,-3.5675,-3.694,-3.7934,-3.7655,-3.875,-3.9709,-3.8952,-3.9406,-3.8841,0.0,-3.4464,-3.4192,-3.3423,0.0,-3.2645,-3.1292,-3.2273,-3.2983,-3.2374,-3.2949,-3.366,-3.437,-3.3186,-3.2068,-3.1384,-3.015,-2.9134,-2.8497,-2.6654,-2.5255,-2.4552,-2.2682,-2.1099,-1.994,-1.9238,0.0,0.0,0.0,0.0,0.0,0.0,0.0,0.0,0.0,0.0,0.0,0.0,0.0,0.0,0.0,0.0,0.0,0.0,0.0,0.0,0.0,0.0,0.0,0.0,0.0,0.0,0.0,0.0,-4.6242,-4.9587,0.0,0.0,-4.7111,-4.8053,-4.9752,-5.0533,-5.2443,-5.5871,-5.6401,-5.7271,-5.8813,-5.9448,-5.9878,-6.0018,-6.0314,-6.0506,-6.0506,-5.995,-5.9987,-6.0432,-5.9889,-5.9885,-6.0421,-6.0361,-6.0491,-6.0474,-5.811,-5.5847,-5.3644,-5.0822,-4.9005,-4.7823,-4.7474,-4.6544,-4.5379,-4.556,-4.4886,-4.3653,-4.1726,-3.9819,-3.8091,-3.7053,-3.6253,-3.5767,-3.6014,-3.6752,-3.7548,-3.7963,-3.8587,-3.9281,-3.9794,-4.0377,-4.0823,-4.103,-4.1317,-4.0983,-3.9177,-3.7677,-3.6468,-3.5723,-3.4776,-3.41,-3.4032,-3.4506,-3.4742,-3.4472,-3.5115,-3.5284,-3.4573,-3.4032,-3.3076,-3.1517,-3.0194,-2.9003,-2.7907,-2.6046,-2.4821,-2.4582,-2.3161,-2.1943,-2.106,-2.0069,-1.9448,0.0,0.0,0.0,0.0,0.0,0.0,0.0,0.0,0.0,0.0,0.0,0.0,0.0,0.0,0.0,0.0,0.0,0.0,0.0,0.0,0.0,0.0,0.0,0.0,0.0,0.0,-5.0124,-5.1108,-5.3819,-5.4654,-5.2315,-5.2382,-5.3345,-5.5285,-5.6246,-5.805,-6.1056,-6.1215,-6.163,-6.2438,-6.2181,-6.1924,-6.1667,-6.1667,-6.1484,-6.119,-6.0676,-6.0566,-6.075,-5.9913,-5.9806,-6.0342,-6.0004,-6.0159,-6.0551,-5.9581,-5.7898,-5.569,-5.3361,-5.175,-5.0716,-5.0098,-4.8911,-4.7505,-4.7091,-4.5776,-4.3881,-4.1897,-4.022,-3.8702,-3.7981,-3.7475,-3.7237,-3.7649,-3.8605,-3.9603,-3.9994,-4.0669,-4.1437,-4.2055,-4.2234,-4.2382,-4.2826,-4.274,-4.2415,-4.1665,-4.017,-3.87,-3.7686,-3.6671,-3.6096,-3.6366,-3.64,-3.64,-3.64,-3.684,-3.6671,-3.5385,-3.4835,-3.3762,-3.1946,-3.0371,-2.8933,-2.7611,-2.5895,-2.4821,-2.4582,-2.358,-2.2682,-2.2054,-2.102,-2.0381,-2.0177,0.0,0.0,0.0,0.0,0.0,0.0,0.0,0.0,0.0,0.0,0.0,0.0,0.0,0.0,0.0,0.0,0.0,0.0,0.0,0.0,0.0,0.0,0.0,-4.4357,-4.949,-5.3302,-5.311,-5.7118,-5.8774,-5.6026,-5.8846,-6.0812,-6.0614,-6.2818,-6.4545,-6.5338,-6.5375,-6.5742,-6.6476,-6.5742,-6.4971,-6.4127,-6.4127,-6.3723,-6.2879,-6.2842,-6.2401,-6.1679,-6.1278,-6.0683,-5.9942,-5.9553,-5.943,-5.9395,-5.8912,-5.8713,-5.8516,-5.6503,-5.5274,-5.4429,-5.2869,-5.1176,-4.9267,-4.6567,-4.425,-4.2372,-4.2372,-4.1055,-3.9499,-3.9469,-3.8542,-3.7674,-3.8272,-3.9612,-4.1013,-4.1697,-4.3135,-4.4483,-4.4373,-4.4403,-4.446,-4.4304,-4.3804,-4.3152,-4.2389,-4.1663,-4.0764,-3.9276,-3.9039,-3.8802,-3.8091,-3.799,0.0,-3.7956,-3.7922,-3.7652,-3.6907,-3.5552,-3.4112,-3.2661,-3.0688,-2.8914,-2.7565,-2.6259,-2.5255,-2.4582,-2.3969,-2.331,-2.2724,-2.2054,-2.1425,-2.0767,0.0,0.0,0.0,0.0,0.0,0.0,0.0,0.0,0.0,0.0,0.0,0.0,0.0,0.0,0.0,0.0,0.0,0.0,0.0,0.0,0.0,0.0,-5.1928,-5.0935,-5.4285,-5.7995,-6.0992,-6.273,-6.3861,-6.4258,-6.4331,-6.4612,-6.5357,-6.5496,-6.6001,-6.7006,-6.7026,-6.688,-6.6512,-6.6292,-6.5778,-6.4971,-6.4971,-6.4861,-6.4604,-6.3392,-6.3025,-6.3319,-6.1456,-6.0958,-6.1576,-6.0289,-6.0108,-6.0516,-5.9201,-5.8837,-5.8869,-5.6597,-5.5573,-5.5129,-5.306,-5.046,-4.7566,-4.4926,-4.3566,-4.3,-4.2521,-4.1983,-4.1384,-4.0427,-4.0217,-4.0217,-3.9948,-4.0974,-4.242,-4.3232,-4.4687,-4.6051,-4.6653,-4.6812,-4.6653,-4.611,-4.5405,-4.4509,-4.3303,-4.2513,-4.1508,-4.002,-3.9783,-3.9715,-3.9512,-3.9478,0.0,-3.8768,-3.87,-3.843,-3.7686,-3.7239,-3.598,-3.3545,-3.1542,-2.9388,0.0,-2.5105,-2.4059,-2.3879,-2.3699,-2.331,-2.2724,-2.2503,-2.2323,0.0,0.0,0.0,0.0,0.0,0.0,0.0,0.0,0.0,0.0,0.0,0.0,0.0,0.0,0.0,0.0,0.0,0.0,0.0,0.0,0.0,0.0,-5.4017,-5.7699,-5.8579,-6.0036,-6.2188,-6.5307,-6.5676,-6.6504,-6.8488,-6.7804,-6.7721,-6.8754,-6.8744,-6.8828,-6.921,-6.9192,-6.8825,-6.8017,-6.8017,-6.7614,-6.6843,-6.6806,-6.6659,-6.6292,-6.464,-6.3943,-6.4016,-6.1887,-6.1308,0.0,-6.03,-6.0041,-6.067,-5.9042,-5.8718,0.0,0.0,0.0,0.0,0.0,-4.9197,-4.698,-4.4521,-4.3569,-4.3269,-4.288,-4.2581,-4.2222,-4.1444,-4.1294,-4.137,-4.1395,-4.2571,-4.4098,-4.5277,-4.6562,-4.7692,-4.8415,-4.8134,-4.7546,-4.7095,-4.618,-4.5183,-4.4042,0.0,0.0,-4.0798,-4.029,-4.0087,-4.0087,-4.0087,-3.9918,-3.9512,-3.9445,-3.9174,-3.843,-3.8085,-3.6852,-3.4259,-3.2256,0.0,0.0,0.0,-2.4866,-2.4866,-2.4597,0.0,0.0,0.0,-2.3348,-2.3071,0.0,0.0,0.0,-2.3814,-2.4846,0.0,0.0,0.0,0.0,0.0,0.0,0.0,0.0,0.0,0.0,0.0,0.0,0.0,0.0,0.0,0.0,-5.9254,-6.2844,-6.6224,-6.6147,-6.6196,-6.7385,-6.7352,-6.8133,-7.0424,-7.0231,-7.0331,-7.1107,-7.1861,-7.1974,-7.1195,0.0,0.0,0.0,0.0,-6.9669,-6.8788,-6.8862,-6.8495,-6.765,-6.6145,-6.5007,-6.4163,-6.2585,-6.1814,-6.163,-6.0126,-5.9905,-6.0419,-5.8804,-5.838,-5.858,-5.6402,-5.503,-5.3765,-4.9816,-4.7959,-4.7061,-4.5092,0.0,0.0,-4.3329,-4.294,-4.2462,-4.2372,-4.2089,-4.1942,-4.2674,-4.4148,-4.5826,-4.7239,-4.8323,-4.9149,-4.9615,-4.8853,-4.7915,-4.7617,-4.6552,-4.5425,-4.4715,-4.3902,-4.2909,-4.1437,-4.0593,-4.0054,-3.9986,-3.9901,-3.985,-3.985,-3.9901,-3.9716,-3.9075,0.0,0.0,-3.5166,-3.3086,-3.106,-2.8996,-2.7334,-2.6445,-2.6385,-2.5819,-2.5789,-2.6355,-2.513,-2.421,-2.3688,-2.3572,-2.3777,-2.4238,-2.4652,-2.5509,0.0,0.0,0.0,0.0,0.0,0.0,0.0,0.0,0.0,0.0,0.0,0.0,0.0,0.0,0.0,-5.8918,-6.3758,-6.7828,-6.9941,-7.113,-7.1414,-7.0283,-7.1343,-7.2553,-7.3706,-7.3722,-7.327,-7.2357,-7.2642,-7.2041,-7.0115,-7.0843,0.0,-6.9192,-6.9743,-6.9376,-6.7944,-6.8568,-6.8495,-6.7687,0.0,0.0,-6.5044,-6.4053,-6.3246,-6.2511,-6.1557,-6.1227,-6.1227,-5.9648,-5.7919,-5.6257,-5.5253,-5.3568,-5.1571,-4.9425,-4.8158,-4.7232,-4.5341,-4.4633,-4.4358,-4.3536,-4.324,-4.306,-4.2521,-4.3229,0.0,-4.3727,-4.5298,-4.7243,-4.7538,-4.87,-4.9812,-4.9951,-4.9697,-4.9305,-4.8715,-4.7474,-4.6236,-4.5567,-4.4359,-4.2968,-4.1421,-4.0602,-3.9906,-3.9222,-3.8635,-3.8246,-3.8246,-3.8745,-3.909,-3.8957,-3.941,-3.9059,-3.7393,-3.4873,-3.2702,-3.1102,-2.7659,-2.5437,-2.4945,-2.48,-2.48,-2.4916,-2.4653,-2.4451,-2.4317,-2.377,-2.3798,-2.4277,-2.4831,-2.5688,0.0,0.0,0.0,0.0,0.0,0.0,0.0,0.0,0.0,0.0,0.0,-5.0992,0.0,0.0,-5.964,-6.3394,-6.6771,-6.9613,-7.165,-7.3269,-7.3775,-7.2371,-7.2976,-7.3822,-7.463,-7.4707,-7.4197,-7.289,-7.2913,-7.2087,-6.9999,-7.0754,-7.077,-6.9522,-7.0293,-7.011,-6.8898,-6.8898,-6.8715,-6.8274,-6.7063,-6.6292,-6.5852,-6.464,-6.3591,-6.2728,-6.1527,-6.0989,-6.0882,-5.933,-5.7489,-5.5599,-5.4443,-5.2857,-5.0986,-4.9327,-4.8231,-4.7373,-4.5992,-4.5488,-4.5342,-4.4358,-4.4082,-4.4021,-4.3686,-4.4188,-4.4943,-4.5547,-4.6608,-4.777,-4.8568,-4.9419,-4.9985,-4.999,-4.966,-4.9221,-4.8459,-4.7141,-4.6088,-4.576,-4.4414,-4.2998,-4.1923,-4.0437,-3.9184,-3.8464,-3.8051,-3.7905,-3.8302,-3.869,-3.9016,-3.942,-3.985,-3.9514,-3.8054,-3.5364,-3.2982,-3.1135,-2.8729,-2.7075,-2.6443,-2.5756,-2.5505,-2.5873,-2.4878,-2.4598,-2.5006,-2.3905,-2.3703,-2.4313,-2.4597,-2.5163,0.0,0.0,0.0,0.0,0.0,0.0,0.0,0.0,-4.815,-5.0447,-5.3327,-5.6023,-5.8178,-6.024,-6.3027,-6.7373,-6.9139,-7.0604,-7.2433,-7.3839,-7.4402,-7.3645,-7.3803,-7.4168,-7.4668,-7.4707,-7.421,-7.3033,-7.2982,-7.2229,-7.0347,-7.09,-7.0954,-7.011,-7.0734,-7.0697,-6.9853,-6.9229,-6.8825,-6.8641,-6.7158,-6.6372,-6.6189,-6.4712,-6.3493,-6.2458,-6.1055,-6.0295,-6.0078,-5.8482,-5.7035,-5.5548,-5.4074,-5.2672,-5.1254,-4.9726,-4.873,-4.7935,-4.7026,-4.6582,-4.6314,-4.5374,-4.4962,-4.4812,-4.5005,-4.5079,-4.5447,-4.7104,-4.7737,-4.8192,-4.9453,-4.9838,-4.978,-4.9765,-4.9318,-4.8734,-4.8092,-4.6988,-4.6109,-4.594,-4.459,-4.3164,-4.2157,-4.0291,-3.8653,-3.7884,-3.7567,-3.7616,-3.8325,-3.858,-3.8962,-3.9765,-4.0003,-3.9445,-3.79,-3.5655,-3.3264,-3.077,-2.9725,-2.885,-2.805,-2.6793,-2.6464,-2.7058,-2.5344,-2.4772,-2.5483,-2.4041,-2.3605,-2.4112,-2.4112,-2.4524,-4.2101,-4.1427,0.0,-4.4773,-4.5239,-4.728,0.0,0.0,-5.7054,-5.9804,-6.1808,-6.3008,-6.2866,-6.4986,-6.7411,-6.9469,-7.1357,-7.2671,-7.2902,-7.3133,-7.3376,-7.383,-7.4957,-7.5438,-7.4784,-7.4707,-7.4144,-7.2731,-7.2881,-7.2365,-7.0909,-7.1138,-7.0954,-7.011,-7.0183,-6.9853,-6.9045,-6.8935,-6.8531,-6.7834,-6.6874,-6.5981,-6.5258,-6.426,-6.303,-6.1619,-6.0767,-5.9997,-5.9239,-5.7681,-5.6536,-5.5554,-5.4086,-5.2941,-5.2097,-5.1223,-5.048,-4.9678,-4.8762,-4.7998,-4.7306,-4.6314,-4.5488,-4.4962,-4.5778,-4.6032,-4.6244,-4.7306,-4.8225,-4.8861,-4.9046,-4.9107,-4.9073,-4.9093,-4.9033,-4.8938,-4.887,-4.8233,-4.7462,-4.6786,-4.5384,-4.36,-4.1494,-4.0228,-3.9144,-3.7841,-3.6562,-3.6006,-3.6783,-3.7499,-3.8189,-3.8962,-3.9662,-3.9257,-3.7132,-3.663,-3.4883,-3.1232,-2.9797,-2.8463,-2.695,-2.6303,-2.6049,-2.6295,-2.5486,-2.5164,-2.5411,-2.4008,-2.3329,-2.3418,-2.3407,-2.4043,-4.4903,0.0,0.0,0.0,-5.1438,-5.4776,-5.9928,-6.1446,-6.234,-6.4332,-6.5782,-6.6545,-6.6038,-6.6864,-6.8037,0.0,-7.0448,-7.1405,-7.179,-7.1845,-7.1507,-7.0688,-7.1098,-7.1994,-7.3341,-7.3915,-7.3527,-7.1794,-7.2199,-7.1887,-7.0523,-7.1011,-7.1174,-7.0807,-7.0807,-7.066,-7.0293,-6.8851,-6.7986,-6.7658,-6.6243,-6.5375,-6.5019,-6.4173,-6.2692,-6.0758,-5.9492,-5.877,-5.8323,-5.6849,-5.5996,-5.5519,-5.4093,-5.3281,-5.2909,-5.2131,-5.1386,-5.068,-5.0322,-4.9689,-4.899,-4.8488,-4.7348,-4.6266,-4.6742,-4.6421,-4.6034,-4.6652,-4.7104,-4.7506,-4.7998,-4.8161,-4.8289,-4.8861,-4.9018,-4.9018,-4.9018,-4.8443,-4.7834,-4.7496,-4.5686,-4.3816,-4.2462,-4.017,-3.818,-3.6871,-3.635,-3.6398,-3.7207,-3.7589,-3.8246,-3.9506,-3.9901,-3.9528,-3.8155,-3.7625,-3.6115,-3.3051,-3.1517,-2.9777,-2.7802,-2.6789,-2.6349,-2.6497,-2.5465,-2.5023,-2.5249,-2.4216,-2.3573,-2.3326,-2.3312,-2.3638,-4.6418,0.0,0.0,-5.3,-5.7134,-6.1352,-6.358,-6.5493,-6.7126,-6.8053,-6.8518,-6.8519,-6.7794,-6.7504,0.0,-6.8458,-6.9412,-7.0293,-7.0657,-7.0387,-6.9554,-6.8128,-6.7158,-6.7616,-7.0232,-7.1597,-7.1859,-7.0731,-7.138,-7.1524,-7.0826,-7.1321,-7.1651,-7.1651,-7.1431,-7.1321,-7.1321,-6.9304,-6.8162,-6.7883,-6.6167,-6.5184,-6.4878,-6.3657,-6.2023,-6.0183,-5.8783,-5.8084,-5.778,-5.6528,-5.5886,-5.5581,-5.4296,-5.3687,-5.345,-5.2841,-5.2164,-5.1522,-5.1522,-5.0879,-5.0075,-4.9857,-4.8627,-4.7221,-4.7485,-4.6654,-4.5801,-4.6335,-4.6333,-4.6384,-4.7036,-4.7373,-4.7803,-4.845,-4.8798,-4.9018,-4.9018,-4.8578,-4.8078,-4.7597,-4.5832,-4.4026,-4.2932,-4.016,-3.7641,-3.6418,-3.6394,-3.6803,-3.7358,-3.8019,-3.8887,-3.9952,-4.0087,-3.9765,-3.8962,-3.8246,-3.6742,-3.4218,-3.2663,-3.0813,-2.8664,-2.7367,-2.6799,-2.6973,-2.5677,-2.5116,-2.5327,-2.4305,-2.3629,-2.3255,-2.2748,-2.2598,0.0,0.0,-5.3353,-5.6931,-6.1146,-6.5344,-6.8946,-7.1055,-7.2205,-7.1995,-7.0746,-6.9286,-6.7957,-6.7063,-6.6806,-6.7614,-6.9045,-7.011,-7.0128,-6.8806,-6.7709,-6.7347,-6.4538,-6.3275,0.0,-6.7112,-6.8734,-6.9676,-7.0474,-7.1361,-7.2406,-7.2459,-7.2459,-7.2459,-7.1725,-7.1321,-7.1321,-7.0477,-6.9602,-6.8651,-6.6922,-6.5653,-6.4759,-6.2412,-6.0901,-6.0088,-5.9302,-5.8558,-5.7814,-5.707,-5.6359,-5.5649,-5.4871,-5.4126,-5.3518,-5.3484,-5.2976,-5.2266,-5.2266,-5.1319,-5.0075,-4.9823,-4.8556,-4.7317,-4.7882,-4.6925,-4.5925,-4.6866,-4.6717,-4.6173,-4.6244,-4.6936,-4.7605,-4.7671,-4.8353,-4.9018,-4.9018,-4.8984,-4.85,-4.6877,-4.5828,-4.4464,-4.2171,-4.0099,-3.8304,-3.7008,-3.6806,-3.6699,-3.6477,-3.8537,-4.0087,-4.0087,-4.0087,-3.9765,-3.8962,-3.8246,-3.6658,-3.3984,-3.2579,-3.0912,-2.895,-2.7846,-2.7385,-2.7604,-2.6238,-2.5677,-2.588,-2.4165,-2.3309,-2.3238,-2.1384,-2.0819,0.0,0.0,-5.9702,-6.3873,-6.7381,-7.061,-7.3491,-7.4426,-7.4216,-7.2522,-6.9642,-6.6832,-6.4772,-6.3291,-6.2815,-6.4171,-6.6239,-6.7724,-6.7724,-6.7687,-6.647,-6.3147,-6.2187,0.0,0.0,0.0,0.0,-6.903,-6.9885,-7.1268,-7.3156,-7.3303,-7.3303,-7.3303,-7.3046,-7.2642,-7.2092,-7.0748,-6.957,-6.8627,-6.5746,-6.3741,-6.2446,-6.1113,-6.008,-5.9336,-5.8592,-5.8118,-5.778,-5.6596,-5.5919,-5.5581,-5.4363,-5.3721,-5.3518,-5.3518,-5.2606,-5.146,-5.2067,-5.1229,-4.9925,-5.0311,-4.8804,-4.7011,-4.77,-4.7084,-4.6092,-4.6009,-4.5445,-4.508,-4.5703,-4.6661,-4.7415,-4.7571,-4.8656,-4.9593,-4.912,-4.9018,-4.8635,-4.7472,-4.6442,-4.5253,-4.3448,-4.0812,-3.8114,-3.5627,-3.5849,-3.6663,-3.7836,-3.9106,-4.0068,-4.0577,-4.0967,-4.0967,-4.0314,-3.9063,-3.7239,-3.4723,-3.3192,-3.1272,-2.9026,-2.8574,-2.8091,-2.7411,-2.6955,-2.6102,-2.4797,-2.415,-2.3349,-2.2389,-2.1711,-2.1464,-5.5821,-6.048,-6.5022,-6.9217,-7.2301,-7.4676,-7.612,-7.5652,-7.4122,-7.1153,-6.7399,-6.3679,-6.064,-5.9237,-5.8871,-5.9896,-6.2398,-6.4537,-6.5469,-6.5763,-6.4846,-6.2071,-6.163,0.0,0.0,0.0,0.0,-6.7888,-6.9596,-7.1321,-7.3156,-7.3523,-7.3707,-7.3707,-7.312,-7.2606,-7.2092,-7.0711,-6.9264,-6.7758,-6.5164,-6.2999,-6.1298,-6.0757,-5.9979,-5.8998,-5.849,-5.8118,-5.7814,-5.6596,-5.5953,-5.5581,-5.4363,-5.3483,-5.2939,-5.2939,-5.1848,-5.0484,-5.146,-5.072,-4.9355,-4.9604,-4.8198,-4.6478,-4.6849,-4.601,-4.4851,-4.4414,-4.4174,-4.4093,-4.477,-4.605,-4.7277,-4.7456,-4.8828,-4.9898,-4.9154,-4.9221,-4.8942,-4.7439,-4.6592,-4.5596,-4.3661,-4.0525,-3.7592,-3.5209,-3.503,-3.5908,-3.7934,-3.9235,-4.0268,-4.1011,-4.1626,-4.1753,-4.1146,-3.9817,-3.7873,-3.5409,-3.3409,-3.1468,-2.9605,-2.8746,-2.8201,-2.7896,-2.767,-2.6719,-2.4992,-2.4204,-2.3039,-2.1564,-2.0647,-2.0119,-5.9714,-6.4611,-6.9309,-7.2947,-7.5709,-7.7417,-7.6803,-7.4816,-7.2062,-6.8178,-6.3987,-5.9822,0.0,0.0,-5.5113,-5.5259,-5.8032,-6.1039,-6.3591,-6.3423,-6.3277,0.0,0.0,0.0,0.0,0.0,0.0,-6.6512,0.0,-7.1651,-7.2496,-7.3303,-7.3744,-7.3707,-7.2239,-7.1394,-7.1321,-7.0421,-6.8717,-6.6167,-6.5229,-6.3549,-6.1231,-6.1231,-6.0419,-5.8964,-5.893,-5.849,-5.778,-5.693,-5.6187,-5.5511,-5.4664,-5.3332,-5.1849,-5.1849,-5.0774,-4.9459,-5.0412,-4.9596,-4.8084,-4.7808,-4.6802,-4.5572,-4.5338,-4.4047,-4.2554,-4.2554,-4.2935,-4.3342,-4.3372,-4.5263,-4.7075,-4.7157,-4.866,-4.9869,-4.9221,-4.9593,-4.932,-4.6786,-4.6166,-4.5299,-4.2831,-3.9556,-3.6935,-3.5743,-3.4515,-3.4525,-3.6983,-3.9023,-4.0627,-4.1563,-4.2139,-4.2219,-4.1653,-4.0374,-3.8456,-3.5908,-3.3245,-3.137,-3.0423,-2.8415,-2.7859,-2.8775,-2.8324,-2.7508,-2.6335,-2.4168,-2.239,-2.0835,-1.8313,-1.7008,-6.5781,-7.0028,-7.3841,-7.7361,-7.7888,-7.7302,-7.6128,-7.2687,-6.848,-6.4007,-5.8835,-5.4164,0.0,0.0,0.0,-5.4894,-5.8615,0.0,-6.4589,-6.6313,0.0,0.0,0.0,-6.5999,-6.5595,-6.6292,0.0,0.0,-6.9596,-7.1284,-7.3303,-7.4147,-7.4331,-7.3707,-7.3303,-7.2496,-7.1321,-6.9828,-6.8067,-6.6167,-6.5229,-6.3274,-6.0419,-6.0419,-5.9573,-5.8152,-5.7611,-5.7239,-5.6896,-5.4868,-5.3911,-5.35,-5.2039,-5.1167,-5.0779,-5.0779,-4.9719,-4.8263,-4.8466,-4.7387,-4.591,-4.6169,-4.4966,-4.3385,-4.3873,-4.3676,-4.3283,-4.3283,-4.3027,-4.281,-4.3312,-4.4501,-4.5694,-4.6294,-4.8181,-4.9859,-4.9839,-4.9965,-4.9454,-4.7432,-4.5797,-4.4327,-4.2855,-4.0689,-3.8608,-3.6545,-3.4366,-3.4393,-3.8263,-3.9266,-4.0782,-4.3719,-4.4013,-4.3801,-4.3286,-4.0558,-3.7575,-3.4593,-3.2017,-2.988,-2.8041,-2.8281,-2.8187,-2.7734,-2.7589,-2.6333,-2.4067,-2.2635,-2.0813,-1.8594,-1.7946,-1.7876,-7.0076,-7.4034,-7.74,-7.9323,-7.8247,-7.6038,-7.3481,-6.8758,-6.3464,-5.827,-5.3434,0.0,0.0,0.0,0.0,0.0,0.0,0.0,-6.3108,-6.538,-6.6643,0.0,-6.8091,0.0,-6.7687,-6.8935,-6.9853,0.0,-7.0697,-7.1908,-7.3597,-7.4147,-7.4331,-7.4221,-7.3193,-7.1872,-7.0257,-6.9289,-6.775,-6.5672,-6.5478,-6.3543,-6.0114,-6.0114,-5.9302,-5.7848,0.0,-5.6799,-5.6592,-5.4044,-5.2975,-5.2836,-5.1037,-5.0087,-4.9694,-4.9694,-4.8649,-4.7098,-4.681,-4.5457,-4.4066,-4.4879,-4.3806,-4.2208,-4.2533,-4.2252,-4.1789,-4.1789,-4.1941,-4.2358,-4.3209,-4.4182,-4.5284,-4.6719,-4.8426,-4.9756,-4.9641,-4.9813,-4.9326,-4.7075,-4.5585,-4.4377,-4.3226,-4.131,-3.9267,-3.727,-3.435,-3.3766,-3.7317,-3.8718,-4.0701,-4.42,-4.5067,-4.4928,-4.3623,-3.9852,-3.5982,-3.2218,-2.8578,-2.6044,-2.4934,-2.5309,-2.5676,-2.6107,-2.6107,-2.512,-2.3124,-2.0863,-1.8919,-1.7479,-1.6789,-1.7107,-7.3255,-7.6861,-7.9823,-7.9823,-7.7604,-7.4279,-6.9886,-6.4091,-5.7987,-5.2236,0.0,0.0,-4.4231,0.0,-4.6339,-4.9034,0.0,-5.5998,-6.1116,-6.3313,-6.5307,-6.7724,-7.0146,-7.1064,-6.9669,-7.1541,-7.2532,-7.1835,-7.2422,-7.3083,-7.367,-7.378,-7.4074,-7.4588,-7.2459,-7.066,-6.9229,-6.9009,-6.7651,-6.5176,-6.5743,-6.3974,-6.0114,-6.0114,-5.9302,-5.7848,0.0,0.0,-5.6342,-5.3724,-5.2655,-5.2431,-5.0653,-4.9376,-4.8594,-4.8594,-4.7707,-4.633,-4.5694,-4.4196,-4.2703,-4.3533,-4.2562,-4.0993,-4.0867,-4.0007,-3.9154,-3.9362,-4.0211,-4.1439,-4.2917,-4.3938,-4.5035,-4.7423,-4.8771,-4.9486,-4.9147,-4.9293,-4.8803,-4.6421,-4.5707,-4.5173,-4.4094,-4.1992,-3.9793,-3.8121,-3.456,-3.299,-3.5494,-3.7746,-4.0371,-4.3759,-4.5077,-4.4638,-4.2043,-3.7373,-3.2423,-2.758,-2.3299,-2.0908,-2.0695,-2.0619,-2.1536,-2.3584,-2.3649,-2.311,-2.2007,-1.8573,-1.6834,-1.6661,-1.5368,-1.5864,-7.5938,-7.8207,-7.9823,-7.9823,-7.7007,-7.2886,-6.7543,-6.098,0.0,0.0,0.0,-4.3395,-4.234,-4.3975,0.0,-5.0617,0.0,0.0,0.0,0.0,-6.7724,0.0,0.0,0.0,0.0,0.0,0.0,0.0,0.0,0.0,-7.3707,-7.4331,-7.4147,-7.2973,-7.1872,-7.1174,-7.0917,-6.9559,-6.7942,-6.5955,-6.5459,-6.338,-6.0114,-6.0114,-5.9302,-5.7814,0.0,0.0,-5.517,-5.2085,-5.0675,-5.0153,-4.8485,-4.7679,-4.7538,-4.7538,-4.7392,-4.6957,-4.584,-4.4478,-4.3026,-4.0952,-3.9346,-3.7983,-3.6764,-3.6248,-3.6271,-3.7583,-3.8007,-3.8881,-4.1896,-4.275,-4.3686,-4.6649,-4.7942,-4.8731,-4.945,-4.8868,-4.7965,-4.7477,-4.6659,-4.6058,-4.5888,-4.3827,-4.1661,-3.9853,-3.5244,-3.277,-3.5273,-3.6787,-3.9292,-4.3864,-4.2612,-3.9556,-3.4938,-2.8892,-2.2366,-1.5376,-1.5914,-1.5708,-1.3624,-1.6038,-1.7677,-1.8457,-1.8441,-1.7964,-1.6871,-1.5377,-1.4473,-1.4279,-1.5029,-1.6625,-7.7207,-7.9169,-8.0362,-7.99,-7.5714,-7.0153,-6.4401,0.0,0.0,0.0,0.0,-4.1143,-4.1107,0.0,0.0,0.0,0.0,0.0,0.0,0.0,0.0,0.0,0.0,0.0,0.0,0.0,0.0,0.0,0.0,0.0,-7.4368,-7.4294,-7.3744,-7.2532,-7.1725,-7.1321,-7.1321,-7.055,-6.885,-6.6167,-6.627,-6.4113,-6.0114,-6.0114,-5.9302,-5.7814,-5.5755,0.0,-5.4832,-5.1487,-4.9934,-4.9665,-4.8313,-4.7608,-4.7309,-4.7309,-4.7309,-4.7019,-4.5115,-4.3975,-4.2999,-3.9548,-3.804,-3.724,-3.5727,-3.5288,-3.5617,-3.7026,-3.7477,-3.8307,-4.2043,-4.2747,-4.3314,-4.6652,-4.7838,-4.8307,-4.869,-4.8168,-4.7738,-4.7738,-4.7258,-4.6971,-4.7502,-4.5434,-4.3116,-4.123,-3.7165,-3.4426,-3.5021,-3.5625,-3.7218,-4.0456,-3.7184,-3.259,-2.7106,-1.8329,-1.0835,-0.5475,-0.5507,-0.5519,-0.5222,-0.8163,-1.0203,-1.1165,-1.2814,-1.3408,-1.2867,-1.2604,-1.2946,-1.3596,-1.4816,-1.7281,-7.7553,-7.9515,-8.0592,-7.9746,-7.4201,-6.7505,-6.1754,-5.428,0.0,0.0,-4.0311,-3.948,-4.013,0.0,0.0,0.0,0.0,0.0,0.0,0.0,0.0,0.0,0.0,0.0,0.0,0.0,0.0,0.0,0.0,0.0,0.0,-7.4294,-7.3523,-7.2532,-7.1908,-7.1578,-7.1578,-7.1186,-6.9466,-6.6483,-6.6739,-6.4459,-6.0114,-6.0114,-5.9302,-5.7741,-5.5339,0.0,0.0,-5.1253,-4.9758,-4.9573,-4.8498,-4.7758,-4.7309,-4.7309,-4.7106,-4.655,-4.4256,-4.3313,-4.2517,-3.8669,-3.7263,-3.6703,-3.5288,-3.4626,-3.4736,-3.6487,-3.7026,-3.804,-4.2393,-4.3144,-4.3441,-4.6584,-4.7449,-4.7589,-4.7392,-4.7446,-4.765,-4.7923,-4.779,-4.7819,-4.8677,-4.6337,-4.3783,-4.223,-3.8819,-3.6038,-3.5203,-3.4879,-3.5197,-3.6183,-3.293,-2.7503,-1.9656,-0.7944,0.0451,0.3746,0.4928,0.454,0.2453,-0.0108,-0.227,-0.3898,-0.6339,-0.7739,-0.8012,-0.9116,-1.1026,-1.3624,-1.5051,-1.8143,-7.6677,-7.8631,-7.9708,-7.8823,-7.2936,-6.5989,-6.0808,0.0,0.0,0.0,-3.9698,-3.9085,-3.9443,-3.9914,-4.1463,0.0,0.0,0.0,0.0,0.0,0.0,0.0,0.0,0.0,0.0,0.0,0.0,0.0,0.0,0.0,0.0,-7.4845,-7.4111,-7.2569,-7.2422,-7.2386,-7.2386,-7.0835,-6.9117,-6.7262,-6.5757,-6.3279,-6.0114,-6.0114,-5.9302,-5.7775,0.0,0.0,0.0,-5.1142,-4.9671,-4.9224,-4.7935,-4.7369,-4.7309,-4.7309,-4.655,-4.5389,-4.3975,-4.2738,-4.1267,-3.8404,-3.6595,-3.5178,-3.3733,-3.2322,-3.1883,-3.4736,-3.5508,-3.6741,-4.2074,-4.3448,-4.3882,-4.5602,-4.5987,-4.604,-4.6017,-4.6526,-4.7317,-4.844,-4.8697,-4.8677,-4.8728,-4.5932,-4.3416,-4.2685,-3.8948,-3.6208,-3.6238,-3.5219,-3.4059,-3.273,-3.3391,-2.8077,-1.3523,0.0783,1.0278,1.3353,1.2757,1.0823,0.7475,0.5806,0.3981,0.1854,0.1319,0.041,-0.0743,-0.3538,-0.7855,-1.3713,-1.6299,-1.9712,-7.3841,-7.6976,-7.8669,-7.7323,-7.1565,-6.4931,-5.9866,0.0,0.0,-4.0888,-3.9156,-3.8223,-3.833,-3.8905,-4.0199,0.0,0.0,0.0,0.0,0.0,0.0,0.0,0.0,0.0,0.0,0.0,0.0,0.0,0.0,0.0,0.0,-7.3433,-7.3156,-7.2532,-7.2496,-7.2226,-7.1635,-7.0997,-6.9506,-6.719,-6.609,-6.3858,-6.0825,-6.0317,-5.8732,-5.6254,0.0,0.0,0.0,-5.0309,-4.9189,-4.8626,-4.8087,-4.7668,-4.7222,-4.6432,-4.5869,-4.5115,-4.3026,-4.1985,-4.1293,-3.939,-3.782,-3.6379,-3.4847,-3.3979,-3.3979,-3.6054,-3.7169,-3.8674,-4.2463,-4.4627,-4.5781,-4.561,-4.5551,-4.5551,-4.5551,-4.6282,-4.7462,-4.9425,-4.9215,-4.8973,-4.9615,-4.6954,-4.4023,-4.2154,-3.9488,-3.7145,-3.577,-3.4847,-3.3835,-3.2671,-2.7796,-2.0709,-1.1279,0.1975,1.0785,1.3183,1.433,1.368,1.0978,0.896,0.7708,0.7471,0.822,0.6386,0.188,-0.3698,-0.9354,-1.4947,-1.7529,-2.0727,-6.9865,-7.364,-7.5908,-7.4627,-6.9022,-6.2703,0.0,0.0,-4.2808,-4.0556,-3.8685,-3.7468,-3.7541,-3.7968,-3.8897,0.0,0.0,0.0,0.0,0.0,0.0,0.0,0.0,0.0,0.0,0.0,0.0,0.0,0.0,0.0,0.0,-7.1975,-7.2275,-7.2496,-7.2226,-7.1794,-7.1095,-7.0499,-6.9071,-6.6734,-6.5945,-6.3931,-6.0926,-6.0011,-5.8174,-5.5479,0.0,0.0,0.0,-4.9609,-4.8716,-4.8267,-4.8087,-4.7728,-4.7106,-4.5869,-4.5115,-4.4535,-4.235,-4.1319,-4.0945,-3.9981,-3.9025,-3.7902,-3.6379,-3.5617,-3.5617,-3.7026,-3.9191,-4.1497,-4.3543,-4.59,-4.7219,-4.5298,-4.484,-4.484,-4.484,-4.5903,-4.7539,-4.9946,-4.9773,-4.9345,-4.9757,-4.6748,-4.3432,-4.1104,-3.8994,-3.7049,-3.5479,-3.4809,-3.4195,-3.3736,-2.6641,-1.9193,-1.2604,-0.2408,0.5025,0.8301,0.9971,1.0219,0.8729,0.692,0.6308,0.7089,0.7975,0.6225,0.153,-0.5171,-1.188,-1.8631,-1.9843,-2.2473,-6.4709,-6.829,-7.0853,-7.0369,-6.4862,-5.8744,0.0,0.0,-4.1173,-4.0267,-3.8341,-3.6895,-3.7167,-3.7013,-3.7421,-3.9328,-4.0574,0.0,0.0,0.0,0.0,0.0,0.0,0.0,0.0,0.0,0.0,0.0,0.0,0.0,0.0,0.0,-7.1688,-7.2459,-7.1573,-7.1095,-7.1095,-6.9206,-6.7503,-6.6011,-6.5073,-6.3024,-6.0114,-5.9006,-5.7701,0.0,0.0,0.0,0.0,-4.9307,-4.8297,-4.8207,-4.7578,-4.7309,-4.7106,-4.5869,-4.4627,-4.3313,-4.2084,-4.0743,-3.9697,-3.9697,-3.9697,-3.9362,-3.7902,-3.6487,-3.5617,-3.7026,-4.1077,-4.501,-4.5331,-4.71,-4.7867,-4.4386,-4.3504,-4.3504,-4.3504,-4.5133,-4.7357,-4.9914,-5.0397,-5.0023,-4.8773,-4.451,-4.088,-3.955,-3.7121,-3.5472,-3.5742,-3.5355,-3.5136,-3.5469,-3.263,-2.7049,-1.7851,-1.2718,-0.7315,-0.0998,-0.0873,-0.0975,-0.0656,-0.138,-0.1552,-0.1218,-0.1397,-0.1588,-0.18,-0.7095,-1.507,-2.526,-2.3594,-2.5337,-5.7711,-6.0912,-6.2953,-6.2146,-5.8676,-5.4503,-5.1084,0.0,-4.0681,-3.8772,-3.7475,-3.6655,-3.6661,-3.6655,-3.744,-3.9799,-4.0816,0.0,0.0,0.0,0.0,0.0,0.0,0.0,0.0,0.0,0.0,0.0,0.0,0.0,0.0,0.0,-7.0844,-7.1651,-7.0774,-7.0009,-6.9308,-6.7543,-6.6393,-6.5824,-6.447,-6.2388,-5.9738,-5.8885,0.0,0.0,0.0,0.0,0.0,-4.8623,-4.8027,-4.7608,-4.7399,-4.7309,-4.7019,-4.4932,-4.3882,-4.3218,-4.1019,-3.9415,-3.8243,-3.8243,-3.7477,-3.6619,-3.6162,-3.7049,-3.8767,-4.1015,-4.3283,-4.543,-4.7212,-4.8232,-4.8087,-4.5219,-4.4698,-4.4535,-4.3693,-4.5248,-4.7286,-4.8992,-4.8635,-4.7539,-4.6132,-4.2629,-3.9193,-3.6744,-3.4934,-3.3944,-3.4238,-3.4198,-3.4536,-3.6018,-3.4878,-3.1481,-2.4987,-1.9483,-1.5035,-1.169,-1.0364,-0.9517,-0.9015,-1.151,-1.264,-1.221,-0.9997,-0.9478,-1.0803,-1.7125,-2.2236,-2.6062,-2.6976,-2.8621,0.0,-5.4409,-5.6398,-5.5333,-5.2783,-4.9825,-4.7055,-4.3008,-3.9341,-3.7895,-3.6928,-3.6326,-3.6284,-3.6326,-3.7151,-3.9476,-4.0288,0.0,0.0,0.0,0.0,0.0,0.0,0.0,0.0,0.0,0.0,0.0,0.0,0.0,0.0,0.0,-6.9595,-6.9456,-6.9146,-6.8556,-6.7586,-6.6214,-6.5299,-6.485,-6.3194,-6.1298,-5.9152,-5.7539,0.0,0.0,0.0,0.0,0.0,-4.8117,-4.7668,-4.7309,-4.7309,-4.7019,-4.6344,-4.4256,-4.3218,-4.2447,-3.9802,-3.8243,-3.737,-3.6811,-3.5727,-3.4515,-3.5178,-3.6619,-3.8638,-4.1162,-4.3332,-4.5287,-4.7546,-4.8779,-4.8635,-4.5668,-4.4852,-4.4349,-4.3026,-4.4549,-4.6458,-4.7207,-4.6658,-4.5493,-4.3582,-4.0249,-3.698,-3.467,-3.3556,-3.3168,-3.3604,-3.4125,-3.4973,-3.6268,-3.6497,-3.5069,-3.1691,-2.714,-2.343,-2.1045,-2.0167,-1.9028,-1.7448,-1.9597,-2.0497,-1.9618,-1.7369,-1.6951,-1.8556,-2.4114,-2.7031,-2.7575,-2.9707,-3.1088,0.0,0.0,0.0,0.0,-4.7237,-4.4821,-4.3516,-4.0312,0.0,-3.7378,-3.6603,-3.601,-3.6044,-3.6044,-3.6688,-3.8624,0.0,0.0,0.0,0.0,0.0,0.0,0.0,0.0,0.0,0.0,0.0,0.0,0.0,0.0,0.0,0.0,0.0,-6.6187,-6.6637,-6.6532,-6.5729,-6.48,-6.389,-6.3168,-6.1401,-5.9696,-5.8068,-5.5296,0.0,0.0,0.0,0.0,0.0,-4.7818,-4.7222,-4.7106,-4.7106,-4.6344,-4.5115,-4.3787,-4.2544,-4.1067,-3.8404,-3.7346,-3.6918,-3.5508,-3.4069,-3.3191,-3.4403,-3.4958,-3.5681,-3.8442,-4.1609,-4.4556,-4.631,-4.8461,-4.9251,-4.5845,-4.4273,-4.3218,-4.1887,-4.3338,-4.4862,-4.4862,-4.4571,-4.3554,-4.1029,-3.7397,-3.4428,-3.3261,-3.3077,-3.33,-3.3754,-3.4982,-3.6054,-3.6508,-3.752,-3.7896,-3.752,-3.4977,-3.2043,-2.8994,-2.9754,-2.8896,-2.5655,-2.5962,-2.5588,-2.4162,-2.3547,-2.3859,-2.508,-2.8131,-2.9681,-2.9758,-3.1748,-3.2664,-3.9833,0.0,-4.3098,-4.2812,-4.194,-4.0694,0.0,-3.8041,-3.7111,-3.5557,0.0,0.0,-3.6537,-3.665,0.0,0.0,0.0,0.0,0.0,0.0,0.0,0.0,0.0,0.0,0.0,0.0,0.0,0.0,0.0,0.0,0.0,0.0,0.0,-6.3645,-6.3091,-6.3066,-6.3373,-6.19,-6.0942,-6.0472,-5.9547,-5.7669,-5.5002,-5.4313,0.0,0.0,0.0,0.0,-4.8446,-4.7638,-4.6726,-4.5869,-4.5869,-4.5115,-4.3787,-4.2544,-4.1115,-3.9728,-3.8065,-3.6031,-3.3845,-3.2436,-3.1652,-3.1189,-3.0276,-3.1647,-3.4137,-3.6921,-3.965,-4.2289,-4.4637,-4.6453,-4.7232,-4.5401,-4.4944,-4.4349,-4.2084,-4.2807,-4.3892,-4.3892,-4.2108,-4.0104,-3.8349,-3.55,-3.3465,-3.317,-3.3077,-3.3853,-3.5713,-3.5836,-3.6451,-3.8101,-3.8215,-3.8416,-3.9256,-3.8222,-3.6844,-3.5194,-3.5368,-3.4314,-3.1772,-3.1845,-3.0959,-2.8985,-2.8458,-2.8645,-2.9681,-3.0416,-3.1188,-3.1893,-3.3087,-3.3671,-3.7936,-3.9085,-4.0312,-3.9696,-3.9323,-3.8682,-3.7475,0.0,0.0,0.0,0.0,0.0,0.0,0.0,0.0,0.0,0.0,0.0,0.0,0.0,0.0,0.0,0.0,0.0,0.0,0.0,0.0,0.0,0.0,0.0,0.0,0.0,0.0,0.0,-6.0186,-6.0281,-6.141,-6.0063,-5.9285,-5.9086,-5.7307,-5.5534,-5.3982,-5.3161,0.0,0.0,0.0,0.0,-4.8237,-4.6904,-4.6077,-4.5298,-4.4748,-4.3787,-4.2447,-4.1115,-3.9753,-3.8202,-3.6225,-3.3957,-3.1862,-3.0236,-2.9766,-2.9412,-2.7811,-2.8491,-3.0296,-3.2405,-3.539,-3.8266,-4.0316,-4.2953,-4.469,-4.3445,-4.3349,-4.3122,-4.1119,-4.169,-4.2447,-4.1887,-4.0462,-3.896,-3.7522,-3.555,-3.4069,-3.4069,-3.4736,-3.5523,-3.653,-3.7237,-3.7982,-3.8845,-3.9419,-3.9944,-4.0661,-4.0855,-4.0032,-3.7702,-3.8053,-3.7254,-3.4981,-3.4684,-3.3331,-3.0633,-3.0751,-3.0955,-3.1167,-3.2019,-3.2735,-3.3255,-3.4245,-3.4706,-3.7828,-3.9193,-4.0274,-3.893,-3.8443,-3.8158,-3.7594,0.0,0.0,0.0,0.0,0.0,0.0,0.0,0.0,0.0,0.0,0.0,0.0,0.0,0.0,0.0,0.0,0.0,0.0,0.0,0.0,0.0,0.0,0.0,0.0,0.0,0.0,0.0,-5.7877,-5.7988,-5.9144,-5.815,-5.751,-5.7315,-5.4735,-5.3427,-5.3248,-5.1666,0.0,0.0,0.0,0.0,-4.7703,-4.5892,-4.5024,-4.472,-4.3598,-4.2447,-4.1093,-3.9651,-3.8307,-3.6703,-3.3733,-3.1747,-3.0274,-2.8902,-2.8426,-2.8051,-2.647,-2.6227,-2.6574,-2.7551,-3.067,-3.3918,-3.5363,-3.9018,-4.2018,-4.0886,-4.1104,-4.1219,-3.9981,-4.0541,-4.1019,-3.9878,-3.9418,-3.8803,-3.7666,-3.6271,-3.5398,-3.5617,-3.6703,-3.7522,-3.746,-3.8786,-3.9812,-3.9734,-4.0851,-4.1728,-4.198,-4.2769,-4.1938,-3.8889,-3.9235,-3.8638,-3.6346,-3.5503,-3.3907,-3.1185,-3.1733,-3.1898,-3.1609,-3.3227,-3.4109,-3.4245,-3.5133,-3.5519,-3.8433,-3.9983,-4.1033,-3.9408,-3.9216,-3.9105,-3.807,0.0,0.0,0.0,0.0,0.0,0.0,0.0,0.0,0.0,0.0,0.0,0.0,0.0,0.0,0.0,0.0,0.0,0.0,0.0,0.0,0.0,0.0,0.0,0.0,0.0,0.0,0.0,0.0,-5.5698,-5.5057,-5.4026,-5.3036,-5.2041,-5.1608,-5.0918,-5.0035,-4.9704,-4.9224,0.0,0.0,-4.6413,-4.5714,-4.4406,-4.3122,-4.2181,-4.1985,-4.1119,-3.975,-3.8299,-3.6895,-3.5178,-3.2207,-3.0119,-2.8783,-2.8545,-2.8426,-2.8051,-2.647,-2.6953,-2.7811,-2.6695,-2.87,-3.1499,-3.2754,-3.6508,-3.9905,-3.9702,-4.0663,-4.1219,-3.9981,-3.9878,-3.9878,-3.9697,-3.8662,-3.7748,-3.7559,-3.6271,-3.5727,-3.6918,-3.737,-3.8275,-4.0563,-4.0245,-4.0763,-4.3291,-4.2339,-4.2233,-4.3753,-4.3578,-4.2842,-4.1833,-4.0508,-3.8717,-3.6318,-3.4846,-3.399,-3.3826,-3.2581,-3.2543,-3.3602,-3.3876,-3.4476,-3.5294,-3.5424,-3.5519,-3.8041,-3.9081,-4.0055,-3.9805,-4.0482,-4.0895,-3.9711,0.0,0.0,0.0,0.0,0.0,0.0,0.0,0.0,0.0,0.0,0.0,0.0,0.0,0.0,0.0,0.0,0.0,0.0,0.0,0.0,0.0,0.0,0.0,0.0,0.0,0.0,0.0,0.0,-5.3559,-5.2129,-5.1041,-5.0693,-5.0909,-5.0284,-4.9819,-4.9254,-4.9254,-4.8596,-4.7222,0.0,-4.5595,-4.4256,-4.3026,-4.2181,-4.1492,-4.0844,-4.0262,-3.9465,-3.7156,-3.4847,-3.2644,-3.0334,-2.9039,-2.8289,-2.7434,-2.7073,-2.6953,-2.6227,-2.647,-2.6953,-2.6227,-2.7639,-2.9517,-3.0103,-3.3698,-3.7121,-3.7121,-3.8901,-4.0364,-3.9775,-3.9697,-3.9697,-3.9697,-3.9129,-3.8687,-3.8687,-3.8137,-3.8113,-3.9546,-3.9752,-4.0438,-4.235,-4.245,-4.2838,-4.4231,-4.3598,-4.336,-4.4206,-4.3718,-4.291,-4.1893,-4.0227,-3.8609,-3.7127,-3.525,-3.4286,-3.4416,-3.3615,-3.3459,-3.4013,-3.4543,-3.5067,-3.5519,-3.5519,-3.5519,-3.7826,-3.8506,-3.9332,-4.0092,0.0,-4.1956,-4.1961,-4.1304,0.0,0.0,0.0,0.0,0.0,0.0,0.0,0.0,0.0,0.0,0.0,0.0,0.0,0.0,0.0,0.0,0.0,0.0,0.0,0.0,0.0,0.0,0.0,0.0,0.0,0.0,0.0,0.0,-5.0429,-4.9615,-4.9501,-5.0051,-4.9189,-4.8805,-4.8805,-4.8506,-4.7548,-4.6109,-4.5523,-4.4394,-4.293,-4.169,-4.1119,-4.1019,-4.0083,-3.9258,-3.8372,-3.6162,-3.3438,-3.0645,-2.9039,-2.817,-2.7692,-2.6349,-2.5984,-2.6106,-2.647,-2.6832,-2.7194,-2.7194,-2.7811,-2.8426,-2.8426,-3.1532,-3.4847,-3.5178,-3.7263,-3.9258,-3.9594,-3.9697,-3.9697,-3.9697,-3.9697,-3.9697,-3.9697,-3.9697,-4.0185,-4.1419,-4.1591,-4.2181,-4.3787,-4.4209,-4.4556,-4.4821,-4.4482,-4.4257,-4.4107,-4.3629,-4.2851,-4.1683,-4.0106,-3.8717,-3.7662,-3.6243,-3.5271,-3.4938,-3.4938,-3.4792,-3.4612,-3.537,-3.5639,-3.5519,-3.5519,-3.5519,-3.8504,-3.9441,-4.0164,-4.0201,-4.0159,0.0,-4.4785,-4.4872,0.0,-4.7785,0.0,0.0,0.0,0.0,0.0,0.0,0.0,0.0,0.0,0.0,0.0,0.0,0.0,0.0,0.0,0.0,0.0,0.0,0.0,0.0,0.0,0.0,0.0,0.0,0.0,0.0,-5.0397,-5.032,-4.9358,-4.7602,-4.7429,-4.7459,-4.7429,-4.6194,-4.5595,-4.5384,-4.2985,-4.1815,-4.1591,-4.0364,-3.9878,-3.9775,-3.9697,-3.8031,-3.5617,-3.5398,-3.3438,-3.0645,-2.9039,-2.7434,-2.6106,-2.6106,-2.5984,-2.6227,-2.7811,-2.9275,-3.0528,-3.0528,-2.953,-2.8426,-2.8426,-3.0858,-3.362,-3.4958,-3.6487,-3.8031,-3.9362,-3.9697,-3.9697,-3.9697,-3.9697,-3.9697,-3.9697,-3.9697,-4.0185,-4.1419,-4.1591,-4.2447,-4.4932,-4.4752,-4.4821,-4.6036,-4.5042,-4.4077,-4.3449,-4.3359,-4.303,-4.2342,-4.101,-3.9408,-3.7337,-3.7438,-3.7272,-3.663,-3.663,-3.6561,-3.632,-3.6417,-3.6118,-3.5519,-3.5519,-3.5519,-3.7969,-3.9155,-4.0273,-4.0237,-4.0558,0.0,0.0,-4.669,-4.7946,-4.9611,-5.0473,0.0,0.0,0.0,0.0,0.0,0.0,0.0,0.0,0.0,0.0,0.0,0.0,0.0,0.0,0.0,0.0,0.0,0.0,0.0,0.0,0.0,0.0,0.0,0.0,0.0,0.0,-5.0397,-4.9327,-4.7309,-4.7309,-4.6931,-4.6077,-4.5598,-4.4535,-4.3026,-4.1985,-4.1119,-4.0338,-3.9525,-3.917,-3.9068,-3.8197,-3.6767,-3.5178,-3.4292,-3.2644,-3.0645,-2.9039,-2.8051,-2.7452,-2.7452,-2.7452,-2.7811,-2.9412,-3.0392,-3.0645,-2.9648,-2.8902,-2.8664,-2.9648,-3.1416,-3.3268,-3.4936,-3.7156,-3.9025,-3.9569,-3.9697,-3.9697,-3.9697,-3.9697,-3.9981,-4.0743,-4.0844,-4.1591,-4.3693,-4.3975,-4.4627,-4.6344,-4.6344,-4.6371,-4.6834,-4.5102,-4.3445,-4.2363,-4.1616,-4.1083,-4.0855,-4.0,-3.9093,-3.8246,-3.701,-3.648,-3.679,-3.6388,-3.6312,-3.6477,-3.6088,-3.5759,-3.5519,-3.5519,-3.5519,-3.711,-3.7931,-3.8823,-3.9037,0.0,0.0,-4.5462,-4.7964,-5.0241,-5.2699,0.0,0.0,0.0,0.0,0.0,0.0,0.0,0.0,0.0,0.0,0.0,0.0,0.0,0.0,0.0,0.0,0.0,0.0,0.0,0.0,0.0,0.0,0.0,0.0,0.0,0.0,-5.0397,-4.9864,-4.8786,-4.7309,-4.6515,-4.5874,-4.5389,-4.4824,-4.3499,-4.1591,-4.1036,-4.0284,-3.9396,-3.9019,-3.8768,-3.8492,-3.7073,-3.5898,-3.4823,-3.3407,-3.2085,-3.0645,-2.9039,-2.8336,-2.8228,-2.8228,-2.8156,-2.8319,-3.0142,-3.0316,-2.9732,-2.8628,-2.7692,-2.7331,-2.953,-3.105,-3.2642,-3.4803,-3.7156,-3.9129,-3.9594,-3.9697,-3.9697,-3.9697,-3.9981,-4.0541,-4.1419,-4.1887,-4.293,-4.5115,-4.5389,-4.5869,-4.7106,-4.7309,-4.7046,-4.646,-4.4153,-4.2308,-4.1426,-4.043,-3.9913,-3.9913,-3.9125,-3.8528,-3.805,-3.7098,-3.6573,-3.6628,-3.6895,-3.6958,-3.6776,-3.6327,-3.5908,-3.5519,-3.5519,-3.5519,-3.6035,-3.5773,-3.5715,0.0,0.0,0.0,-4.6365,-4.8805,-5.191,0.0,0.0,0.0,0.0,0.0,0.0,0.0,0.0,0.0,0.0,0.0,0.0,0.0,0.0,0.0,0.0,0.0,0.0,0.0,0.0,0.0,0.0,0.0,0.0,0.0,0.0,0.0,-5.0397,-4.8686,-4.762,-4.7279,-4.4763,-4.4179,-4.5269,-4.3518,-4.2263,-4.1465,-3.9675,-3.8868,-3.8868,-3.8868,-3.8517,-3.7891,-3.6517,-3.5364,-3.4203,-3.2895,-3.1686,-3.0626,-2.902,-2.8156,-2.7831,-2.7831,-2.7445,-2.7555,-2.9584,-2.901,-2.7921,-2.83,-2.6122,-2.4301,-2.7572,-2.9536,-3.1451,-3.4582,-3.6487,-3.7902,-3.9362,-3.9697,-3.9697,-3.9697,-4.0743,-4.1591,-4.1591,-4.2641,-4.3975,-4.5207,-4.5389,-4.5869,-4.7106,-4.7309,-4.649,-4.4613,-4.2116,-4.0652,-4.0652,-4.0129,-3.9913,-3.9913,-3.8738,-3.7606,-3.6532,-3.7889,-3.7905,-3.6212,-3.8294,-3.8751,-3.7434,-3.7404,-3.6746,-3.5519,-3.5519,-3.5519,-3.6422,-3.7311,0.0,0.0,0.0,0.0,0.0,0.0,0.0,0.0,0.0,0.0,0.0,0.0,0.0,0.0,0.0,0.0,0.0,0.0,0.0,0.0,0.0,0.0,0.0,0.0,0.0,0.0,0.0,0.0,0.0,0.0,0.0,0.0,0.0,0.0,-4.7934,-4.7434,-4.6751,-4.5873,-4.4325,-4.3567,-4.3398,-4.1583,-4.0096,-3.9064,-3.8515,-3.8266,-3.8241,-3.7839,-3.7588,-3.7217,-3.4832,-3.3899,-3.3715,-3.1354,-3.0274,-2.9961,-2.9468,-2.9165,-2.905,-2.905,-2.8974,-2.8785,-2.8313,-2.7961,-2.7381,-2.5228,-2.4955,-2.5725,-2.7688,-3.0219,-3.2642,-3.4803,-3.7263,-3.9129,-3.9594,-3.9697,-3.9697,-3.9697,-4.0743,-4.1887,-4.2738,-4.3218,-4.3975,-4.5207,-4.4627,-4.4163,-4.4535,-4.4627,-4.4216,-4.323,-4.1322,-3.996,-3.944,-3.8175,-3.7428,-3.7428,-3.7057,-3.6819,-3.6532,-3.7537,-3.7532,-3.6212,-3.7827,-3.8512,-3.8093,-3.7644,-3.6985,-3.6178,-3.6178,-3.5938,-3.5249,0.0,0.0,0.0,0.0,0.0,0.0,0.0,0.0,0.0,0.0,0.0,0.0,0.0,0.0,0.0,0.0,0.0,0.0,0.0,0.0,0.0,0.0,0.0,0.0,0.0,0.0,0.0,0.0,0.0,0.0,0.0,0.0,0.0,0.0,0.0,-4.6905,-4.6234,-4.5465,-4.4575,-4.2912,-4.1831,-4.1202,-4.0108,-3.8973,-3.799,-3.7764,-3.7688,-3.7638,-3.7086,-3.6547,-3.5844,-3.3591,-3.2679,-3.2382,-3.0158,-2.9727,-3.0419,-3.0419,-3.0628,-3.09,-3.0377,-3.0037,-2.952,-2.7713,-2.6938,-2.6251,-2.4747,-2.506,-2.6369,-2.86,-3.1445,-3.4053,-3.579,-3.8031,-3.9697,-3.9697,-3.9697,-3.9697,-3.9697,-4.0743,-4.1887,-4.2641,-4.3122,-4.3787,-4.4535,-4.3975,-4.3504,-4.3504,-4.3026,-4.2521,-4.1924,-4.0192,-3.8877,-3.8308,-3.7133,-3.6358,-3.6358,-3.6803,-3.691,-3.6445,-3.7392,-3.7564,-3.6866,-3.8135,-3.8661,-3.8392,-3.8003,-3.7345,-3.6477,-3.6477,-3.6118,0.0,0.0,0.0,0.0,0.0,0.0,0.0,0.0,0.0,0.0,0.0,0.0,0.0,0.0,0.0,0.0,0.0,0.0,0.0,0.0,0.0,0.0,0.0,0.0,0.0,0.0,0.0,0.0,0.0,0.0,0.0,0.0,0.0,0.0,0.0,0.0,-4.6454,-4.469,-4.3661,0.0,-4.0796,-3.9292,-3.8833,-3.8846,-3.8463,-3.7839,-3.7337,-3.7111,-3.7061,-3.6558,-3.5571,-3.4288,-3.2855,-3.1701,-3.0745,-2.9479,-3.0045,-3.1458,-3.1674,-3.2124,-3.259,-3.1359,-3.0453,-2.9509,-2.7492,-2.5788,-2.4877,-2.5671,-2.6027,-2.69,-3.0007,-3.2923,-3.5472,-3.7263,-3.8718,-3.9697,-3.9697,-3.9697,-3.9697,-3.9697,-4.0743,-4.1591,-4.1591,-4.2544,-4.3313,-4.3218,-4.3122,-4.3095,-4.304,-4.2101,-4.1104,-4.0623,-3.9005,-3.7739,-3.7236,-3.6684,-3.6452,-3.6546,-3.7494,-3.7695,-3.6758,-3.7588,-3.797,-3.7767,-3.887,-3.911,-3.8482,-3.8422,-3.7764,-3.6567,-3.6567,-3.6178,0.0,0.0,0.0,0.0,0.0,0.0,0.0,0.0,0.0,0.0,0.0,0.0,0.0,0.0,0.0,0.0,0.0,0.0,0.0,0.0,0.0,0.0,0.0,0.0,0.0,0.0,0.0,0.0,0.0,0.0,0.0,0.0,0.0,0.0,0.0,-4.4252,-4.2576,-4.1391,-4.0728,0.0,-3.8334,-3.7163,-3.7061,-3.7011,-3.6868,-3.6709,-3.6584,-3.6533,-3.6533,-3.6408,-3.5571,-3.4288,-3.2855,-3.1586,-3.037,-3.0161,-3.0223,-3.0706,-3.1723,-3.1555,-3.087,-3.0558,-2.89,-2.6772,-2.5371,-2.4711,-2.4433,-2.4778,-2.6619,-2.9141,-3.2038,-3.4178,-3.6272,-3.8736,-3.9499,-3.9697,-3.9697,-3.9697,-3.9697,-3.9697,-4.0743,-4.1591,-4.1591,-4.1789,-4.169,-4.0642,-4.0567,-4.0387,-3.995,-3.9624,-3.9295,-3.8612,-3.7884,-3.7312,-3.7186,-3.6684,-3.6803,-3.7678,-3.7926,-3.8566,-3.9645,-3.9382,-3.8796,-3.7843,-3.887,-3.9349,-3.92,-3.8661,-3.7973,-3.7225,-3.7225,-3.6596,0.0,0.0,0.0,0.0,0.0,0.0,0.0,0.0,0.0,0.0,0.0,0.0,0.0,0.0,0.0,0.0,0.0,0.0,0.0,0.0,0.0,0.0,0.0,0.0,0.0,0.0,0.0,0.0,0.0,0.0,0.0,0.0,0.0,0.0,-4.384,-4.2642,-4.0427,-3.9466,-3.881,-3.8512,-3.6874,-3.5956,-3.5683,-3.5831,-3.6107,-3.6358,-3.6358,-3.6358,-3.6358,-3.5667,-3.4654,-3.3254,-3.1825,-3.0514,-2.9282,-2.9184,-2.9621,-3.039,-3.0874,-3.1142,-3.1111,-3.0514,-2.9347,-2.7726,-2.594,-2.5804,-2.6381,-2.6721,-2.8925,-3.1698,-3.3967,-3.6093,-3.8111,-3.9494,-3.9539,-3.9499,-3.9955,-3.988,-3.9697,-3.9697,-4.0262,-4.0642,-4.0642,-4.1219,-4.1419,-4.0743,-4.0642,-4.0462,-3.9895,-3.9246,-3.8542,-3.7713,-3.7362,-3.7086,-3.681,-3.7049,-3.7494,-3.8017,-3.9156,-4.0011,-4.0584,-4.0538,-4.0011,-3.909,-3.9268,-3.9409,-3.9409,-3.8721,-3.8212,-3.7853,-3.7255,-3.6596,0.0,0.0,0.0,0.0,0.0,0.0,0.0,0.0,0.0,0.0,0.0,0.0,0.0,0.0,0.0,0.0,0.0,0.0,0.0,0.0,0.0,0.0,0.0,0.0,0.0,0.0,0.0,0.0,0.0,0.0,0.0,0.0,-4.6127,-4.262,-4.2232,-4.1049,-3.8835,-3.7676,-3.6887,-3.636,-3.5405,-3.4702,-3.4449,-3.4901,-3.5479,-3.6081,-3.6081,-3.5987,-3.568,-3.4607,-3.3198,-3.1583,-3.0487,-2.9288,-2.8027,-2.7989,-2.892,-3.0139,-3.0066,-3.0846,-3.1724,-3.0618,-3.0099,-2.9533,-2.7491,-2.7729,-2.8869,-2.954,-3.1614,-3.3982,-3.5776,-3.7808,-3.9559,-4.0027,-3.9651,-3.9436,-4.0297,-4.0102,-3.9829,-3.9546,-3.9827,-4.0083,-4.0083,-4.1119,-4.1887,-4.1887,-4.169,-4.1353,-4.0764,-3.9565,-3.8291,-3.7161,-3.7036,-3.686,-3.6408,-3.7402,-3.8198,-3.8379,-4.0376,-4.1381,-4.0937,-4.1222,-4.1055,-4.0397,-3.9738,-3.9409,-3.9409,-3.8721,-3.8392,-3.8362,-3.7195,-3.6596,0.0,0.0,0.0,0.0,0.0,0.0,0.0,0.0,0.0,0.0,0.0,0.0,0.0,0.0,0.0,0.0,0.0,0.0,0.0,0.0,0.0,0.0,0.0,0.0,0.0,0.0,0.0,0.0,0.0,0.0,0.0,-4.3968,-4.2222,-4.0313,-3.8836,-3.7554,-3.646,-3.4589,-3.3592,-3.3515,-3.2504,-3.2432,-3.3294,-3.337,-3.3972,-3.4951,-3.4951,-3.4354,-3.3311,-3.3217,-3.1654,-2.943,-2.9231,-2.835,-2.727,-2.8389,-2.9241,-2.9923,-3.1042,-3.1026,-3.0514,-3.0307,-2.9411,-2.8377,-2.8269,-2.904,-3.0161,-3.175,-3.3141,-3.4822,-3.7211,-3.807,-3.8863,-4.0886,-4.09,-4.034,-3.997,-4.0166,-4.0192,-3.9171,-4.0308,-4.1319,-4.1319,-4.235,-4.3218,-4.3218,-4.2252,-4.1195,-4.0182,-3.8948,-3.7688,-3.6584,-3.6458,-3.6433,-3.6358,-3.7402,-3.8559,-3.9623,-4.0916,-4.1738,-4.2138,-4.1637,-4.1055,-4.0397,-3.9738,-3.9409,-3.9409,-3.8721,-3.8392,-3.8362,-3.7644,-3.6985,0.0,0.0,0.0,0.0,0.0,0.0,0.0,0.0,0.0,0.0,0.0,0.0,0.0,0.0,0.0,0.0,0.0,0.0,0.0,0.0,0.0,0.0,0.0,0.0,0.0,0.0,0.0,0.0,0.0,0.0,-4.2276,-4.1488,-3.9819,-3.7151,-3.6348,-3.5328,-3.4115,-3.2685,-3.1913,-3.1652,-3.1478,-3.1637,-3.2139,-3.2139,-3.3068,-3.4726,-3.4726,-3.404,-3.2816,-3.2041,-3.0682,-2.8943,-2.8166,-2.75,-2.7074,-2.7422,-2.7965,-2.8634,-2.8959,-2.9617,-3.0307,-3.0307,-3.0369,-3.0636,-3.144,-3.2442,-3.3711,-3.5137,-3.6489,-3.7691,-3.8827,-3.9596,-4.029,-4.1337,-4.1901,-4.1994,-4.1491,-4.1196,-4.1059,-4.0957,-4.1293,-4.1789,-4.2544,-4.3693,-4.4535,-4.4535,-4.3504,-4.2208,-4.1082,-3.918,-3.7588,-3.6483,-3.6358,-3.6615,-3.7335,-3.8469,-3.9623,-4.0746,-4.1947,-4.2524,-4.2372,-4.1743,-4.1055,-4.0397,-3.9738,-3.9409,-3.9409,-3.8721,-3.8571,-3.8931,-3.7554,-3.7135,0.0,0.0,0.0,0.0,0.0,0.0,0.0,0.0,0.0,0.0,0.0,0.0,0.0,0.0,0.0,0.0,0.0,0.0,0.0,0.0,0.0,0.0,0.0,0.0,0.0,0.0,0.0,0.0,0.0,0.0,-3.8574,-3.8293,-3.6985,-3.4421,-3.4085,-3.3424,-3.2236,-3.1315,-3.0701,-3.0407,-3.0809,-3.106,-3.1185,-3.1185,-3.2164,-3.3872,-3.4022,-3.3171,-3.1551,-3.0739,-2.9458,-2.795,-2.6903,-2.6582,-2.6641,-2.6328,-2.696,-2.7938,-2.7481,-2.8859,-3.0803,-3.104,-3.2074,-3.3435,-3.4679,-3.6031,-3.7221,-3.8076,-3.9074,-4.0,-4.0232,-4.1,-4.167,-4.1947,-4.2629,-4.3159,-4.2647,-4.2153,-4.1948,-4.2416,-4.2522,-4.278,-4.3565,-4.491,-4.5752,-4.5432,-4.4407,-4.3185,-4.1751,-3.9612,-3.78,-3.6553,-3.6358,-3.6896,-3.8017,-3.9183,-4.0404,-4.1504,-4.2482,-4.2791,-4.2132,-4.1474,-4.0816,-4.0157,-3.9679,-3.9409,-3.9409,-3.8901,-3.8901,-3.9379,-3.7734,-3.7494,0.0,0.0,0.0,0.0,0.0,0.0,0.0,0.0,0.0,0.0,0.0,0.0,0.0,0.0,0.0,0.0,0.0,0.0,0.0,0.0,0.0,0.0,0.0,0.0,0.0,0.0,0.0,0.0,0.0,0.0,-3.3952,-3.3322,-3.2917,-3.272,-3.1856,-3.1341,-3.1241,-3.0343,-2.9882,-2.9829,-2.9854,-3.0156,-3.0658,-3.0658,-3.0984,-3.1587,-3.2114,-3.0724,-2.8206,-2.8701,-2.7451,-2.5251,-2.5271,-2.543,-2.5801,-2.5781,-2.706,-2.8823,-2.8362,-2.9968,-3.2319,-3.2978,-3.4387,-3.6175,-3.73,-3.8577,-3.9711,-3.9798,-3.9798,-4.0145,-4.1253,-4.1587,-4.1864,-4.2981,-4.325,-4.3159,-4.2562,-4.2519,-4.2657,-4.2499,-4.3927,-4.5035,-4.4432,-4.5962,-4.6774,-4.549,-4.4763,-4.3503,-4.1141,-3.9623,-3.8236,-3.6597,-3.6358,-3.6896,-3.8017,-3.9183,-4.0404,-4.1504,-4.2149,-4.2102,-4.1444,-4.0816,-4.0157,-3.9499,-3.9439,-3.9409,-3.9409,-3.9379,-3.9379,-3.9409,-3.8631,-3.8332,0.0,0.0,0.0,0.0,0.0,0.0,0.0,0.0,0.0,0.0,0.0,0.0,0.0,0.0,0.0,0.0,0.0,0.0,0.0,0.0,0.0,0.0,0.0,0.0,0.0,0.0,0.0,0.0,0.0,0.0,-3.1733,-3.1447,-3.1161,-3.0797,-3.0495,-3.0266,-3.0266,-3.0011,-2.9804,-2.9804,-2.9804,-2.9905,-3.008,-3.008,-3.0181,-3.0407,-3.0959,-3.0309,-2.8974,-2.9269,-2.8564,-2.7323,-2.7323,-2.7622,-2.8028,-2.8028,-2.9007,-3.0176,-3.0,-3.2076,-3.4751,-3.4985,-3.6673,-3.872,-3.992,-4.0576,-4.1169,-4.1864,-4.2029,-4.2222,-4.2548,-4.271,-4.282,-4.317,-4.3658,-4.3737,-4.3123,-4.3112,-4.325,-4.3574,-4.3893,-4.4268,-4.4873,-4.5947,-4.6352,-4.5424,-4.4791,-4.3535,-4.1085,-3.9688,-3.821,-3.6597,-3.7057,-3.7952,-3.9183,-4.0318,-4.1331,-4.204,-4.2306,-4.1893,-4.0786,-4.0516,-4.0098,-3.9439,-3.9409,-3.9409,-3.9409,-3.9409,-3.9409,-3.9409,-3.8721,-3.8631,-3.1278,0.0,0.0,0.0,0.0,0.0,0.0,0.0,0.0,0.0,0.0,0.0,0.0,0.0,0.0,0.0,0.0,0.0,0.0,0.0,0.0,0.0,0.0,0.0,0.0,0.0,0.0,0.0,0.0,0.0,-3.0357,-3.062,-3.0804,-3.0722,-3.0722,-3.0722,-3.0722,-3.0419,-3.0292,-3.0292,-2.9934,-2.9804,-2.9804,-2.9804,-2.9804,-2.9804,-3.0181,-2.9843,-2.9154,-2.932,-2.9021,-2.8344,-2.8344,-2.8836,-2.9396,-2.9396,-3.0445,-3.1763,-3.16,-3.3833,-3.6715,-3.6954,-3.845,-4.0351,-4.1546,-4.2018,-4.2304,-4.3061,-4.3329,-4.3329,-4.3329,-4.3329,-4.3329,-4.3329,-4.3658,-4.3868,-4.3419,-4.3661,-4.4086,-4.4273,-4.4133,-4.4232,-4.484,-4.5514,-4.5663,-4.4766,-4.4486,-4.3603,-4.1365,-4.0349,-3.9231,-3.773,-3.8198,-3.9183,-4.0404,-4.1169,-4.1849,-4.2402,-4.2162,-4.1534,-4.0457,-4.0187,-3.9858,-3.9439,-3.9409,-3.9409,-3.9409,-3.9409,-3.9409,-3.9409,-3.896,-3.8841,0.0,0.0,0.0,0.0,0.0,0.0,0.0,0.0,0.0,0.0,0.0,0.0,0.0,0.0,0.0,0.0,0.0,0.0,0.0,0.0,0.0,0.0,0.0,0.0,0.0,0.0,0.0,0.0,0.0,-2.9856,-2.9856,-3.0771,-3.1683,-3.2593,-3.2593,-3.2593,-3.2593,-3.1683,-3.1241,-3.1241,-3.0292,-2.9856,-2.9856,-2.9804,-2.9804,-2.9804,-2.9804,-2.9184,-2.8211,-2.8712,-2.857,-2.8004,-2.8004,-2.8633,-2.9487,-2.9579,-3.1281,-3.3571,-3.3129,-3.5142,-3.8062,-3.8682,-3.9657,-4.0937,-4.203,-4.2821,-4.3329,-4.3329,-4.3329,-4.3329,-4.3329,-4.3329,-4.3329,-4.3329,-4.3329,-4.3329,-4.3329,-4.4347,-4.5035,-4.4407,-4.4796,-4.5035,-4.4407,-4.4825,-4.4825,-4.3539,-4.3898,-4.3642,-4.184,-4.1587,-4.1169,-3.9972,-3.9913,-4.0404,-4.1504,-4.1587,-4.182,-4.2372,-4.1743,-4.1085,-4.0397,-3.9695,-3.9337,-3.9409,-3.9409,-3.9409,-3.9409,-3.9409,-3.9409,-3.9409,-3.9409,-3.905,-3.0866,0.0,0.0,0.0,0.0,0.0,0.0,0.0,0.0,0.0,0.0,0.0,0.0,0.0,0.0,0.0,0.0,0.0,0.0,0.0,0.0,0.0,0.0,0.0,0.0,0.0,0.0,0.0,-3.0496,-3.082,-3.082,-3.1683,-3.2307,-3.2593,-3.2593,-3.2593,-3.2593,-3.2307,-3.2236,-3.2164,-3.1267,-3.082,-3.0771,-3.0139,-2.9804,-2.9804,-2.9804,-2.9624,-2.9365,-2.9514,-2.9868,-3.0431,-3.0431,-3.1113,-3.2152,-3.2943,-3.3956,-3.5155,-3.6266,-3.8035,-3.9861,-4.0015,-4.1179,-4.2545,-4.2414,-4.2821,-4.3329,-4.3329,-4.3329,-4.3329,-4.3329,-4.3329,-4.3329,-4.3329,-4.3329,-4.3329,-4.3329,-4.3629,-4.3838,-4.3629,-4.3748,-4.3808,-4.3629,-4.4137,-4.4317,-4.3449,-4.3898,-4.3642,-4.184,-4.1587,-4.1169,-3.9972,-4.0661,-4.1253,-4.1587,-4.2386,-4.2505,-4.1713,-4.0801,-4.0059,-3.9666,-3.8708,-3.862,-3.9337,-3.9409,-3.9409,-3.9409,-3.9409,-3.9409,-3.9409,-3.9409,-3.8781,0.0,0.0,0.0,0.0,0.0,0.0,0.0,-2.8356,0.0,0.0,0.0,0.0,0.0,0.0,0.0,0.0,0.0,0.0,0.0,0.0,0.0,0.0,0.0,0.0,0.0,0.0,0.0,0.0,-3.1249,-3.1631,-3.2307,-3.2876,-3.3394,-3.3837,-3.3837,-3.3837,-3.3837,-3.3394,-3.3157,-3.3157,-3.2236,-3.1756,-3.1756,-3.0846,-3.0419,-3.0343,-3.0011,-2.9804,-2.9804,-2.9804,-3.0306,-3.1085,-3.1311,-3.2244,-3.3534,-3.4432,-3.5438,-3.6605,-3.797,-3.9161,-4.0169,-4.0461,-4.141,-4.2462,-4.2073,-4.2611,-4.3329,-4.3329,-4.3329,-4.3329,-4.3329,-4.3329,-4.3329,-4.3329,-4.3329,-4.3329,-4.3329,-4.3329,-4.3329,-4.3329,-4.3329,-4.3329,-4.3329,-4.3658,-4.3778,-4.3389,-4.3658,-4.3507,-4.2415,-4.2275,-4.2029,-4.1365,-4.1947,-4.2187,-4.2005,-4.2565,-4.2372,-4.1055,-3.9993,-3.9189,-3.8752,-3.7738,-3.7663,-3.8694,-3.8694,-3.8943,-3.9409,-3.9409,-3.9409,-3.9409,-3.9409,-3.8841,0.0,0.0,0.0,0.0,0.0,0.0,-2.9589,-2.8876,-2.8139,0.0,0.0,0.0,0.0,0.0,0.0,0.0,0.0,0.0,0.0,0.0,0.0,0.0,0.0,0.0,0.0,0.0,-3.086,-3.2301,-3.1903,-3.233,-3.385,-3.3946,-3.4309,-3.528,-3.534,-3.54,-3.54,-3.4581,-3.4177,-3.4177,-3.3255,-3.2735,-3.2735,-3.1756,-3.1389,-3.1315,-3.0495,-3.0062,-3.0062,-3.0062,-3.0417,-3.0792,-3.1271,-3.2507,-3.4073,-3.4686,-3.6105,-3.7929,-3.8717,-3.9207,-3.9619,-4.0217,-4.0846,-4.1384,-4.1384,-4.2252,-4.324,-4.3299,-4.3329,-4.3329,-4.3329,-4.3329,-4.3329,-4.3329,-4.3329,-4.3329,-4.3329,-4.3329,-4.3329,-4.3329,-4.3329,-4.3329,-4.3329,-4.3329,-4.3329,-4.3329,-4.3329,-4.3329,-4.3329,-4.3329,-4.3329,-4.3329,-4.3329,-4.309,-4.2521,-4.2402,-4.1833,-4.0427,-3.9237,-3.8322,-3.7615,-3.6604,-3.6604,-3.7767,-3.7919,-3.8472,-3.9409,-3.9409,-3.9409,-3.9409,-3.9349,-3.8931,0.0,0.0,0.0,0.0,0.0,0.0,-3.1442,-3.0907,-3.0063,0.0,0.0,0.0,0.0,0.0,0.0,0.0,0.0,0.0,0.0,0.0,0.0,0.0,0.0,0.0,0.0,0.0,-3.061,-3.0952,-3.1583,-3.2436,-3.3532,-3.3594,-3.3687,-3.3873,-3.4412,-3.4681,-3.4681,-3.5026,-3.5198,-3.5198,-3.4177,-3.3739,-3.3671,-3.2735,-3.2307,-3.2307,-3.2119,-3.2046,-3.2046,-3.2046,-3.1883,-3.1757,-3.1862,-3.3167,-3.5123,-3.6079,-3.6978,-3.8005,-3.9534,-4.0159,-4.0217,-4.0367,-4.0846,-4.1384,-4.1384,-4.1923,-4.2671,-4.318,-4.3329,-4.3329,-4.3329,-4.3329,-4.3329,-4.3329,-4.3329,-4.3329,-4.3329,-4.3329,-4.3329,-4.3329,-4.3329,-4.3329,-4.3329,-4.3329,-4.3329,-4.3329,-4.3329,-4.3329,-4.3329,-4.3329,-4.3329,-4.3329,-4.3329,-4.3269,-4.315,-4.2671,-4.1674,-3.9993,-3.8394,-3.7195,-3.6554,-3.5521,-3.5842,-3.7767,-3.862,-3.9192,-3.9409,-3.9409,-3.9409,-3.9409,-3.8841,-3.8242,0.0,0.0,0.0,-3.2526,0.0,0.0,0.0,-3.1067,0.0,0.0,0.0,0.0,0.0,0.0,0.0,0.0,0.0,0.0,0.0,0.0,0.0,0.0,0.0,0.0,0.0,0.0,-3.0672,-3.1524,-3.2315,-3.3022,-3.3484,-3.3484,-3.3484,-3.3484,-3.3814,-3.4143,-3.4472,-3.4831,-3.516,-3.5519,-3.5001,-3.4773,-3.4706,-3.3739,-3.3325,-3.3227,-3.2806,-3.2593,-3.2593,-3.2593,-3.2786,-3.3018,-3.2806,-3.3908,-3.5741,-3.6499,-3.7564,-3.8782,-4.001,-4.0187,-3.9978,-4.0277,-4.0636,-4.0935,-4.1294,-4.1833,-4.2372,-4.2372,-4.2372,-4.2432,-4.2761,-4.2851,-4.294,-4.3269,-4.3329,-4.3329,-4.3329,-4.3329,-4.3329,-4.3329,-4.3329,-4.3329,-4.3329,-4.3329,-4.3329,-4.3329,-4.3329,-4.3329,-4.3329,-4.3329,-4.3329,-4.3329,-4.303,-4.2731,-4.2372,-4.1252,-4.011,-3.89,-3.7035,-3.5846,-3.544,-3.4428,-3.4677,-3.6239,-3.7843,-3.8368,-3.7814,-3.887,-3.9409,-3.9409,-3.8721,-3.8212,0.0,0.0,0.0,0.0,0.0,-3.1896,0.0,0.0,0.0,0.0,0.0,0.0,0.0,0.0,0.0,0.0,0.0,0.0,0.0,0.0,0.0,0.0,0.0,0.0,0.0,0.0,-3.066,-3.2019,-3.2556,-3.2916,-3.3095,-3.2976,-3.2976,-3.3125,-3.3365,-3.3754,-3.4292,-3.4532,-3.4951,-3.5519,-3.5519,-3.5519,-3.5424,-3.4677,-3.4312,-3.4245,-3.3463,-3.3185,-3.3185,-3.3185,-3.3602,-3.4235,-3.3719,-3.4654,-3.6328,-3.678,-3.7944,-3.9499,-4.0038,-3.9858,-3.9499,-4.0038,-4.0307,-4.0487,-4.1025,-4.1654,-4.2073,-4.1534,-4.1384,-4.1534,-4.2192,-4.2372,-4.2521,-4.318,-4.3329,-4.3329,-4.3329,-4.3329,-4.3329,-4.3329,-4.3329,-4.3329,-4.3329,-4.3329,-4.3329,-4.3329,-4.3329,-4.3329,-4.3329,-4.3329,-4.3299,-4.315,-4.2514,-4.1841,-4.1186,-3.945,-3.8147,-3.7402,-3.5683,-3.4594,-3.4428,-3.3953,-3.4095,-3.4979,-3.6866,-3.7329,-3.6526,-3.8219,-3.909,-3.909,-3.8501,-3.8272,0.0,0.0,0.0,0.0,-3.2458,0.0,0.0,0.0,0.0,0.0,0.0,0.0,0.0,0.0,0.0,0.0,0.0,0.0,0.0,0.0,0.0,0.0,0.0,0.0,0.0,0.0,0.0,-3.0672,-3.0473,-3.0714,-3.1689,-3.118,-3.112,-3.1749,-3.2886,-3.3544,-3.3604,-3.4801,-3.5429,-3.5519,-3.5519,-3.5519,-3.5519,-3.5359,-3.5359,-3.5359,-3.5228,-3.5133,-3.5133,-3.5133,-3.5228,-3.5228,-3.4332,-3.5292,-3.7267,-3.7327,-3.8191,-3.9439,-3.9499,-3.9469,-3.9439,-3.9499,-3.9918,-4.0397,-4.0487,-4.0965,-4.1474,-4.1414,-4.1384,-4.1534,-4.2192,-4.2372,-4.2521,-4.318,-4.3329,-4.3329,-4.3329,-4.3329,-4.3329,-4.3329,-4.3329,-4.3329,-4.3329,-4.3329,-4.3329,-4.3329,-4.3329,-4.3329,-4.3329,-4.3329,-4.312,-4.2521,-4.1636,-4.0728,-4.001,-3.8399,-3.6961,-3.5918,-3.5107,-3.4262,-3.3326,-3.4952,-3.5894,-3.6053,-3.7175,-3.7738,-3.7587,-3.7843,-3.7994,-3.7965,-3.7641,-3.7823,0.0,0.0,0.0,0.0,0.0,0.0,0.0,0.0,-3.139,0.0,0.0,0.0,0.0,0.0,0.0,0.0,0.0,0.0,0.0,0.0,0.0,0.0,0.0,0.0,0.0,0.0,0.0,0.0,0.0,-3.0593,-3.0881,-3.0945,-3.1182,-3.1509,-3.2078,-3.2706,-3.3484,-3.4053,-3.4741,-3.5519,-3.5519,-3.5519,-3.5519,-3.5519,-3.5519,-3.5519,-3.5519,-3.5519,-3.5519,-3.5519,-3.5519,-3.5424,-3.5067,-3.5904,-3.7404,-3.7404,-3.8272,-3.9409,-3.9409,-3.9409,-3.9409,-3.9409,-3.9858,-4.0337,-3.9948,-4.0277,-4.0726,-4.0337,-4.0247,-4.0397,-4.1055,-4.1235,-4.1384,-4.2043,-4.2491,-4.2671,-4.2282,-4.2491,-4.2761,-4.2761,-4.2761,-4.288,-4.3269,-4.3329,-4.3329,-4.3329,-4.3329,-4.318,-4.2821,-4.2761,-4.2257,-4.1028,-4.0118,-3.9298,-3.8375,-3.6742,-3.5599,-3.5103,-3.425,-3.3869,-3.4037,-3.4897,-3.5359,-3.5359,-3.6369,-3.6554,-3.6001,-3.7204,-3.7843,-3.7814,-3.7511,-3.7764,-3.1237,0.0,0.0,0.0,0.0,0.0,0.0,0.0,0.0,0.0,0.0,0.0,0.0,0.0,0.0,0.0,0.0,0.0,0.0,0.0,0.0,0.0,0.0,0.0,0.0,0.0,0.0,0.0,-2.9869,0.0,-3.0518,-3.0721,-3.108,-3.1509,-3.1719,-3.2347,-3.3484,-3.3664,-3.4352,-3.5519,-3.5519,-3.5519,-3.5519,-3.5519,-3.5519,-3.5519,-3.5519,-3.5519,-3.5519,-3.5519,-3.5519,-3.5519,-3.5519,-3.6178,-3.7165,-3.7345,-3.8153,-3.917,-3.9349,-3.9409,-3.9409,-3.9409,-3.9858,-4.0277,-3.9619,-3.9888,-4.0277,-3.9619,-3.9409,-3.9486,-3.9817,-4.0144,-4.0472,-4.0872,-4.1329,-4.1537,-4.1062,-4.1214,-4.1498,-4.1498,-4.1565,-4.1829,-4.2298,-4.29,-4.3329,-4.3329,-4.3329,-4.2991,-4.2248,-4.2189,-4.1527,-3.971,-3.8734,-3.783,-3.6852,-3.5243,-3.4262,-3.4262,-3.3556,-3.3556,-3.4677,-3.4979,-3.5224,-3.5548,-3.6318,-3.6077,-3.4901,-3.6887,-3.7491,-3.6892,-3.7234,-3.7764,0.0,0.0,0.0,-3.0881,0.0,0.0,0.0,0.0,-3.1293,0.0,0.0,0.0,0.0,0.0,-3.1558,-3.0207,0.0,0.0,0.0,0.0,0.0,0.0,0.0,0.0,0.0,0.0,0.0,0.0,-2.8694,0.0,-3.0402,-2.9978,-3.0193,-3.1422,-3.2138,-3.2796,-3.3484,-3.4113,-3.4801,-3.5519,-3.5519,-3.5519,-3.5519,-3.5519,-3.5519,-3.5519,-3.5519,-3.5519,-3.5519,-3.5519,-3.5519,-3.5519,-3.5519,-3.5908,-3.6596,-3.7195,-3.7853,-3.8512,-3.92,-3.9409,-3.9409,-3.9409,-3.9858,-4.0277,-3.9619,-3.9888,-4.0277,-3.9619,-3.9409,-3.9341,-3.8928,-3.9589,-4.0323,-3.9964,-3.9902,-3.9902,-3.9873,-3.9445,-3.9116,-3.9116,-3.9615,-3.9972,-3.9972,-4.1864,-4.3329,-4.3329,-4.3329,-4.29,-4.1753,-4.1641,-4.0967,-3.9143,-3.7547,-3.63,-3.5574,-3.4033,-3.3154,-3.3154,-3.3154,-3.3556,-3.4677,-3.5654,-3.6604,-3.7663,-3.7738,-3.6997,-3.5383,-3.6997,-3.6656,-3.4547,-3.6512,-3.7764,0.0,0.0,-3.1047,-3.0678,0.0,0.0,0.0,0.0,0.0,0.0,0.0,0.0,0.0,0.0,-3.2384,-3.1239,-3.081,0.0,0.0,0.0,0.0,0.0,0.0,0.0,0.0,0.0,0.0,-2.8869,-2.8698,-2.8967,0.0,-3.0103,-3.0411,-3.0821,-3.1509,-3.2377,-3.3484,-3.3724,-3.4382,-3.5519,-3.5519,-3.5519,-3.5519,-3.5519,-3.5519,-3.5519,-3.5519,-3.5519,-3.5519,-3.5519,-3.5519,-3.5519,-3.5519,-3.5639,-3.5968,-3.7015,-3.7823,-3.8482,-3.917,-3.9409,-3.9409,-3.9409,-3.9559,-3.9563,-3.8604,-3.8468,-3.851,-3.7539,-3.7252,-3.7204,-3.7091,-3.7331,-3.7621,-3.7428,-3.7793,-3.799,-3.7489,-3.7975,-3.8255,-3.7924,-3.8587,-3.9277,-3.9277,-4.0294,-4.1029,-4.1029,-4.0743,-4.0122,-3.9395,-3.8891,-3.8006,-3.6329,-3.5615,-3.4926,-3.4007,-3.3427,-3.3068,-3.3068,-3.3068,-3.3556,-3.4677,-3.5061,-3.517,-3.5162,-3.5162,-3.4706,-3.3853,-3.4353,-3.4906,-3.5451,-3.5693,-3.6291,-3.0092,-3.032,0.0,-3.0357,-3.0153,0.0,-2.9665,0.0,0.0,0.0,0.0,0.0,0.0,0.0,0.0,-3.1477,-3.1,-3.0429,0.0,-2.9044,0.0,0.0,0.0,0.0,0.0,0.0,-2.8659,-2.8701,-2.8754,-2.893,0.0,0.0,-3.0266,-3.0492,-3.118,-3.2048,-3.3125,-3.3365,-3.4053,-3.513,-3.54,-3.5519,-3.5519,-3.5519,-3.5519,-3.5519,-3.5519,-3.5519,-3.5519,-3.5519,-3.5519,-3.5519,-3.5519,-3.5519,-3.5639,-3.6686,-3.7644,-3.8482,-3.917,-3.9409,-3.9337,-3.8943,-3.9018,-3.8913,-3.7644,-3.7423,-3.7381,-3.6425,-3.6212,-3.6132,-3.5734,-3.5894,-3.6132,-3.5734,-3.5981,-3.6144,-3.5763,-3.6302,-3.6802,-3.64,-3.7284,-3.7918,-3.7792,-3.8086,-3.8701,-3.977,-3.9554,-3.8971,-3.7942,-3.7449,-3.6569,-3.4855,-3.4536,-3.41,-3.3179,-3.3068,-3.3068,-3.3068,-3.3068,-3.3556,-3.4677,-3.4677,-3.4817,-3.4929,-3.4606,-3.3966,-3.3304,-3.3483,-3.3847,-3.4265,-3.4455,-3.4708]},{"header":{"parameterUnit":"m.s-1","parameterCategory":1,"la1":30.6,"la2":29.2853,"lo1":-89.7004,"lo2":-87.6739,"dy":0.0162,"dx":0.0183,"nx":112,"ny":82,"refTime":"2023-07-12T12:00:00:Z","depth":0,"parameterNumber":3,"parameterNumberName":"V-component_of_WINDS"},"data":[0.0,0.0,0.0,0.0,0.0,0.0,0.0,0.0,0.0,0.0,0.0,0.0,0.0,0.0,0.0,0.0,0.0,0.0,0.0,0.0,0.0,0.0,0.0,0.0,0.0,0.0,0.0,0.0,0.0,0.0,0.0,0.0,0.0,0.0,0.0,0.0,0.0,0.0,0.0,0.0,0.0,0.0,0.0,0.0,0.0,0.0,0.0,0.0,0.0,0.0,0.0,0.0,0.0,0.0,0.0,0.0,0.0,0.0,0.0,0.0,0.0,0.0,0.0,0.0,0.0,0.0,0.0,0.0,0.0,0.0,0.0,0.0,0.0,0.0,0.0,0.0,0.0,0.0,0.0,0.0,0.0,0.0,0.0,0.0,0.0,0.0,0.0,0.0,0.0,0.0,0.0,-1.6233,-1.8555,-1.998,-1.9922,-1.9355,-1.8164,-1.6253,0.0,0.0,0.0,0.0,0.0,0.0,0.0,0.0,0.0,0.0,0.0,0.0,0.0,0.0,0.0,0.0,0.0,0.0,0.0,0.0,0.0,0.0,0.0,0.0,0.0,0.0,0.0,0.0,0.0,0.0,0.0,0.0,0.0,0.0,0.0,0.0,0.0,0.0,0.0,0.0,0.0,0.0,0.0,0.0,0.0,0.0,0.0,0.0,0.0,0.0,0.0,0.0,0.0,0.0,0.0,0.0,0.0,0.0,0.0,0.0,0.0,0.0,0.0,0.0,0.0,0.0,0.0,0.0,0.0,0.0,0.0,0.0,0.0,0.0,0.0,0.0,0.0,0.0,0.0,0.0,0.0,0.0,0.0,0.0,0.0,0.0,0.0,0.0,0.0,0.0,0.0,0.0,0.0,0.0,0.0,0.0,0.0,0.0,0.0,0.0,0.0,0.0,0.0,0.0,-1.5599,-1.7507,-1.9355,-2.0312,-1.9941,-1.8535,-1.7207,-1.6194,0.0,0.0,0.0,0.0,0.0,0.0,0.0,0.0,0.0,0.0,0.0,0.0,0.0,0.0,0.0,0.0,0.0,0.0,0.0,0.0,0.0,0.0,0.0,0.0,0.0,0.0,0.0,0.0,0.0,0.0,0.0,0.0,0.0,0.0,0.0,0.0,0.0,0.0,0.0,0.0,0.0,0.0,0.0,0.0,0.0,0.0,0.0,0.0,0.0,0.0,0.0,0.0,0.0,0.0,0.0,0.0,0.0,0.0,0.0,0.0,0.0,0.0,0.0,0.0,0.0,0.0,0.0,0.0,0.0,0.0,0.0,0.0,0.0,0.0,0.0,0.0,0.0,0.0,0.0,0.0,0.0,0.0,0.0,0.0,0.0,0.0,0.0,0.0,0.0,0.0,0.0,0.0,0.0,0.0,0.0,0.0,0.0,0.0,0.0,0.0,0.0,0.0,0.0,-1.5766,-1.6839,-1.915,-2.0103,-2.0488,-2.0273,-1.8711,-1.7475,-1.694,-1.585,0.0,0.0,0.0,0.0,0.0,0.0,0.0,0.0,0.0,0.0,0.0,0.0,0.0,0.0,0.0,0.0,0.0,0.0,0.0,0.0,0.0,0.0,0.0,0.0,0.0,0.0,0.0,0.0,0.0,0.0,0.0,0.0,0.0,0.0,0.0,0.0,0.0,0.0,0.0,0.0,0.0,0.0,0.0,0.0,0.0,0.0,0.0,0.0,0.0,0.0,0.0,0.0,0.0,0.0,0.0,0.0,0.0,0.0,0.0,0.0,0.0,0.0,0.0,0.0,0.0,0.0,0.0,0.0,0.0,0.0,0.0,0.0,0.0,0.0,0.0,0.0,0.0,0.0,0.0,0.0,0.0,0.0,0.0,0.0,0.0,0.0,0.0,0.0,0.0,0.0,0.0,0.0,0.0,0.0,0.0,0.0,0.0,0.0,0.0,0.0,0.0,0.0,-1.7381,-1.8046,-2.049,-2.0933,-2.1093,-2.1093,-1.9424,-1.8267,-1.7945,-1.6373,0.0,0.0,0.0,0.0,0.0,0.0,0.0,0.0,0.0,0.0,0.0,0.0,0.0,0.0,0.0,0.0,0.0,0.0,0.0,0.0,0.0,0.0,0.0,0.0,0.0,0.0,0.0,0.0,0.0,0.0,0.0,0.0,0.0,0.0,0.0,0.0,0.0,0.0,0.0,0.0,0.0,0.0,0.0,0.0,0.0,0.0,0.0,0.0,0.0,0.0,0.0,0.0,0.0,0.0,0.0,0.0,0.0,0.0,0.0,0.0,0.0,0.0,0.0,0.0,0.0,0.0,0.0,0.0,0.0,0.0,0.0,0.0,0.0,0.0,0.0,0.0,0.0,0.0,0.0,0.0,0.0,0.0,0.0,0.0,0.0,0.0,0.0,0.0,0.0,0.0,0.0,0.0,0.0,0.0,0.0,0.0,0.0,0.0,0.0,0.0,0.0,0.0,-1.8295,-1.8936,-2.0969,-2.197,-2.2533,-2.2533,-2.0741,-1.9404,-1.9015,-1.7266,0.0,0.0,0.0,0.0,0.0,0.0,0.0,0.0,0.0,0.0,0.0,0.0,0.0,0.0,0.0,0.0,0.0,0.0,0.0,0.0,0.0,0.0,0.0,0.0,0.0,0.0,0.0,0.0,0.0,0.0,0.0,0.0,0.0,0.0,0.0,0.0,0.0,0.0,0.0,0.0,0.0,0.0,0.0,0.0,0.0,0.0,0.0,0.0,0.0,0.0,0.0,0.0,0.0,0.0,0.0,0.0,0.0,0.0,0.0,0.0,0.0,0.0,0.0,0.0,0.0,0.0,0.0,0.0,0.0,0.0,0.0,0.0,0.0,0.0,0.0,0.0,0.0,0.0,0.0,0.0,0.0,0.0,0.0,0.0,0.0,0.0,0.0,0.0,0.0,0.0,0.0,0.0,0.0,0.0,0.0,0.0,0.0,0.0,0.0,0.0,0.0,0.0,-1.8196,-1.8609,0.0,-2.1669,-2.2289,-2.2289,-2.0682,-1.9666,-1.9667,0.0,0.0,0.0,0.0,0.0,0.0,0.0,0.0,0.0,0.0,0.0,0.0,0.0,0.0,0.0,0.0,0.0,0.0,0.0,0.0,0.0,0.0,0.0,0.0,0.0,0.0,0.0,0.0,0.0,0.0,0.0,0.0,0.0,0.0,0.0,0.0,0.0,0.0,0.0,0.0,0.0,0.0,0.0,0.0,0.0,0.0,0.0,0.0,0.0,0.0,0.0,0.0,0.0,0.0,0.0,0.0,0.0,0.0,0.0,0.0,0.0,0.0,0.0,0.0,0.0,0.0,0.0,0.0,0.0,0.0,0.0,0.0,0.0,0.0,0.0,0.0,0.0,0.0,0.0,0.0,0.0,0.0,0.0,0.0,0.0,0.0,0.0,0.0,0.0,0.0,0.0,0.0,0.0,0.0,0.0,0.0,0.0,0.0,0.0,0.0,0.0,0.0,-1.8638,-1.8386,-1.8825,0.0,-2.2009,-2.2703,-2.2627,-2.1195,-2.024,-2.0241,0.0,0.0,0.0,0.0,0.0,0.0,0.0,0.0,0.0,0.0,0.0,0.0,0.0,0.0,0.0,0.0,0.0,0.0,0.0,0.0,0.0,0.0,0.0,0.0,0.0,0.0,0.0,0.0,0.0,0.0,0.0,0.0,0.0,0.0,0.0,0.0,0.0,0.0,0.0,0.0,0.0,0.0,0.0,0.0,0.0,0.0,0.0,0.0,0.0,0.0,0.0,0.0,0.0,0.0,0.0,0.0,0.0,0.0,0.0,0.0,0.0,0.0,0.0,0.0,0.0,0.0,0.0,0.0,0.0,0.0,0.0,0.0,0.0,0.0,0.0,0.0,0.0,0.0,0.0,0.0,0.0,0.0,0.0,0.0,0.0,0.0,0.0,0.0,0.0,0.0,0.0,0.0,0.0,0.0,0.0,0.0,0.0,0.0,0.0,0.0,0.0,0.0,-1.9105,-1.9239,-1.9876,-2.1711,-2.3275,-2.4167,-2.4015,-2.2464,-2.1242,0.0,0.0,0.0,0.0,0.0,0.0,0.0,0.0,0.0,0.0,0.0,0.0,0.0,0.0,0.0,0.0,0.0,0.0,0.0,0.0,0.0,0.0,0.0,0.0,0.0,0.0,0.0,0.0,0.0,0.0,0.0,0.0,0.0,0.0,0.0,0.0,0.0,0.0,0.0,0.0,0.0,0.0,0.0,0.0,0.0,0.0,0.0,0.0,0.0,0.0,0.0,0.0,0.0,0.0,0.0,0.0,0.0,0.0,0.0,0.0,0.0,0.0,0.0,0.0,0.0,0.0,0.0,0.0,0.0,0.0,0.0,0.0,0.0,0.0,0.0,0.0,0.0,0.0,0.0,0.0,0.0,0.0,0.0,0.0,0.0,0.0,0.0,0.0,0.0,0.0,0.0,0.0,0.0,0.0,0.0,0.0,0.0,0.0,0.0,0.0,0.0,0.0,0.0,-1.7878,-1.8386,-1.9083,-1.9965,-2.221,-2.3519,-2.3112,-2.2097,-2.1242,-2.0743,0.0,0.0,0.0,0.0,0.0,0.0,0.0,0.0,0.0,0.0,0.0,0.0,0.0,0.0,0.0,0.0,0.0,0.0,0.0,0.0,0.0,0.0,0.0,0.0,0.0,0.0,0.0,0.0,0.0,0.0,0.0,0.0,0.0,0.0,0.0,0.0,0.0,0.0,0.0,0.0,0.0,0.0,0.0,0.0,0.0,0.0,0.0,0.0,0.0,0.0,0.0,0.0,0.0,0.0,0.0,0.0,0.0,0.0,0.0,0.0,0.0,0.0,0.0,0.0,0.0,0.0,0.0,0.0,0.0,0.0,0.0,0.0,0.0,0.0,0.0,0.0,0.0,0.0,0.0,0.0,0.0,0.0,0.0,0.0,0.0,0.0,0.0,0.0,0.0,0.0,0.0,0.0,0.0,0.0,0.0,0.0,0.0,0.0,0.0,0.0,0.0,0.0,-1.7288,-1.7787,-1.8572,-1.9409,-2.1722,-2.3028,-2.2666,-2.193,-2.1167,-2.0363,0.0,0.0,0.0,0.0,0.0,0.0,0.0,0.0,0.0,0.0,0.0,0.0,0.0,0.0,0.0,0.0,0.0,0.0,0.0,0.0,0.0,0.0,0.0,0.0,0.0,0.0,0.0,0.0,0.0,0.0,0.0,0.0,0.0,0.0,0.0,0.0,0.0,0.0,0.0,0.0,0.0,0.0,0.0,0.0,0.0,0.0,0.0,0.0,0.0,0.0,0.0,0.0,0.0,0.0,0.0,0.0,0.0,0.0,0.0,0.0,0.0,0.0,0.0,0.0,0.0,0.0,0.0,0.0,0.0,0.0,0.0,0.0,0.0,0.0,0.0,0.0,0.0,0.0,0.0,0.0,0.0,0.0,0.0,0.0,0.0,0.0,0.0,0.0,0.0,0.0,0.0,0.0,0.0,0.0,0.0,0.0,0.0,0.0,0.0,0.0,0.0,0.0,-1.706,-1.7332,-1.8141,-1.9644,-2.1479,-2.2555,-2.2417,-2.1858,-2.1016,-1.9861,0.0,0.0,0.0,0.0,0.0,0.0,0.0,0.0,0.0,0.0,0.0,0.0,0.0,0.0,0.0,0.0,0.0,0.0,0.0,0.0,0.0,0.0,0.0,0.0,0.0,0.0,0.0,0.0,0.0,0.0,0.0,0.0,0.0,0.0,0.0,0.0,0.0,0.0,0.0,0.0,0.0,0.0,0.0,0.0,0.0,0.0,0.0,0.0,0.0,0.0,0.0,0.0,0.0,0.0,0.0,0.0,0.0,0.0,0.0,0.0,-0.9805,0.0,0.0,0.0,0.0,0.0,0.0,0.0,0.0,0.0,0.0,0.0,0.0,0.0,0.0,0.0,0.0,0.0,0.0,0.0,0.0,0.0,0.0,0.0,0.0,0.0,0.0,0.0,0.0,0.0,0.0,0.0,0.0,0.0,0.0,0.0,0.0,0.0,0.0,0.0,0.0,0.0,-1.6927,-1.7075,-1.7571,-1.8782,-2.0871,-2.1978,-2.1508,-2.1512,-2.1016,-1.9861,0.0,0.0,0.0,0.0,0.0,0.0,0.0,0.0,0.0,0.0,0.0,0.0,0.0,0.0,0.0,0.0,0.0,0.0,0.0,0.0,0.0,0.0,0.0,0.0,0.0,0.0,0.0,0.0,0.0,0.0,0.0,0.0,0.0,0.0,0.0,0.0,0.0,0.0,0.0,0.0,0.0,0.0,0.0,0.0,0.0,0.0,0.0,0.0,0.0,0.0,0.0,0.0,0.0,0.0,0.0,0.0,0.0,0.0,0.0,0.0,0.0,-1.0345,0.0,0.0,0.0,0.0,0.0,0.0,0.0,0.0,0.0,0.0,0.0,0.0,0.0,0.0,0.0,0.0,0.0,0.0,0.0,0.0,0.0,0.0,0.0,0.0,0.0,0.0,0.0,0.0,0.0,0.0,0.0,0.0,0.0,0.0,0.0,0.0,0.0,0.0,0.0,0.0,-1.6779,-1.704,-1.7656,-1.8789,-2.0386,-2.1297,-2.1219,-2.1242,-2.1001,-2.0288,-1.92,0.0,0.0,0.0,0.0,0.0,0.0,0.0,0.0,0.0,0.0,0.0,0.0,0.0,0.0,0.0,0.0,0.0,0.0,0.0,0.0,0.0,0.0,0.0,0.0,0.0,0.0,0.0,0.0,0.0,0.0,0.0,0.0,0.0,0.0,0.0,0.0,0.0,0.0,0.0,0.0,0.0,0.0,0.0,0.0,0.0,0.0,0.0,0.0,0.0,0.0,0.0,0.0,0.0,0.0,-1.0035,-1.001,-1.0209,-1.0008,-0.9498,-0.9316,-0.9881,-1.0973,0.0,0.0,0.0,0.0,0.0,0.0,0.0,0.0,0.0,0.0,0.0,0.0,0.0,0.0,0.0,0.0,0.0,0.0,0.0,0.0,0.0,0.0,0.0,0.0,0.0,-2.3603,-2.3728,0.0,0.0,0.0,0.0,0.0,0.0,0.0,0.0,0.0,0.0,0.0,0.0,-1.6645,-1.7051,-1.7754,-1.9043,-1.9941,-2.0482,-2.0819,-2.0911,-2.0899,-2.0648,-1.9658,-1.8681,0.0,0.0,0.0,0.0,0.0,0.0,0.0,0.0,0.0,0.0,0.0,0.0,0.0,0.0,0.0,0.0,0.0,0.0,0.0,0.0,0.0,0.0,0.0,0.0,0.0,0.0,0.0,0.0,0.0,0.0,0.0,0.0,-0.2959,-0.5377,0.0,0.0,0.0,0.0,0.0,0.0,0.0,0.0,0.0,0.0,0.0,0.0,0.0,0.0,-1.0416,-1.1008,-1.1279,-1.1143,-1.0842,-1.0708,-1.0447,-0.981,-0.953,-0.9599,-0.9557,0.0,-1.0085,-1.2221,0.0,0.0,0.0,0.0,0.0,0.0,0.0,0.0,0.0,0.0,0.0,0.0,0.0,0.0,0.0,0.0,0.0,0.0,0.0,0.0,0.0,0.0,-2.4836,-2.5128,-2.4901,-2.4539,0.0,-2.3343,-2.2614,-2.1272,0.0,0.0,0.0,0.0,0.0,0.0,0.0,0.0,-1.666,-1.6777,-1.7305,-1.8594,-1.9185,-1.9456,-1.9526,-2.0415,-2.0807,-2.0294,-1.9916,-1.9208,-1.8129,-1.7501,0.0,0.0,0.0,0.0,0.0,0.0,0.0,0.0,0.0,0.0,0.0,0.0,0.0,0.0,0.0,0.0,0.0,0.0,0.0,0.0,0.0,0.0,0.0,0.0,0.0,0.0,0.0,0.0,0.0,-0.4933,-0.5083,-0.6608,-0.7267,-0.8505,0.0,0.0,0.0,0.0,0.0,0.0,0.0,0.0,0.0,-1.5196,-1.5076,-1.4439,-1.3281,-1.336,-1.3452,-1.3471,-1.3426,-1.3453,-1.325,-1.2028,-1.1456,-1.1448,-1.0471,-0.9996,-1.0032,-1.2477,-1.3475,-1.3732,0.0,0.0,0.0,0.0,0.0,-2.0154,-2.0508,-2.0666,0.0,0.0,0.0,0.0,0.0,0.0,0.0,0.0,0.0,0.0,0.0,0.0,0.0,-2.5941,-2.6198,-2.6358,-2.5142,-2.3954,-2.2727,0.0,-2.0683,-1.9922,-1.7978,0.0,0.0,0.0,0.0,0.0,-1.7609,-1.8027,-1.8379,-1.8945,-1.9183,-1.9328,-1.9285,-2.0198,-2.0734,-2.0641,-2.0428,-1.9936,-1.9133,-1.8003,-1.765,0.0,0.0,0.0,0.0,0.0,0.0,0.0,0.0,0.0,0.0,0.0,0.0,0.0,0.0,0.0,0.0,0.0,0.0,0.0,0.0,0.0,0.0,0.0,0.0,0.0,0.0,0.0,0.0,-0.6398,-0.6701,-0.7803,-0.8576,-0.9848,0.0,0.0,0.0,0.0,0.0,0.0,-1.7068,-1.7524,-1.7674,-1.7444,-1.7116,-1.6492,-1.5576,-1.529,-1.5214,-1.538,-1.5607,-1.5772,-1.5645,-1.4015,-1.3217,-1.2919,-1.1155,-1.0304,-1.035,-1.2803,-1.3963,-1.4311,-1.6142,-1.7674,-1.8781,-1.9051,-2.0553,-2.2574,-2.3298,-2.3689,-2.3861,-2.3988,0.0,-2.2327,-2.2548,0.0,0.0,0.0,0.0,-2.5217,-2.5318,-2.683,-2.8065,-2.6829,-2.7024,-2.708,-2.5687,-2.4339,-2.2915,0.0,-2.098,-2.0576,-1.8655,0.0,0.0,0.0,0.0,-1.7695,-1.8465,-1.9023,-1.9336,-1.9434,-1.9258,-1.9203,-1.9406,-2.014,-2.0814,-2.1185,-2.1018,-2.0614,-2.0037,-1.8455,-1.7772,-1.8166,0.0,0.0,0.0,0.0,0.0,0.0,0.0,0.0,0.0,0.0,0.0,0.0,0.0,0.0,0.0,0.0,0.0,0.0,0.0,0.0,0.0,0.0,0.0,0.0,0.0,0.0,0.0,0.0,0.0,-0.8573,-0.8945,0.0,0.0,0.0,0.0,-1.6649,-1.6787,-1.7408,-1.8974,-1.9195,-1.8827,-1.8204,-1.8363,-1.7596,-1.6049,-1.6285,-1.6287,-1.6298,-1.6318,-1.6328,-1.6328,-1.4494,-1.3601,-1.3168,-1.1476,-1.0609,-1.0677,-1.337,-1.4719,-1.5172,-1.7849,-2.0107,-2.1928,-2.1705,-2.3057,-2.513,-2.6434,-2.6894,-2.714,-2.8763,-2.7875,-2.6281,-2.5881,-2.4884,0.0,0.0,-2.5789,-2.6676,-2.8504,-2.8602,-2.8327,-2.8633,-2.7133,-2.5419,-2.4935,-2.3912,-2.2879,0.0,-2.0913,-1.984,-1.9297,0.0,-1.8848,-1.8066,-1.8633,-1.9043,-1.8691,-1.9023,-1.9434,-1.9844,-1.916,-1.8984,-1.9802,-2.0336,-2.0974,-2.1768,-2.1584,-2.1192,-2.0693,-1.9032,-1.818,-1.8192,-1.7629,0.0,0.0,0.0,0.0,0.0,0.0,0.0,0.0,0.0,0.0,0.0,0.0,0.0,0.0,0.0,0.0,0.0,0.0,0.0,0.0,0.0,0.0,0.0,0.0,0.0,0.0,0.0,0.0,-0.9198,-1.0766,0.0,0.0,-1.5421,-1.6898,-1.8849,-1.8768,-1.9347,-2.0889,-2.0808,-2.0704,-2.0682,-2.076,-2.0472,-1.9936,-2.0035,-1.9952,-1.9952,-1.9768,-1.9781,-1.9927,-1.774,-1.6326,-1.5205,-1.3244,-1.2444,-1.2716,-1.4623,-1.5095,-1.5003,-1.9001,-2.1308,-2.2682,-2.3929,-2.5933,-2.8219,-2.8885,-2.9569,-3.0002,-2.9352,-2.893,-2.8444,-2.7418,-2.7443,-2.7819,-2.8011,-2.8843,-2.96,-2.913,-2.9343,-2.9199,-2.7478,-2.6472,-2.5633,-2.4775,-2.4216,-2.3781,-2.3308,-2.2083,-2.1055,-2.0625,-2.0078,-1.9687,-1.9648,-1.9922,-2.0059,-1.9902,-2.0273,-2.0371,-1.9961,-1.9648,-1.9581,-1.9885,-2.027,-2.0687,-2.1317,-2.1092,-2.092,-2.0718,-1.9434,-1.8576,-1.8226,-1.7991,-1.7978,0.0,0.0,0.0,0.0,0.0,0.0,0.0,0.0,0.0,0.0,0.0,0.0,0.0,0.0,0.0,0.0,0.0,0.0,0.0,0.0,0.0,0.0,0.0,0.0,0.0,0.0,-0.9064,-1.0166,-1.2425,-1.4262,-1.5248,-1.7273,-1.9153,-2.067,-2.089,-2.1416,-2.2525,-2.2432,-2.2432,-2.2726,-2.2632,-2.2539,-2.2445,-2.2445,-2.2378,-2.2271,-2.2084,-2.2044,-2.2111,-1.9756,-1.8285,-1.716,-1.51,-1.4304,-1.4677,-1.6104,-1.6329,-1.6232,-2.035,-2.2636,-2.3784,-2.5664,-2.8096,-3.0557,-3.1614,-3.2352,-3.2768,-3.1572,-3.1001,-3.0785,-2.9808,-2.9943,-3.0424,-3.0351,-3.0845,-3.1221,-3.0138,-2.9819,-2.9015,-2.6535,-2.5502,-2.4716,-2.3374,-2.3448,-2.3632,-2.3214,-2.2843,-2.2344,-2.1758,-2.1172,-2.084,-2.0996,-2.1016,-2.1016,-2.1016,-2.1269,-2.1172,-2.043,-2.052,-2.0487,-2.0156,-2.0776,-2.1118,-2.0996,-2.0969,-2.092,-2.0718,-1.9786,-1.9032,-1.8505,-1.8272,-1.8111,-1.793,0.0,0.0,0.0,0.0,0.0,0.0,0.0,0.0,0.0,0.0,0.0,0.0,0.0,0.0,0.0,0.0,0.0,0.0,0.0,0.0,0.0,0.0,0.0,-0.9631,-0.8615,-0.88,-1.1289,-1.3581,-1.5337,-1.6197,-1.912,-2.1237,-2.1912,-2.2709,-2.3333,-2.3781,-2.3794,-2.3928,-2.4195,-2.3928,-2.3647,-2.334,-2.334,-2.3193,-2.2886,-2.2873,-2.2712,-2.2297,-2.0355,-1.9279,-1.89,-1.6936,-1.6063,-1.6193,-1.7871,-1.8512,-1.8872,-2.1973,-2.4034,-2.5525,-2.6938,-2.925,-3.2148,-3.4458,-3.5356,-3.5554,-3.5554,-3.4449,-3.3144,-3.3119,-3.234,-3.1612,-3.2114,-3.165,-3.1187,-3.1707,-3.0063,-2.7662,-2.5877,-2.4234,-2.2532,-2.0895,-2.1483,-2.2344,-2.1949,-2.2975,-2.3535,-2.2676,-2.2539,-2.2402,-2.1992,-2.1934,0.0,-2.1914,-2.1894,-2.1738,-2.1309,-2.168,-2.1627,-2.0707,-2.189,-2.2186,-2.1056,-2.1264,-2.1192,-2.0718,-2.0112,-1.956,-1.8983,-1.8505,-1.7978,-1.7426,0.0,0.0,0.0,0.0,0.0,0.0,0.0,0.0,0.0,0.0,0.0,0.0,0.0,0.0,0.0,0.0,0.0,0.0,0.0,0.0,0.0,0.0,-0.6261,-0.7499,-0.8841,-1.0096,-1.1304,-1.3191,-1.4597,-1.5131,-1.6937,-1.8986,-2.1078,-2.1281,-2.2244,-2.4223,-2.4396,-2.4342,-2.4209,-2.4128,-2.3941,-2.3647,-2.3647,-2.3607,-2.3514,-2.3073,-2.2939,-2.3046,-2.1763,-2.0693,-1.9563,-1.8576,-1.8233,-1.8502,-1.8524,-1.9401,-2.0991,-2.4024,-2.5473,-2.6148,-2.851,-3.077,-3.2997,-3.5258,-3.6073,-3.6081,-3.568,-3.5228,-3.4726,-3.3922,-3.3746,-3.3746,-3.352,-3.2885,-3.2111,-3.141,-2.9159,-2.6722,-2.533,-2.3595,-2.2503,-2.299,-2.326,-2.3542,-2.4127,-2.4175,-2.3965,-2.3105,-2.2969,-2.293,-2.2812,-2.2793,0.0,-2.2383,-2.2344,-2.2187,-2.1758,-2.1826,-2.1726,-2.1063,-2.1275,-2.1156,0.0,-2.033,-2.0188,-2.0037,-1.9886,-1.956,-1.8983,-1.8882,-1.8731,0.0,0.0,0.0,0.0,0.0,0.0,0.0,0.0,0.0,0.0,0.0,0.0,0.0,0.0,0.0,0.0,0.0,0.0,0.0,0.0,0.0,0.0,-0.7471,-0.734,-0.7842,-0.8972,-1.0128,-1.1368,-1.3213,-1.4591,-1.5027,-1.6592,-1.8622,-2.1349,-2.151,-2.253,-2.502,-2.5184,-2.505,-2.4756,-2.4756,-2.4609,-2.4329,-2.4315,-2.4262,-2.4128,-2.3527,-2.3273,-2.33,-2.2525,-2.171,0.0,-2.0323,-2.0235,-2.0447,-1.9898,-2.0362,0.0,0.0,0.0,0.0,0.0,-3.2255,-3.3356,-3.5892,-3.6558,-3.6307,-3.5981,-3.573,-3.5429,-3.4776,-3.465,-3.456,-3.367,-3.2814,-3.1746,-2.9827,-2.7702,-2.5626,-2.3614,-2.2573,-2.2171,-2.2212,-2.3024,-2.3772,-2.4162,0.0,0.0,-2.3555,-2.3262,-2.3144,-2.3144,-2.3144,-2.3047,-2.2812,-2.2773,-2.2617,-2.2187,-2.2546,-2.2473,-2.1616,-2.1963,0.0,0.0,0.0,-2.0865,-2.0865,-2.0639,0.0,0.0,0.0,-2.0118,-1.9359,0.0,0.0,0.0,-1.5613,-1.5301,0.0,0.0,0.0,0.0,0.0,0.0,0.0,0.0,0.0,0.0,0.0,0.0,0.0,0.0,0.0,0.0,-0.9916,-1.0235,-0.9307,-0.9296,-1.0041,-1.173,-1.3397,-1.4637,-1.513,-1.6861,-1.8845,-2.1401,-2.2142,-2.3212,-2.5386,0.0,0.0,0.0,0.0,-2.5358,-2.5037,-2.5064,-2.493,-2.4623,-2.4075,-2.3661,-2.3354,-2.2779,-2.2498,-2.2432,-2.1884,-2.1804,-2.1991,-2.1403,-2.1538,-2.234,-2.4964,-2.5807,-2.6368,-3.1584,-3.3115,-3.3106,-3.5867,0.0,0.0,-3.6358,-3.6031,-3.5629,-3.5554,-3.5161,-3.4421,-3.3191,-3.2076,-3.0765,-2.8244,-2.6511,-2.4773,-2.196,-2.1751,-2.1836,-2.0581,-2.208,-2.3647,-2.3401,-2.4335,-2.4898,-2.4165,-2.3673,-2.3359,-2.3319,-2.3387,-2.3474,-2.3474,-2.3387,-2.3162,-2.2788,0.0,0.0,-2.2081,-2.3167,-2.33,-2.195,-2.2233,-2.2387,-2.2337,-2.1857,-2.1832,-2.2311,-2.2528,-2.1799,-2.0142,-2.1224,-2.0218,-1.7209,-1.6472,-1.5863,0.0,0.0,0.0,0.0,0.0,0.0,0.0,0.0,0.0,0.0,0.0,0.0,0.0,0.0,0.0,-1.0256,-0.9956,-0.9684,-0.9519,-1.1107,-1.2271,-1.2393,-1.2901,-1.3447,-1.3661,-1.3997,-1.5074,-1.7038,-1.9125,-2.0998,-2.2613,-2.474,0.0,-2.5184,-2.5384,-2.5251,-2.473,-2.4957,-2.493,-2.4636,0.0,0.0,-2.3674,-2.3313,-2.302,-2.2752,-2.2405,-2.2285,-2.2285,-2.171,-2.2961,-2.5194,-2.5326,-2.6854,-2.9029,-3.0884,-3.1274,-3.1262,-3.4012,-3.4871,-3.4969,-3.6048,-3.6282,-3.6132,-3.568,-3.5006,0.0,-3.3553,-3.2013,-3.0387,-2.985,-2.7835,-2.5793,-2.5177,-2.4105,-2.3386,-2.4156,-2.4189,-2.4455,-2.5519,-2.5354,-2.5184,-2.5632,-2.5248,-2.4815,-2.4509,-2.521,-2.5797,-2.5797,-2.5041,-2.4426,-2.4343,-2.368,-2.2893,-2.2026,-2.2755,-2.2898,-2.1981,-2.2699,-2.3005,-2.2559,-2.2428,-2.2428,-2.2533,-2.259,-2.2405,-2.2088,-2.1877,-2.1147,-1.9924,-1.8124,-1.6602,0.0,0.0,0.0,0.0,0.0,0.0,0.0,0.0,0.0,0.0,0.0,-1.4622,0.0,0.0,-1.4456,-1.522,-1.465,-1.3847,-1.2956,-1.4076,-1.434,-1.2924,-1.2868,-1.3017,-1.3159,-1.3173,-1.4422,-1.7499,-1.8857,-2.0841,-2.3591,-2.5229,-2.5758,-2.5304,-2.5585,-2.5518,-2.5077,-2.5077,-2.501,-2.485,-2.4409,-2.4128,-2.3968,-2.3527,-2.3776,-2.4394,-2.3927,-2.4332,-2.5218,-2.4575,-2.5596,-2.7418,-2.6848,-2.7809,-2.9734,-3.0673,-3.0727,-3.0618,-3.2655,-3.3353,-3.3552,-3.4969,-3.5379,-3.533,-3.5061,-3.4679,-3.4021,-3.2338,-3.1142,-2.9995,-2.8608,-2.7112,-2.5882,-2.4924,-2.4624,-2.4541,-2.5092,-2.533,-2.5547,-2.6287,-2.6423,-2.6349,-2.6451,-2.7019,-2.7056,-2.5822,-2.6152,-2.6295,-2.5714,-2.5126,-2.4617,-2.4039,-2.3474,-2.3044,-2.2978,-2.3853,-2.4184,-2.3783,-2.4645,-2.4919,-2.4337,-2.4442,-2.4309,-2.3917,-2.4341,-2.4067,-2.3014,-2.3491,-2.269,-2.0673,-1.9653,-1.8199,0.0,0.0,0.0,0.0,0.0,0.0,0.0,0.0,-1.1449,-1.3517,-1.4539,-1.6064,-1.8903,-1.8994,-1.8969,-2.0117,-1.9499,-1.8424,-1.7056,-1.7047,-1.6324,-1.3982,-1.3346,-1.3078,-1.3166,-1.3173,-1.4761,-1.8548,-1.9214,-2.1053,-2.4739,-2.563,-2.5825,-2.5518,-2.5745,-2.5732,-2.5424,-2.5197,-2.505,-2.4983,-2.4943,-2.4815,-2.4747,-2.4679,-2.5331,-2.6512,-2.5916,-2.6688,-2.8015,-2.7738,-2.8127,-2.9071,-2.86,-2.8897,-2.9741,-3.0472,-3.045,-3.0245,-3.157,-3.2015,-3.2129,-3.3575,-3.419,-3.4385,-3.4068,-3.397,-3.3476,-3.103,-3.012,-2.9387,-2.7131,-2.6499,-2.6191,-2.4676,-2.5129,-2.5913,-2.5706,-2.618,-2.6621,-2.6523,-2.7191,-2.7631,-2.7246,-2.8607,-2.9127,-2.7273,-2.7044,-2.6707,-2.5608,-2.5294,-2.4702,-2.3541,-2.3212,-2.3467,-2.4261,-2.5082,-2.5756,-2.6164,-2.6882,-2.714,-2.6735,-2.6793,-2.6348,-2.5453,-2.6245,-2.5765,-2.3763,-2.5005,-2.4231,-2.1616,-2.1145,-1.9682,-1.0692,-1.0329,0.0,-1.0956,-1.034,-1.0158,0.0,0.0,-1.3172,-1.6025,-1.7141,-1.8067,-2.0275,-2.0179,-2.0128,-2.0743,-2.0125,-1.9472,-1.9364,-1.9254,-1.8465,-1.6199,-1.4401,-1.3302,-1.3186,-1.3173,-1.4077,-1.6457,-1.851,-2.058,-2.2698,-2.4843,-2.5825,-2.5518,-2.5545,-2.5424,-2.513,-2.509,-2.4943,-2.469,-2.6342,-2.6993,-2.6698,-2.8443,-2.8891,-2.8407,-2.8014,-2.7818,-2.7781,-2.8759,-2.9118,-2.9228,-3.0135,-3.0412,-3.0078,-2.9872,-2.9439,-2.9263,-3.0618,-3.0874,-3.0721,-3.2129,-3.3353,-3.419,-3.2955,-3.2532,-3.223,-3.0721,-2.9408,-2.8495,-2.8174,-2.8067,-2.8048,-2.7776,-2.7883,-2.797,-2.7931,-2.7707,-2.7402,-2.7012,-2.7539,-2.8179,-2.8385,-2.9496,-2.9901,-2.8775,-2.9083,-2.9028,-2.7844,-2.6871,-2.588,-2.4702,-2.3714,-2.3705,-2.5282,-2.5529,-2.6406,-2.8245,-2.8525,-2.8713,-2.9027,-2.8455,-2.757,-2.6295,-2.6974,-2.6633,-2.519,-2.5521,-2.5459,-2.5003,-2.2603,-2.0085,-1.0058,0.0,0.0,0.0,-1.0699,-1.1144,-1.2465,-1.3763,-1.5255,-1.7238,-1.9018,-2.0822,-2.2739,-2.286,-2.293,0.0,-2.323,-2.2685,-2.1436,-2.1111,-2.0167,-1.7461,-1.6414,-1.5631,-1.4921,-1.5038,-1.6301,-1.9573,-2.0873,-2.2322,-2.4111,-2.5321,-2.5905,-2.5772,-2.5772,-2.5718,-2.5585,-2.643,-2.6609,-2.6481,-2.8289,-2.9107,-2.8948,-2.9584,-3.0071,-3.0293,-3.097,-3.1084,-3.1011,-3.1028,-3.1039,-3.0933,-3.0917,-3.0762,-3.0547,-3.0098,-2.9668,-2.9407,-2.9939,-2.9856,-2.9728,-3.1339,-3.2694,-3.3614,-3.2881,-3.3265,-3.36,-3.1913,-3.103,-3.0411,-2.9702,-2.9513,-2.9303,-2.8495,-2.8301,-2.8301,-2.8301,-2.7969,-2.7617,-2.7422,-2.8686,-2.9693,-2.9457,-3.1384,-3.2465,-3.1352,-3.0637,-2.9475,-2.7406,-2.6812,-2.5797,-2.3973,-2.3387,-2.3634,-2.5016,-2.5738,-2.6846,-2.8605,-2.9778,-3.0434,-3.0473,-3.028,-2.9522,-2.8167,-2.8531,-2.8035,-2.6606,-2.7132,-2.6762,-2.5568,-2.4459,-2.2926,-1.0078,0.0,0.0,-1.0663,-1.1106,-1.1926,-1.2936,-1.4819,-1.6892,-1.9033,-2.0785,-2.2594,-2.4341,-2.4569,0.0,-2.4917,-2.5264,-2.4892,-2.347,-2.304,-2.193,-1.9054,-1.8309,-1.796,-1.7186,-1.7024,-1.825,-2.1963,-2.2506,-2.3585,-2.5604,-2.5959,-2.6079,-2.6079,-2.5999,-2.5959,-2.5959,-2.6777,-2.7539,-2.8118,-2.9633,-3.0743,-3.1294,-3.1392,-3.1773,-3.2337,-3.3258,-3.3535,-3.3359,-3.2637,-3.2266,-3.209,-3.1348,-3.0996,-3.0859,-3.0508,-3.0117,-2.9746,-2.9746,-2.9375,-2.9203,-3.1003,-3.2338,-3.3218,-3.3249,-3.4208,-3.4828,-3.305,-3.2443,-3.2028,-3.1133,-3.0618,-3.0016,-2.9112,-2.8601,-2.8301,-2.8301,-2.8047,-2.7898,-2.8177,-2.9764,-3.0971,-3.0623,-3.2959,-3.4492,-3.3225,-3.2199,-3.0338,-2.7267,-2.613,-2.4893,-2.3299,-2.3144,-2.3541,-2.4702,-2.5797,-2.7312,-2.9225,-3.0726,-3.1769,-3.2115,-3.1901,-3.1102,-2.9695,-2.9799,-2.9148,-2.7761,-2.8711,-2.8411,-2.6988,-2.6753,-2.611,0.0,0.0,-1.1828,-1.1324,-1.1333,-1.2258,-1.5127,-1.6078,-1.7669,-2.1839,-2.2306,-2.2512,-2.4232,-2.4409,-2.4315,-2.4609,-2.513,-2.5518,-2.5352,-2.4873,-2.3645,-2.1396,-2.004,-1.9496,0.0,-1.877,-1.9062,-2.1802,-2.239,-2.3704,-2.6175,-2.6373,-2.6373,-2.6373,-2.6106,-2.5959,-2.5959,-2.5651,-2.6544,-2.8612,-3.0146,-3.1844,-3.3711,-3.4774,-3.4984,-3.4517,-3.4238,-3.3809,-3.3379,-3.2949,-3.2539,-3.2129,-3.168,-3.125,-3.0898,-3.0879,-3.0586,-3.0176,-3.0176,-2.9629,-2.9203,-3.1133,-3.2444,-3.3286,-3.384,-3.4565,-3.4923,-3.3583,-3.2712,-3.2331,-3.223,-3.1214,-3.0328,-3.0224,-2.9197,-2.8301,-2.8301,-2.8281,-2.8569,-2.9434,-3.0621,-3.1569,-3.1922,-3.3947,-3.5099,-3.3911,-3.3727,-3.2326,-2.8371,-2.5146,-2.3144,-2.3144,-2.3144,-2.3541,-2.4702,-2.5797,-2.7749,-3.0734,-3.1324,-3.2433,-3.4349,-3.3185,-3.1782,-3.0389,-3.045,-2.9799,-2.8367,-2.9841,-3.0514,-3.0421,-2.9705,-2.9053,0.0,0.0,-1.2011,-1.1838,-1.325,-1.5009,-1.6461,-1.9248,-2.1632,-2.2519,-2.3302,-2.3666,-2.3735,-2.3349,-2.3174,-2.3674,-2.4273,-2.4649,-2.4649,-2.4636,-2.3865,-2.1897,-2.1565,0.0,0.0,0.0,0.0,-2.3769,-2.4405,-2.5063,-2.6627,-2.668,-2.668,-2.668,-2.6587,-2.644,-2.6239,-2.7158,-2.8639,-3.0734,-3.3499,-3.4789,-3.4793,-3.4929,-3.4687,-3.4258,-3.3828,-3.3555,-3.3359,-3.2676,-3.2285,-3.209,-3.1387,-3.1016,-3.0898,-3.0898,-3.1142,-3.1381,-3.0517,-3.0478,-3.0894,-3.1897,-3.3542,-3.5105,-3.5619,-3.6621,-3.7491,-3.6597,-3.5987,-3.5379,-3.444,-3.313,-3.1832,-3.0599,-2.9525,-2.8633,-2.8359,-2.8301,-2.8648,-2.9808,-3.1179,-3.2279,-3.2889,-3.5634,-3.7455,-3.6732,-3.3724,-3.0628,-2.7869,-2.4913,-2.2785,-2.2031,-2.1212,-2.1212,-2.2347,-2.4173,-2.6563,-2.9656,-3.1361,-3.2953,-3.4439,-3.4053,-3.3183,-3.1812,-3.1841,-3.1384,-3.0485,-3.105,-3.1268,-3.1244,-3.1006,-3.0797,-1.2247,-1.2305,-1.2492,-1.2361,-1.4546,-1.7069,-1.8099,-2.1158,-2.3549,-2.3463,-2.3702,-2.3651,-2.2522,-2.2148,-2.2011,-2.2394,-2.3175,-2.3809,-2.3991,-2.4098,-2.3762,-2.2592,-2.2432,0.0,0.0,0.0,0.0,-2.4541,-2.5331,-2.5959,-2.6627,-2.676,-2.6827,-2.6827,-2.6613,-2.6426,-2.6239,-2.7144,-2.8867,-3.1416,-3.4284,-3.5643,-3.5391,-3.5078,-3.4629,-3.4062,-3.3769,-3.3555,-3.3379,-3.2676,-3.2305,-3.209,-3.1387,-3.1347,-3.1652,-3.1652,-3.2241,-3.2785,-3.1381,-3.154,-3.2513,-3.3616,-3.534,-3.7136,-3.8107,-3.9297,-4.0207,-3.9816,-3.891,-3.7993,-3.707,-3.5017,-3.2797,-3.156,-3.0069,-2.8809,-2.8379,-2.8418,-2.8973,-3.066,-3.1724,-3.2673,-3.3959,-3.6488,-3.8254,-3.8256,-3.5183,-3.1629,-2.8327,-2.4636,-2.1864,-2.0783,-1.9521,-1.9248,-2.0515,-2.3221,-2.6273,-2.9449,-3.1982,-3.3894,-3.5126,-3.5027,-3.4363,-3.3245,-3.2976,-3.2849,-3.2718,-3.3161,-3.3365,-3.3365,-3.3528,-3.3483,-1.2149,-1.2559,-1.3159,-1.3027,-1.5231,-1.7873,-2.0041,-2.1807,-2.3067,-2.4311,-2.3606,-2.2367,0.0,0.0,-2.1018,-2.1074,-2.2131,-2.3126,-2.3776,-2.3555,-2.3501,0.0,0.0,0.0,0.0,0.0,0.0,-2.4209,0.0,-2.6079,-2.6386,-2.668,-2.6841,-2.6827,-2.6293,-2.5985,-2.5959,-2.5805,-2.7415,-3.0854,-3.2878,-3.4325,-3.5351,-3.5351,-3.4883,-3.4043,-3.4023,-3.3769,-3.3359,-3.3034,-3.2603,-3.2211,-3.1879,-3.2362,-3.3191,-3.3191,-3.3766,-3.4311,-3.2895,-3.3139,-3.4298,-3.619,-3.7731,-3.9267,-4.1182,-4.2166,-4.274,-4.274,-4.1462,-4.0065,-3.9918,-3.6653,-3.3424,-3.3173,-3.1,-2.8937,-2.8418,-2.8633,-2.9635,-3.1856,-3.2476,-3.3215,-3.5307,-3.6565,-3.7585,-3.8667,-3.7832,-3.5133,-2.9682,-2.4385,-2.0589,-1.9381,-1.7995,-1.7704,-1.9092,-2.2959,-2.6802,-3.0131,-3.3101,-3.5302,-3.658,-3.6045,-3.5339,-3.4598,-3.3905,-3.397,-3.4789,-3.5999,-3.6537,-3.6639,-3.7136,-3.6893,-1.3085,-1.3137,-1.3353,-1.3641,-1.5493,-1.7847,-1.9688,-2.1014,-2.2085,-2.2981,-2.1997,-2.0656,0.0,0.0,0.0,-2.0934,-2.1915,0.0,-2.3668,-2.43,0.0,0.0,0.0,-2.4022,-2.3875,-2.4128,0.0,0.0,-2.5331,-2.5945,-2.668,-2.6987,-2.7054,-2.6827,-2.668,-2.6386,-2.5959,-2.7154,-2.8893,-3.0854,-3.2878,-3.4176,-3.4883,-3.4883,-3.4394,-3.3574,-3.3262,-3.3047,-3.3015,-3.3295,-3.3361,-3.343,-3.4118,-3.4513,-3.4736,-3.4736,-3.5301,-3.604,-3.57,-3.6034,-3.6846,-3.789,-3.9783,-4.1896,-4.274,-4.3108,-4.3283,-4.3283,-4.2653,-4.1704,-4.0213,-3.8176,-3.5861,-3.3174,-3.1739,-3.0554,-2.9065,-2.8848,-2.9715,-3.2295,-3.451,-3.6378,-3.7748,-3.8612,-3.9117,-3.9361,-3.9015,-3.6561,-3.0709,-2.5744,-2.123,-1.7442,-1.4833,-1.4232,-1.6292,-2.0554,-2.5464,-3.0875,-3.4184,-3.6572,-3.8243,-3.753,-3.6569,-3.5338,-3.5154,-3.5425,-3.6019,-3.6937,-3.7547,-3.7912,-3.8051,-3.7478,-1.3304,-1.3387,-1.3648,-1.3987,-1.6275,-1.8606,-1.9003,-2.053,-2.1698,-2.1497,-2.0378,0.0,0.0,0.0,0.0,0.0,0.0,0.0,-2.3282,-2.412,-2.4421,0.0,-2.4783,0.0,-2.4636,-2.509,-2.5424,0.0,-2.5732,-2.6172,-2.6787,-2.6987,-2.7054,-2.7014,-2.664,-2.6159,-2.5571,-2.6598,-2.8236,-3.0623,-3.1936,-3.3255,-3.4707,-3.4707,-3.4238,-3.3398,0.0,-3.2793,-3.2838,-3.3443,-3.3749,-3.3822,-3.4913,-3.5727,-3.6271,-3.6271,-3.6826,-3.78,-3.8587,-3.9341,-3.9852,-3.9705,-4.157,-4.3899,-4.4237,-4.472,-4.5207,-4.5207,-4.4584,-4.3482,-4.1909,-3.9607,-3.6998,-3.3788,-3.2358,-3.1091,-2.9095,-2.9342,-3.0822,-3.3424,-3.5936,-3.7901,-3.9092,-3.9546,-3.9784,-3.9967,-4.0218,-3.8502,-3.3454,-2.711,-2.13,-1.6636,-1.2604,-1.1619,-1.5127,-1.987,-2.5903,-3.3508,-3.6909,-3.9349,-4.0888,-3.9919,-3.8609,-3.694,-3.694,-3.7242,-3.792,-3.9032,-3.9664,-3.9723,-3.9553,-3.8649,-1.3082,-1.3553,-1.4075,-1.4075,-1.6672,-1.9037,-1.8237,-1.9901,-2.1249,-1.979,0.0,0.0,-1.7423,0.0,-1.8253,-1.9192,0.0,-2.1216,-2.2699,-2.3515,-2.4093,-2.4649,-2.5531,-2.5865,-2.5358,-2.6039,-2.64,-2.6146,-2.636,-2.66,-2.6814,-2.6854,-2.6961,-2.7148,-2.6373,-2.5718,-2.5197,-2.5117,-2.6819,-3.0392,-3.0656,-3.2071,-3.4707,-3.4707,-3.4238,-3.3398,0.0,0.0,-3.3188,-3.3734,-3.4031,-3.4375,-3.5468,-3.6703,-3.7796,-3.7796,-3.8289,-3.9222,-4.0963,-4.2124,-4.2703,-4.1856,-4.3501,-4.5929,-4.5989,-4.6842,-4.7709,-4.7538,-4.6667,-4.5421,-4.3864,-4.0973,-3.7789,-3.4613,-3.2896,-3.1374,-2.924,-3.0653,-3.2918,-3.498,-3.6848,-3.8412,-3.9529,-3.9849,-4.0142,-4.0347,-4.137,-4.0739,-3.6916,-2.8964,-2.1919,-1.7237,-1.2713,-1.1648,-1.5824,-2.1361,-2.8434,-3.7272,-4.0765,-4.2868,-4.388,-4.2748,-4.1151,-3.9057,-3.8972,-3.943,-4.0323,-4.1716,-4.2195,-4.176,-4.1379,-4.0017,-1.339,-1.379,-1.4075,-1.4075,-1.5318,-1.666,-1.7154,-1.7486,0.0,0.0,0.0,-1.7094,-1.6999,-1.7433,0.0,-1.943,0.0,0.0,0.0,0.0,-2.4649,0.0,0.0,0.0,0.0,0.0,0.0,0.0,0.0,0.0,-2.6827,-2.7054,-2.6987,-2.656,-2.6159,-2.5905,-2.5812,-2.5317,-2.6934,-3.0755,-3.0524,-3.1946,-3.4707,-3.4707,-3.4238,-3.3379,0.0,0.0,-3.481,-3.4967,-3.5979,-3.7622,-3.8567,-3.9129,-3.9362,-3.9362,-3.9415,-3.9752,-4.1093,-4.2393,-4.3593,-4.5283,-4.689,-4.8398,-4.9233,-4.9663,-4.9694,-4.8759,-4.8429,-4.7377,-4.3765,-4.2378,-4.0383,-3.4676,-3.3414,-3.3024,-3.1503,-3.3586,-3.5981,-3.643,-3.7784,-3.8818,-3.9019,-4.0691,-4.1479,-4.0027,-4.2376,-4.29,-3.8832,-3.2404,-2.613,-2.0454,-1.9532,-1.9938,-2.141,-2.8392,-3.5448,-4.1959,-4.463,-4.5944,-4.5993,-4.5291,-4.3751,-4.1212,-4.1176,-4.1812,-4.3105,-4.4033,-4.4215,-4.3621,-4.3037,-4.089,-1.3614,-1.396,-1.417,-1.4089,-1.5404,-1.6681,-1.6356,0.0,0.0,0.0,0.0,-1.6414,-1.6608,0.0,0.0,0.0,0.0,0.0,0.0,0.0,0.0,0.0,0.0,0.0,0.0,0.0,0.0,0.0,0.0,0.0,-2.7068,-2.7041,-2.6841,-2.64,-2.6106,-2.5959,-2.5959,-2.5678,-2.7294,-3.0854,-3.0726,-3.2141,-3.4707,-3.4707,-3.4238,-3.3379,-3.3336,0.0,-3.5269,-3.6387,-3.7457,-3.8455,-3.9649,-3.9948,-3.9697,-3.9697,-3.9697,-3.9981,-4.1887,-4.3026,-4.3948,-4.6924,-4.8254,-4.8973,-5.0087,-5.0397,-5.0165,-4.9135,-4.8841,-4.7943,-4.4111,-4.2934,-4.1464,-3.6285,-3.4439,-3.3982,-3.4252,-3.5643,-3.6796,-3.6796,-3.8099,-3.9066,-3.8295,-4.002,-4.1275,-4.0693,-4.2379,-4.2894,-4.0465,-3.657,-3.1787,-2.5774,-2.3348,-2.3461,-2.6754,-3.1907,-3.8099,-4.5413,-4.7416,-4.8437,-4.8666,-4.7507,-4.5551,-4.2786,-4.3259,-4.3855,-4.4505,-4.5838,-4.5904,-4.4819,-4.3647,-4.1211,-1.3675,-1.4021,-1.4211,-1.4061,-1.5772,-1.7144,-1.5827,-1.6984,0.0,0.0,-1.6389,-1.6152,-1.6316,0.0,0.0,0.0,0.0,0.0,0.0,0.0,0.0,0.0,0.0,0.0,0.0,0.0,0.0,0.0,0.0,0.0,0.0,-2.7041,-2.676,-2.64,-2.6172,-2.6052,-2.6052,-2.6439,-2.8066,-3.0825,-3.1476,-3.2843,-3.4707,-3.4707,-3.4238,-3.3505,-3.4245,0.0,0.0,-3.758,-3.8527,-3.908,-3.9978,-4.0074,-3.9697,-3.9697,-3.9878,-4.0465,-4.2738,-4.3693,-4.4414,-4.7752,-4.9004,-4.9376,-5.0397,-5.0855,-5.0779,-4.9536,-4.9135,-4.8254,-4.4478,-4.3144,-4.1951,-3.8061,-3.6081,-3.5375,-3.686,-3.7236,-3.7228,-3.6939,-3.8185,-3.8896,-3.769,-3.9576,-4.1367,-4.1681,-4.2736,-4.3139,-4.1953,-4.0123,-3.709,-3.2437,-2.8626,-2.8232,-3.2713,-3.6209,-4.1365,-4.8958,-5.0031,-5.0617,-5.1074,-4.9414,-4.725,-4.4556,-4.5104,-4.5637,-4.6026,-4.7452,-4.7286,-4.5627,-4.4022,-4.1479,-1.3693,-1.3865,-1.4055,-1.3899,-1.5337,-1.6606,-1.5585,0.0,0.0,0.0,-1.6647,-1.6591,-1.6036,-1.6737,-1.7387,0.0,0.0,0.0,0.0,0.0,0.0,0.0,0.0,0.0,0.0,0.0,0.0,0.0,0.0,0.0,0.0,-2.7241,-2.6974,-2.6413,-2.636,-2.6346,-2.6346,-2.7903,-2.9517,-3.1186,-3.2785,-3.4001,-3.4707,-3.4707,-3.4238,-3.3524,0.0,0.0,0.0,-3.819,-3.9334,-4.0939,-4.0045,-3.9747,-3.9697,-3.9697,-4.0465,-4.1591,-4.3026,-4.4256,-4.5631,-4.8065,-4.9456,-5.0474,-5.1451,-5.2487,-5.28,-5.0779,-5.0242,-4.9202,-4.4726,-4.3448,-4.2562,-3.9293,-3.8417,-3.8291,-3.8442,-3.8867,-3.8832,-3.7676,-3.7536,-3.769,-3.7559,-4.0637,-4.3038,-4.2499,-4.4608,-4.552,-4.3379,-4.1786,-4.077,-4.0598,-3.9444,-3.9182,-4.0415,-4.4876,-4.9411,-5.3556,-5.3138,-5.2609,-5.236,-5.0959,-4.9214,-4.719,-4.6505,-4.7029,-4.8666,-4.9052,-4.8232,-4.6293,-4.4782,-4.1796,-1.3353,-1.3573,-1.3871,-1.3634,-1.5212,-1.649,-1.5482,0.0,0.0,-1.7041,-1.6823,-1.6521,-1.627,-1.6715,-1.7167,0.0,0.0,0.0,0.0,0.0,0.0,0.0,0.0,0.0,0.0,0.0,0.0,0.0,0.0,0.0,0.0,-2.7456,-2.6627,-2.64,-2.6386,-2.7004,-2.8218,-2.8865,-3.0584,-3.35,-3.3857,-3.4492,-3.5117,-3.4824,-3.4596,-3.4473,0.0,0.0,0.0,-3.9661,-4.0368,-4.0802,-4.035,-3.9998,-3.98,-4.0541,-4.1119,-4.1887,-4.3975,-4.5024,-4.566,-4.7362,-4.8625,-4.9615,-5.0703,-5.1336,-5.1336,-4.9852,-4.8879,-4.7546,-4.4358,-4.235,-4.1041,-4.053,-4.0478,-4.0478,-4.0478,-3.9879,-3.8778,-3.6572,-3.6918,-3.724,-3.6379,-3.9574,-4.2698,-4.3842,-4.5226,-4.587,-4.4969,-4.4006,-4.3113,-4.2386,-4.1797,-4.2226,-4.4007,-4.7615,-5.0741,-5.2873,-5.3019,-5.2424,-5.11,-5.0818,-4.9363,-4.6513,-4.7219,-4.7699,-4.7854,-4.8335,-4.7566,-4.5663,-4.3937,-4.1346,-1.2949,-1.315,-1.3556,-1.3831,-1.5144,-1.6216,0.0,0.0,-1.7404,-1.7424,-1.7122,-1.6878,-1.6714,-1.7004,-1.7318,0.0,0.0,0.0,0.0,0.0,0.0,0.0,0.0,0.0,0.0,0.0,0.0,0.0,0.0,0.0,0.0,-2.7449,-2.6306,-2.6386,-2.7004,-2.7919,-2.9449,-3.0654,-3.2392,-3.4739,-3.5064,-3.5255,-3.5176,-3.5349,-3.5301,-3.5344,0.0,0.0,0.0,-4.0533,-4.0877,-4.0501,-4.035,-4.0049,-3.9878,-4.1119,-4.1887,-4.2447,-4.4627,-4.5689,-4.6077,-4.7019,-4.7764,-4.8512,-4.9615,-5.0165,-5.0165,-4.9135,-4.7121,-4.4891,-4.3353,-4.0967,-3.9622,-4.169,-4.2181,-4.2181,-4.2181,-4.0611,-3.8497,-3.579,-3.6162,-3.668,-3.5985,-3.9575,-4.3243,-4.5252,-4.6471,-4.6996,-4.6238,-4.557,-4.4564,-4.2794,-4.2634,-4.362,-4.5838,-4.7947,-4.9904,-5.1681,-5.1902,-5.1376,-5.0144,-5.0031,-4.8734,-4.6059,-4.7024,-4.7287,-4.6733,-4.7218,-4.6353,-4.416,-4.2554,-4.0334,-1.2871,-1.2657,-1.2972,-1.4637,-1.5124,-1.5603,0.0,0.0,-1.7371,-1.7404,-1.7879,-1.8095,-1.7529,-1.7853,-1.8353,-1.8443,-1.8065,0.0,0.0,0.0,0.0,0.0,0.0,0.0,0.0,0.0,0.0,0.0,0.0,0.0,0.0,0.0,-2.6092,-2.6373,-2.8374,-2.9449,-2.9449,-3.3381,-3.4953,-3.4181,-3.6257,-3.6387,-3.4707,-3.6336,-3.6583,0.0,0.0,0.0,0.0,-4.0285,-4.0526,-4.045,-3.9923,-3.9697,-3.9878,-4.1119,-4.235,-4.3693,-4.4932,-4.6255,-4.7309,-4.7309,-4.7309,-4.7538,-4.8512,-4.9536,-5.0165,-4.9135,-4.5223,-4.1425,-4.1538,-3.9521,-3.8589,-4.249,-4.3504,-4.3504,-4.3504,-4.1176,-3.8349,-3.5768,-3.5288,-3.5681,-3.6921,-4.1506,-4.5401,-4.6718,-4.8817,-4.9501,-4.7216,-4.6284,-4.4972,-4.2647,-4.3105,-4.4356,-4.6202,-4.6252,-4.7526,-5.081,-5.0031,-4.9639,-5.0074,-4.8652,-4.7396,-4.6507,-4.5721,-4.548,-4.5824,-4.6098,-4.4716,-4.1832,-4.0865,-3.8645,-1.4122,-1.4343,-1.4534,-1.5063,-1.5859,-1.6793,-1.6968,0.0,-1.8112,-1.8701,-1.8684,-1.8576,-1.8479,-1.8576,-1.8667,-1.909,-1.8386,0.0,0.0,0.0,0.0,0.0,0.0,0.0,0.0,0.0,0.0,0.0,0.0,0.0,0.0,0.0,-2.5785,-2.6079,-2.8057,-2.9717,-3.1221,-3.3492,-3.5302,-3.6675,-3.6848,-3.6933,-3.6787,-3.6974,0.0,0.0,0.0,0.0,0.0,-4.0439,-4.03,-3.9948,-3.9772,-3.9697,-3.9981,-4.2084,-4.3122,-4.3787,-4.5958,-4.7392,-4.8293,-4.8293,-4.8841,-4.9487,-4.9773,-4.9166,-4.7873,-4.5752,-4.3283,-4.0906,-3.9265,-3.8194,-3.8251,-4.1255,-4.2048,-4.2447,-4.3313,-4.1281,-3.8807,-3.7086,-3.7488,-3.8497,-3.9575,-4.338,-4.6916,-4.876,-5.0358,-5.0561,-4.8222,-4.7723,-4.646,-4.3307,-4.2879,-4.3132,-4.4164,-4.5623,-4.662,-4.6885,-4.7236,-4.6776,-4.5323,-4.5319,-4.4448,-4.2581,-4.2873,-4.2751,-4.2153,-4.2121,-4.0954,-3.8821,-3.7472,-3.5982,0.0,-1.4579,-1.4848,-1.5345,-1.6138,-1.7034,-1.7476,-1.8145,-1.887,-1.9413,-1.9326,-1.9213,-1.9292,-1.9213,-1.9237,-1.9574,-1.8787,0.0,0.0,0.0,0.0,0.0,0.0,0.0,0.0,0.0,0.0,0.0,0.0,0.0,0.0,0.0,-2.5675,-2.6488,-2.8641,-3.0702,-3.2782,-3.4469,-3.601,-3.7441,-3.741,-3.738,-3.7503,-3.8265,0.0,0.0,0.0,0.0,0.0,-4.0375,-3.9998,-3.9697,-3.9697,-3.9981,-4.0642,-4.2738,-4.3787,-4.4535,-4.7016,-4.8293,-4.8922,-4.9296,-5.0087,-5.093,-5.0474,-4.9487,-4.7927,-4.5515,-4.2956,-4.0598,-3.8674,-3.7429,-3.7488,-4.0582,-4.1826,-4.2641,-4.3975,-4.2091,-3.9855,-3.9088,-3.9499,-4.0426,-4.2086,-4.5493,-4.8631,-5.0445,-5.1426,-5.1074,-4.8666,-4.8063,-4.6622,-4.3608,-4.2545,-4.2166,-4.2247,-4.4072,-4.5009,-4.4622,-4.4769,-4.4289,-4.2917,-4.2754,-4.2026,-4.0672,-4.0919,-4.0671,-3.9792,-3.8778,-3.7721,-3.6594,-3.4937,-3.3926,0.0,0.0,0.0,0.0,-1.615,-1.6758,-1.8248,-1.9012,0.0,-1.9562,-1.9771,-1.996,-1.9979,-1.9979,-2.0024,-2.0214,0.0,0.0,0.0,0.0,0.0,0.0,0.0,0.0,0.0,0.0,0.0,0.0,0.0,0.0,0.0,0.0,0.0,-2.7416,-3.0018,-3.227,-3.4216,-3.6104,-3.7073,-3.6838,-3.7811,-3.8031,-3.753,-3.9991,0.0,0.0,0.0,0.0,0.0,-4.0124,-3.98,-3.9878,-3.9878,-4.0642,-4.1887,-4.3218,-4.4442,-4.581,-4.8065,-4.8891,-4.9215,-5.0242,-5.1229,-5.1849,-5.1005,-5.0627,-5.0023,-4.7684,-4.4038,-4.0649,-3.9728,-3.7522,-3.661,-4.0382,-4.2382,-4.3787,-4.5115,-4.3338,-4.147,-4.147,-4.1382,-4.2059,-4.4579,-4.7865,-5.0564,-5.1711,-5.1921,-5.1034,-4.8657,-4.7491,-4.594,-4.3509,-4.2222,-4.1357,-4.0588,-4.1683,-4.2716,-4.3392,-4.2493,-4.2043,-4.2278,-4.0753,-3.9972,-4.0213,-3.958,-3.8935,-3.8253,-3.6168,-3.5061,-3.4996,-3.3309,-3.2522,-1.5691,0.0,-1.59,-1.622,-1.6945,-1.7694,0.0,-1.8863,-1.9732,-1.9811,0.0,0.0,-2.0777,-2.0736,0.0,0.0,0.0,0.0,0.0,0.0,0.0,0.0,0.0,0.0,0.0,0.0,0.0,0.0,0.0,0.0,0.0,0.0,0.0,-2.867,-3.0772,-3.2134,-3.299,-3.4488,-3.6077,-3.7604,-3.739,-3.8352,-4.0329,-4.0928,0.0,0.0,0.0,0.0,-4.0651,-3.9973,-4.0262,-4.1119,-4.1119,-4.1887,-4.3218,-4.4442,-4.5663,-4.6721,-4.8285,-4.9821,-5.1377,-5.2416,-5.2939,-5.3213,-5.3513,-5.2669,-5.109,-4.8773,-4.6016,-4.3222,-4.1081,-3.95,-3.8935,-4.088,-4.1728,-4.2641,-4.4932,-4.4135,-4.2944,-4.2944,-4.4372,-4.5932,-4.7357,-4.9769,-5.1532,-5.1816,-5.1921,-5.0904,-4.8263,-4.7341,-4.5825,-4.3065,-4.2071,-4.1196,-4.0122,-3.9927,-3.951,-3.8746,-3.8428,-3.8277,-3.8202,-3.7784,-3.7556,-3.7434,-3.6755,-3.6012,-3.5061,-3.453,-3.3887,-3.317,-3.2092,-3.1536,-1.6299,-1.639,-1.6595,-1.6952,-1.761,-1.8347,-1.8684,0.0,0.0,0.0,0.0,0.0,0.0,0.0,0.0,0.0,0.0,0.0,0.0,0.0,0.0,0.0,0.0,0.0,0.0,0.0,0.0,0.0,0.0,0.0,0.0,0.0,0.0,0.0,-3.1498,-3.273,-3.3516,-3.5028,-3.633,-3.7461,-3.8472,-3.9795,-4.1235,-4.1721,0.0,0.0,0.0,0.0,-4.0475,-4.0594,-4.0945,-4.169,-4.2279,-4.3218,-4.4535,-4.5663,-4.6751,-4.8026,-4.9631,-5.1303,-5.2767,-5.3715,-5.3977,-5.4171,-5.4878,-5.4441,-5.3277,-5.1607,-4.8934,-4.6214,-4.4384,-4.2395,-4.1311,-4.2507,-4.316,-4.3882,-4.5869,-4.5298,-4.4535,-4.5115,-4.6138,-4.7262,-4.8461,-5.0069,-5.1229,-5.1229,-5.0779,-4.9801,-4.804,-4.6397,-4.4668,-4.2765,-4.0998,-3.977,-3.9094,-3.8265,-3.7658,-3.7538,-3.707,-3.6769,-3.6541,-3.6231,-3.6215,-3.6507,-3.5688,-3.4835,-3.4013,-3.3157,-3.2451,-3.1974,-3.097,-3.057,-1.6547,-1.6637,-1.6888,-1.7435,-1.8029,-1.8714,-1.957,0.0,0.0,0.0,0.0,0.0,0.0,0.0,0.0,0.0,0.0,0.0,0.0,0.0,0.0,0.0,0.0,0.0,0.0,0.0,0.0,0.0,0.0,0.0,0.0,0.0,0.0,0.0,-3.1917,-3.3311,-3.4665,-3.616,-3.717,-3.7399,-3.9767,-4.0996,-4.1229,-4.2213,0.0,0.0,0.0,0.0,-4.0743,-4.1503,-4.1985,-4.2252,-4.3409,-4.4535,-4.584,-4.6837,-4.7943,-4.9376,-5.1451,-5.2836,-5.3783,-5.4356,-5.4606,-5.4757,-5.5495,-5.561,-5.5402,-5.466,-5.2068,-4.9351,-4.8229,-4.5684,-4.3702,-4.4815,-4.5252,-4.5779,-4.7019,-4.6432,-4.5958,-4.7106,-4.7186,-4.7492,-4.8646,-4.9694,-5.032,-5.0165,-4.9376,-4.8461,-4.7518,-4.5213,-4.3257,-4.2423,-3.9796,-3.8069,-3.7965,-3.7015,-3.6779,-3.7555,-3.6909,-3.6347,-3.6188,-3.5814,-3.573,-3.6191,-3.5398,-3.4507,-3.3602,-3.1947,-3.1119,-3.097,-3.0139,-2.9804,-1.7111,-1.7075,-1.6996,-1.6829,-1.7563,-1.8548,-1.8981,0.0,0.0,0.0,0.0,0.0,0.0,0.0,0.0,0.0,0.0,0.0,0.0,0.0,0.0,0.0,0.0,0.0,0.0,0.0,0.0,0.0,0.0,0.0,0.0,0.0,0.0,0.0,0.0,-3.2973,-3.4403,-3.5929,-3.7309,-3.8684,-3.9066,-3.9961,-4.1246,-4.1522,-4.1304,0.0,0.0,-4.1974,-4.1524,-4.2695,-4.3882,-4.484,-4.5024,-4.5869,-4.7163,-4.8149,-4.9184,-5.0474,-5.2557,-5.3781,-5.4419,-5.4544,-5.4606,-5.4757,-5.5495,-5.5262,-5.4878,-5.5344,-5.3977,-5.2165,-5.0922,-4.8448,-4.6312,-4.6486,-4.5961,-4.5779,-4.7019,-4.7106,-4.7106,-4.7309,-4.7958,-4.8533,-4.8728,-4.9694,-5.0087,-4.9215,-4.8922,-4.8118,-4.605,-4.4501,-4.2956,-4.1261,-3.9309,-3.786,-3.7369,-3.6729,-3.6269,-3.5887,-3.6155,-3.6262,-3.616,-3.64,-3.5975,-3.4724,-3.4939,-3.3846,-3.1609,-3.1315,-3.0771,-3.0011,-2.9856,-2.9804,-1.6937,-1.7094,-1.7106,-1.6896,-1.7497,-1.8208,-1.8729,0.0,0.0,0.0,0.0,0.0,0.0,0.0,0.0,0.0,0.0,0.0,0.0,0.0,0.0,0.0,0.0,0.0,0.0,0.0,0.0,0.0,0.0,0.0,0.0,0.0,0.0,0.0,0.0,-3.363,-3.4832,-3.6407,-3.7682,-3.8888,-3.9819,-4.0523,-4.1329,-4.1329,-4.1322,-4.1595,0.0,-4.2518,-4.2738,-4.3975,-4.484,-4.5479,-4.6166,-4.6726,-4.7452,-4.9085,-5.0703,-5.2241,-5.3615,-5.4328,-5.4634,-5.5024,-5.5203,-5.5262,-5.561,-5.5495,-5.5262,-5.561,-5.4834,-5.3802,-5.3207,-5.0913,-4.8817,-4.8817,-4.7613,-4.6638,-4.7193,-4.7309,-4.7309,-4.7309,-4.7679,-4.7988,-4.7988,-4.8377,-4.8346,-4.713,-4.6957,-4.6315,-4.4627,-4.3009,-4.1731,-4.0887,-3.8912,-3.7526,-3.7258,-3.6684,-3.6006,-3.5152,-3.559,-3.569,-3.5386,-3.6662,-3.6447,-3.4416,-3.4657,-3.3605,-3.1167,-3.0696,-3.0216,-2.9804,-2.9804,-2.9804,-1.6841,-1.7043,-1.7204,-1.7018,0.0,-1.8026,-1.8792,-1.8823,0.0,0.0,0.0,0.0,0.0,0.0,0.0,0.0,0.0,0.0,0.0,0.0,0.0,0.0,0.0,0.0,0.0,0.0,0.0,0.0,0.0,0.0,0.0,0.0,0.0,0.0,0.0,0.0,-3.5311,-3.6379,-3.7642,-3.9104,-4.0368,-4.0953,-4.0953,-4.1246,-4.1698,-4.2251,-4.2824,-4.3436,-4.4069,-4.5298,-4.5869,-4.5958,-4.6931,-4.7624,-4.824,-4.9773,-5.1736,-5.3618,-5.4328,-5.4695,-5.4939,-5.5552,-5.5724,-5.5667,-5.5495,-5.532,-5.5144,-5.5144,-5.4878,-5.4606,-5.4606,-5.2738,-5.0703,-5.0474,-4.9004,-4.7624,-4.7396,-4.7309,-4.7309,-4.7309,-4.7309,-4.7309,-4.7309,-4.7309,-4.6844,-4.5598,-4.5389,-4.484,-4.3218,-4.1769,-4.0649,-4.0357,-3.8498,-3.7136,-3.701,-3.6609,-3.5956,-3.4977,-3.5018,-3.5168,-3.5274,-3.6401,-3.6207,-3.4334,-3.4334,-3.3306,-3.1029,-3.0342,-2.9905,-2.9804,-2.9804,-2.9804,-1.7143,-1.7149,-1.7049,-1.6961,-1.7358,0.0,-1.9357,-1.9744,0.0,-2.1651,0.0,0.0,0.0,0.0,0.0,0.0,0.0,0.0,0.0,0.0,0.0,0.0,0.0,0.0,0.0,0.0,0.0,0.0,0.0,0.0,0.0,0.0,0.0,0.0,0.0,0.0,-3.5288,-3.5398,-3.6858,-3.959,-3.9798,-3.9823,-3.9798,-4.1049,-4.1597,-4.1769,-4.4125,-4.5235,-4.5389,-4.6638,-4.7106,-4.7193,-4.7309,-4.846,-5.0165,-5.032,-5.1736,-5.3618,-5.4328,-5.5024,-5.5667,-5.5667,-5.5724,-5.561,-5.4878,-5.42,-5.3685,-5.3685,-5.4106,-5.4606,-5.4606,-5.318,-5.1525,-5.0627,-4.9536,-4.846,-4.7538,-4.7309,-4.7309,-4.7309,-4.7309,-4.7309,-4.7309,-4.7309,-4.6844,-4.5598,-4.5389,-4.4535,-4.2084,-4.1187,-4.0357,-3.9146,-3.7962,-3.6985,-3.6458,-3.6383,-3.6107,-3.5529,-3.4564,-3.4865,-3.6852,-3.5683,-3.4605,-3.386,-3.386,-3.2776,-3.0612,-3.0557,-3.0306,-2.9804,-2.9804,-2.9804,-1.6905,-1.6924,-1.6991,-1.6976,-1.732,0.0,0.0,-1.8746,-1.9493,-2.017,-2.1555,0.0,0.0,0.0,0.0,0.0,0.0,0.0,0.0,0.0,0.0,0.0,0.0,0.0,0.0,0.0,0.0,0.0,0.0,0.0,0.0,0.0,0.0,0.0,0.0,0.0,0.0,-3.5288,-3.6834,-3.9697,-3.9697,-4.0083,-4.0945,-4.1419,-4.2447,-4.3975,-4.5024,-4.5869,-4.6609,-4.6688,-4.6681,-4.6766,-4.738,-4.8792,-5.0474,-5.108,-5.2241,-5.3618,-5.4328,-5.4757,-5.5059,-5.5059,-5.5059,-5.4878,-5.4171,-5.3717,-5.3618,-5.4042,-5.4356,-5.4482,-5.4042,-5.2806,-5.1474,-5.0595,-4.9085,-4.7764,-4.7366,-4.7309,-4.7309,-4.7309,-4.7309,-4.7019,-4.6255,-4.6166,-4.5389,-4.3313,-4.3026,-4.235,-4.0642,-4.0286,-3.9956,-3.9473,-3.9035,-3.8437,-3.7479,-3.8134,-3.8479,-3.8265,-3.7464,-3.6775,-3.6136,-3.6849,-3.6163,-3.386,-3.3489,-3.241,-3.0608,-3.0281,-3.0005,-2.9804,-2.9804,-2.9804,-1.6815,-1.7087,-1.7387,-1.7483,0.0,0.0,-1.9064,-1.9136,-1.9538,-2.0759,0.0,0.0,0.0,0.0,0.0,0.0,0.0,0.0,0.0,0.0,0.0,0.0,0.0,0.0,0.0,0.0,0.0,0.0,0.0,0.0,0.0,0.0,0.0,0.0,0.0,0.0,-3.5288,-3.5568,-3.7098,-3.9697,-3.9728,-4.0408,-4.1591,-4.1799,-4.3121,-4.5389,-4.5576,-4.6138,-4.695,-4.6501,-4.6202,-4.6077,-4.7027,-4.8514,-5.0197,-5.1197,-5.2357,-5.3618,-5.4328,-5.4433,-5.4225,-5.4225,-5.4087,-5.3825,-5.3275,-5.3311,-5.3639,-5.4413,-5.4939,-5.5119,-5.4106,-5.2977,-5.1735,-5.0639,-4.9085,-4.7679,-4.7396,-4.7309,-4.7309,-4.7309,-4.7019,-4.6432,-4.5598,-4.5115,-4.4069,-4.1887,-4.1591,-4.1119,-3.9878,-3.9697,-3.9827,-4.0032,-4.0106,-3.9799,-3.897,-3.9557,-3.9913,-3.9913,-3.9814,-3.8866,-3.6905,-3.7423,-3.6733,-3.4607,-3.3513,-3.2269,-3.0859,-3.0482,-3.0131,-2.9804,-2.9804,-2.9804,-1.7091,-1.7544,-1.8099,0.0,0.0,0.0,-2.2739,-2.1475,-2.0841,0.0,0.0,0.0,0.0,0.0,0.0,0.0,0.0,0.0,0.0,0.0,0.0,0.0,0.0,0.0,0.0,0.0,0.0,0.0,0.0,0.0,0.0,0.0,0.0,0.0,0.0,0.0,-3.5288,-3.6191,-3.7709,-3.9672,-3.9777,-4.0483,-4.1663,-4.2209,-4.3574,-4.545,-4.6046,-4.6322,-4.6322,-4.6322,-4.5903,-4.5357,-4.6321,-4.7792,-4.9534,-5.0412,-5.196,-5.3584,-5.4293,-5.4087,-5.3463,-5.3463,-5.3003,-5.2373,-5.2289,-5.2877,-5.3636,-5.4364,-5.5702,-5.6563,-5.4999,-5.3836,-5.2604,-5.079,-4.9536,-4.8512,-4.7538,-4.7309,-4.7309,-4.7309,-4.6255,-4.5389,-4.5389,-4.4349,-4.3026,-4.1789,-4.1591,-4.1119,-3.9878,-3.9697,-4.0058,-4.0702,-4.0849,-4.083,-4.083,-4.0304,-3.9913,-3.9913,-4.1,-4.104,-3.9693,-3.7071,-3.5814,-3.6212,-3.4178,-3.2516,-3.1411,-3.1386,-3.0834,-2.9804,-2.9804,-2.9804,-1.8259,-1.84,0.0,0.0,0.0,0.0,0.0,0.0,0.0,0.0,0.0,0.0,0.0,0.0,0.0,0.0,0.0,0.0,0.0,0.0,0.0,0.0,0.0,0.0,0.0,0.0,0.0,0.0,0.0,0.0,0.0,0.0,0.0,0.0,0.0,0.0,-3.5631,-3.5907,-3.6855,-3.8492,-3.9388,-4.0627,-4.2276,-4.2873,-4.395,-4.5335,-4.5496,-4.5603,-4.5574,-4.5095,-4.4796,-4.4749,-4.6434,-4.7744,-4.8827,-5.0421,-5.1395,-5.1894,-5.2085,-5.2077,-5.1872,-5.1872,-5.1736,-5.1663,-5.2145,-5.2865,-5.3739,-5.504,-5.5722,-5.5801,-5.4635,-5.3141,-5.1735,-5.0639,-4.9004,-4.7679,-4.7396,-4.7309,-4.7309,-4.7309,-4.6255,-4.5115,-4.4256,-4.3787,-4.3026,-4.1789,-4.235,-4.2834,-4.2447,-4.235,-4.2328,-4.2113,-4.2418,-4.2479,-4.211,-4.2212,-4.2304,-4.2304,-4.2629,-4.1799,-3.9693,-3.8198,-3.7044,-3.6212,-3.3762,-3.2315,-3.1964,-3.1587,-3.1035,-3.0357,-3.0357,-3.0156,-1.964,0.0,0.0,0.0,0.0,0.0,0.0,0.0,0.0,0.0,0.0,0.0,0.0,0.0,0.0,0.0,0.0,0.0,0.0,0.0,0.0,0.0,0.0,0.0,0.0,0.0,0.0,0.0,0.0,0.0,0.0,0.0,0.0,0.0,0.0,0.0,-3.5829,-3.6122,-3.7147,-3.8748,-3.9494,-4.075,-4.248,-4.2822,-4.3858,-4.5274,-4.5005,-4.4915,-4.4855,-4.4197,-4.4138,-4.466,-4.6234,-4.7548,-4.8692,-5.0191,-5.0719,-5.0626,-5.0626,-5.0226,-4.9691,-5.0059,-4.999,-5.0116,-5.1847,-5.2869,-5.3822,-5.5258,-5.5632,-5.5283,-5.4074,-5.2334,-5.0723,-4.9946,-4.846,-4.7309,-4.7309,-4.7309,-4.7309,-4.7309,-4.6255,-4.5115,-4.4349,-4.3882,-4.3218,-4.2447,-4.3026,-4.3504,-4.3504,-4.3975,-4.4031,-4.3413,-4.3862,-4.3943,-4.3299,-4.3286,-4.3329,-4.3329,-4.29,-4.1719,-3.9773,-3.8721,-3.74,-3.5601,-3.3591,-3.2441,-3.2215,-3.1888,-3.1336,-3.0608,-3.0608,-3.0306,0.0,0.0,0.0,0.0,0.0,0.0,0.0,0.0,0.0,0.0,0.0,0.0,0.0,0.0,0.0,0.0,0.0,0.0,0.0,0.0,0.0,0.0,0.0,0.0,0.0,0.0,0.0,0.0,0.0,0.0,0.0,0.0,0.0,0.0,0.0,0.0,-3.5646,-3.6676,-3.7954,0.0,-3.9741,-4.0688,-4.2194,-4.2393,-4.3474,-4.5095,-4.4496,-4.4227,-4.4167,-4.3569,-4.3927,-4.4887,-4.585,-4.7221,-4.8728,-4.955,-4.9757,-4.9618,-4.948,-4.8535,-4.7419,-4.8289,-4.8266,-4.8392,-5.1434,-5.2874,-5.3654,-5.5051,-5.5186,-5.4548,-5.3037,-5.1185,-4.9501,-4.8562,-4.7813,-4.7309,-4.7309,-4.7309,-4.7309,-4.7309,-4.6255,-4.5389,-4.5389,-4.4442,-4.3693,-4.3787,-4.3882,-4.3854,-4.3798,-4.4755,-4.5252,-4.4527,-4.487,-4.4975,-4.4377,-4.3718,-4.325,-4.317,-4.2193,-4.0958,-3.959,-3.8585,-3.6988,-3.4759,-3.3641,-3.2817,-3.229,-3.224,-3.1687,-3.0683,-3.0683,-3.0357,0.0,0.0,0.0,0.0,0.0,0.0,0.0,0.0,0.0,0.0,0.0,0.0,0.0,0.0,0.0,0.0,0.0,0.0,0.0,0.0,0.0,0.0,0.0,0.0,0.0,0.0,0.0,0.0,0.0,0.0,0.0,0.0,0.0,0.0,0.0,-3.2595,-3.4941,-3.5981,-3.6671,0.0,-3.8839,-3.9853,-4.0268,-4.2203,-4.3358,-4.3748,-4.3599,-4.3539,-4.3539,-4.3389,-4.3927,-4.4887,-4.585,-4.6828,-4.7902,-4.8034,-4.8134,-4.7967,-4.7253,-4.7225,-4.7535,-4.7736,-4.8576,-4.9825,-5.1731,-5.2395,-5.2697,-5.3441,-5.2811,-5.1507,-4.9571,-4.836,-4.7057,-4.5154,-4.6043,-4.7309,-4.7309,-4.7309,-4.7309,-4.7309,-4.6255,-4.5389,-4.5389,-4.5207,-4.5298,-4.6344,-4.6462,-4.6256,-4.5756,-4.5986,-4.5806,-4.5208,-4.475,-4.4466,-4.4317,-4.3718,-4.29,-4.2029,-4.1753,-4.0463,-3.7952,-3.7209,-3.6178,-3.4677,-3.3641,-3.3018,-3.2893,-3.2441,-3.1863,-3.1235,-3.1235,-3.0708,0.0,0.0,0.0,0.0,0.0,0.0,0.0,0.0,0.0,0.0,0.0,0.0,0.0,0.0,0.0,0.0,0.0,0.0,0.0,0.0,0.0,0.0,0.0,0.0,0.0,0.0,0.0,0.0,0.0,0.0,0.0,0.0,0.0,0.0,-3.0555,-3.1553,-3.3922,-3.4917,-3.5876,-3.6707,-3.8352,-3.9584,-4.051,-4.2138,-4.303,-4.3329,-4.3329,-4.3329,-4.3329,-4.3849,-4.4555,-4.5561,-4.6523,-4.744,-4.8256,-4.7858,-4.7635,-4.7473,-4.6645,-4.6608,-4.7004,-4.744,-4.8125,-4.9256,-5.1185,-5.1472,-5.1223,-5.1882,-5.0866,-4.928,-4.784,-4.6405,-4.5019,-4.3863,-4.5285,-4.6658,-4.6166,-4.6694,-4.7309,-4.7309,-4.6726,-4.6344,-4.6344,-4.5779,-4.5598,-4.6255,-4.6344,-4.6138,-4.5492,-4.5951,-4.5933,-4.4945,-4.4526,-4.4197,-4.3868,-4.2998,-4.2193,-4.167,-4.0547,-3.9147,-3.7352,-3.6181,-3.5244,-3.4281,-3.3538,-3.3068,-3.3068,-3.2491,-3.2064,-3.1763,-3.126,-3.0708,0.0,0.0,0.0,0.0,0.0,0.0,0.0,0.0,0.0,0.0,0.0,0.0,0.0,0.0,0.0,0.0,0.0,0.0,0.0,0.0,0.0,0.0,0.0,0.0,0.0,0.0,0.0,0.0,0.0,0.0,0.0,0.0,-2.6901,-2.9982,-3.0124,-3.1074,-3.3022,-3.4222,-3.5466,-3.7,-3.7967,-3.9396,-4.1055,-4.1594,-4.2282,-4.3,-4.3,-4.3079,-4.3283,-4.4096,-4.507,-4.6168,-4.6946,-4.7794,-4.8545,-4.7754,-4.7425,-4.7309,-4.652,-4.6383,-4.6592,-4.7373,-4.7704,-4.8194,-5.0369,-5.0283,-4.9502,-5.0149,-4.8915,-4.7204,-4.6206,-4.4661,-4.3171,-4.2737,-4.4037,-4.5167,-4.4559,-4.5727,-4.684,-4.713,-4.7046,-4.6931,-4.6931,-4.5869,-4.5115,-4.5115,-4.5298,-4.5129,-4.4292,-4.5314,-4.5633,-4.4287,-4.4137,-4.3928,-4.3389,-4.2275,-4.1504,-4.1337,-3.9332,-3.7753,-3.7022,-3.5519,-3.4449,-3.3897,-3.3345,-3.3068,-3.3068,-3.2491,-3.2215,-3.219,-3.121,-3.0708,0.0,0.0,0.0,0.0,0.0,0.0,0.0,0.0,0.0,0.0,0.0,0.0,0.0,0.0,0.0,0.0,0.0,0.0,0.0,0.0,0.0,0.0,0.0,0.0,0.0,0.0,0.0,0.0,0.0,0.0,0.0,-2.5641,-2.7289,-3.0103,-3.0616,-3.1512,-3.2829,-3.474,-3.5866,-3.6098,-3.7063,-3.8311,-3.9679,-3.9768,-4.0487,-4.1654,-4.1654,-4.2047,-4.2828,-4.2901,-4.3971,-4.5536,-4.5664,-4.6262,-4.6997,-4.6101,-4.6121,-4.652,-4.5591,-4.6215,-4.744,-4.7572,-4.7994,-4.8658,-4.9712,-4.8811,-4.7572,-4.7517,-4.6462,-4.4771,-4.2806,-4.2096,-4.1312,-3.9311,-4.0193,-4.1956,-4.3429,-4.4414,-4.523,-4.6271,-4.5962,-4.5689,-4.5689,-4.4627,-4.3787,-4.3787,-4.472,-4.4957,-4.3659,-4.4608,-4.4915,-4.3599,-4.3449,-4.3419,-4.3329,-4.2275,-4.1169,-4.0145,-3.8827,-3.7417,-3.5831,-3.5093,-3.4449,-3.3897,-3.3345,-3.3068,-3.3068,-3.2491,-3.2215,-3.219,-3.1587,-3.1035,0.0,0.0,0.0,0.0,0.0,0.0,0.0,0.0,0.0,0.0,0.0,0.0,0.0,0.0,0.0,0.0,0.0,0.0,0.0,0.0,0.0,0.0,0.0,0.0,0.0,0.0,0.0,0.0,0.0,0.0,-2.785,-2.8116,-2.9063,-3.0898,-3.1182,-3.181,-3.2658,-3.4143,-3.5288,-3.6251,-3.702,-3.7704,-3.8302,-3.8302,-3.9409,-4.1384,-4.1384,-4.1849,-4.2767,-4.3301,-4.4228,-4.5431,-4.5963,-4.6455,-4.6659,-4.5865,-4.6313,-4.7187,-4.6344,-4.6715,-4.7572,-4.7572,-4.744,-4.7175,-4.6831,-4.5904,-4.4736,-4.3976,-4.2912,-4.186,-4.0916,-4.0118,-3.942,-3.8379,-3.8227,-3.8819,-4.0595,-4.2105,-4.3267,-4.4113,-4.4867,-4.5207,-4.4442,-4.3313,-4.2447,-4.2447,-4.3504,-4.3899,-4.2542,-4.4091,-4.4796,-4.3479,-4.3329,-4.3061,-4.2386,-4.1253,-4.0145,-3.9006,-3.7769,-3.6641,-3.5554,-3.5027,-3.4449,-3.3897,-3.3345,-3.3068,-3.3068,-3.2491,-3.2365,-3.2667,-3.1512,-3.116,0.0,0.0,0.0,0.0,0.0,0.0,0.0,0.0,0.0,0.0,0.0,0.0,0.0,0.0,0.0,0.0,0.0,0.0,0.0,0.0,0.0,0.0,0.0,0.0,0.0,0.0,0.0,0.0,0.0,0.0,-3.0821,-3.0734,-3.1035,-3.1819,-3.2064,-3.2418,-3.2947,-3.3876,-3.5007,-3.6237,-3.6716,-3.7015,-3.7165,-3.7165,-3.8332,-4.0367,-4.0546,-4.1146,-4.206,-4.2897,-4.388,-4.4948,-4.5673,-4.6041,-4.6143,-4.5602,-4.6229,-4.7194,-4.6421,-4.6636,-4.7206,-4.6675,-4.6019,-4.5185,-4.399,-4.294,-4.207,-4.1191,-4.0463,-3.9826,-3.9536,-3.8738,-3.8017,-3.7769,-3.7057,-3.6861,-3.8568,-4.0529,-4.2131,-4.2602,-4.365,-4.4107,-4.2998,-4.1879,-4.1015,-4.0728,-4.1957,-4.2438,-4.1388,-4.3229,-4.4258,-4.3369,-4.3329,-4.282,-4.167,-4.0575,-3.936,-3.8198,-3.6929,-3.5906,-3.5353,-3.4801,-3.4248,-3.3696,-3.3294,-3.3068,-3.3068,-3.2641,-3.2641,-3.3043,-3.1662,-3.1461,0.0,0.0,0.0,0.0,0.0,0.0,0.0,0.0,0.0,0.0,0.0,0.0,0.0,0.0,0.0,0.0,0.0,0.0,0.0,0.0,0.0,0.0,0.0,0.0,0.0,0.0,0.0,0.0,0.0,0.0,-3.3219,-3.2746,-3.2489,-3.2577,-3.3422,-3.3905,-3.3945,-3.4905,-3.5454,-3.5549,-3.5579,-3.5938,-3.6537,-3.6537,-3.6926,-3.7644,-3.8272,-3.9149,-4.0096,-4.0799,-4.207,-4.3517,-4.3551,-4.4045,-4.4688,-4.4654,-4.5035,-4.5461,-4.4735,-4.5277,-4.5943,-4.4163,-4.3424,-4.2921,-4.1791,-4.083,-4.0059,-3.9972,-3.9972,-3.9623,-3.8469,-3.8107,-3.7861,-3.6709,-3.6452,-3.6861,-3.8661,-4.0881,-4.2471,-4.2685,-4.2235,-4.1629,-4.1073,-4.0308,-3.9423,-3.834,-3.9777,-4.0924,-4.0783,-4.1937,-4.284,-4.323,-4.3329,-4.282,-4.167,-4.0575,-3.936,-3.8198,-3.6478,-3.5328,-3.4776,-3.4248,-3.3696,-3.3144,-3.3093,-3.3068,-3.3068,-3.3043,-3.3043,-3.3068,-3.2416,-3.2164,0.0,0.0,0.0,0.0,0.0,0.0,0.0,0.0,0.0,0.0,0.0,0.0,0.0,0.0,0.0,0.0,0.0,0.0,0.0,0.0,0.0,0.0,0.0,0.0,0.0,0.0,0.0,0.0,0.0,0.0,-3.5398,-3.5234,-3.4913,-3.4505,-3.4773,-3.4971,-3.4971,-3.5294,-3.5519,-3.5519,-3.5519,-3.5639,-3.5848,-3.5848,-3.5968,-3.6237,-3.6896,-3.7933,-3.9157,-3.9375,-4.0417,-4.1874,-4.1874,-4.2332,-4.2953,-4.2953,-4.3618,-4.4527,-4.4269,-4.4148,-4.4082,-4.3396,-4.2187,-4.0802,-3.9573,-3.9013,-3.8559,-3.7861,-3.7678,-3.752,-3.715,-3.6964,-3.6896,-3.6546,-3.6634,-3.7026,-3.7322,-3.916,-4.0508,-3.9406,-3.9869,-4.0211,-3.918,-3.907,-3.8894,-3.8115,-3.9628,-4.0775,-4.0728,-4.1822,-4.2811,-4.323,-4.2629,-4.1782,-4.0575,-3.9448,-3.8039,-3.6544,-3.5814,-3.5152,-3.4223,-3.3997,-3.3646,-3.3093,-3.3068,-3.3068,-3.3068,-3.3068,-3.3068,-3.3068,-3.2491,-3.2416,-2.6714,0.0,0.0,0.0,0.0,0.0,0.0,0.0,0.0,0.0,0.0,0.0,0.0,0.0,0.0,0.0,0.0,0.0,0.0,0.0,0.0,0.0,0.0,0.0,0.0,0.0,0.0,0.0,0.0,0.0,-3.6178,-3.5852,-3.528,-3.4572,-3.4572,-3.4572,-3.4572,-3.4839,-3.5001,-3.5001,-3.5359,-3.5519,-3.5519,-3.5519,-3.5519,-3.5519,-3.5968,-3.6854,-3.7994,-3.8211,-3.9219,-4.0667,-4.0667,-4.1181,-4.1981,-4.1981,-4.2291,-4.273,-4.251,-4.1967,-4.1317,-4.0683,-3.9816,-3.8797,-3.7572,-3.7338,-3.7428,-3.6615,-3.6358,-3.6358,-3.6358,-3.6358,-3.6358,-3.6358,-3.6634,-3.681,-3.6433,-3.7954,-3.8833,-3.748,-3.8364,-3.8962,-3.796,-3.8191,-3.8316,-3.7563,-3.8672,-3.9607,-3.9771,-4.0526,-4.1341,-4.2087,-4.1504,-4.0575,-3.936,-3.8559,-3.7352,-3.5579,-3.5378,-3.4851,-3.3947,-3.3721,-3.3445,-3.3093,-3.3068,-3.3068,-3.3068,-3.3068,-3.3068,-3.3068,-3.2692,-3.2591,0.0,0.0,0.0,0.0,0.0,0.0,0.0,0.0,0.0,0.0,0.0,0.0,0.0,0.0,0.0,0.0,0.0,0.0,0.0,0.0,0.0,0.0,0.0,0.0,0.0,0.0,0.0,0.0,0.0,-3.5424,-3.5424,-3.4476,-3.3533,-3.2593,-3.2593,-3.2593,-3.2593,-3.3533,-3.3945,-3.3945,-3.5001,-3.5424,-3.5424,-3.5519,-3.5519,-3.5519,-3.5519,-3.5879,-3.66,-3.725,-3.8435,-3.9809,-3.9809,-4.0703,-4.1917,-4.1853,-4.1137,-4.0008,-3.9307,-3.8688,-3.7896,-3.6071,-3.6339,-3.7022,-3.5897,-3.5931,-3.6358,-3.6358,-3.6358,-3.6358,-3.6358,-3.6358,-3.6358,-3.6358,-3.6358,-3.6358,-3.6358,-3.7211,-3.7789,-3.7262,-3.7588,-3.7789,-3.7262,-3.7613,-3.7613,-3.6533,-3.6835,-3.7438,-3.8004,-3.8107,-3.8559,-3.9798,-3.9913,-3.936,-3.8198,-3.8107,-3.7326,-3.5554,-3.5027,-3.4474,-3.3897,-3.3456,-3.3154,-3.3068,-3.3068,-3.3068,-3.3068,-3.3068,-3.3068,-3.3068,-3.3068,-3.2767,-2.7069,0.0,0.0,0.0,0.0,0.0,0.0,0.0,0.0,0.0,0.0,0.0,0.0,0.0,0.0,0.0,0.0,0.0,0.0,0.0,0.0,0.0,0.0,0.0,0.0,0.0,0.0,0.0,-3.4927,-3.438,-3.438,-3.3533,-3.2876,-3.2593,-3.2593,-3.2593,-3.2593,-3.2876,-3.2947,-3.3017,-3.3973,-3.438,-3.4476,-3.5133,-3.5519,-3.5519,-3.5519,-3.5619,-3.5782,-3.5963,-3.6884,-3.8086,-3.8086,-3.894,-4.006,-3.926,-3.9062,-3.9044,-3.8552,-3.8035,-3.7498,-3.6989,-3.6753,-3.6497,-3.5747,-3.5931,-3.6358,-3.6358,-3.6358,-3.6358,-3.6358,-3.6358,-3.6358,-3.6358,-3.6358,-3.6358,-3.6358,-3.6609,-3.6784,-3.6609,-3.6709,-3.6759,-3.6609,-3.7036,-3.7186,-3.6458,-3.6835,-3.7438,-3.8004,-3.8107,-3.8559,-3.9798,-3.9094,-3.8469,-3.8107,-3.7335,-3.6303,-3.5002,-3.5468,-3.5131,-3.3431,-3.3946,-3.3869,-3.3154,-3.3068,-3.3068,-3.3068,-3.3068,-3.3068,-3.3068,-3.3068,-3.2541,0.0,0.0,0.0,0.0,0.0,0.0,0.0,-2.5309,0.0,0.0,0.0,0.0,0.0,0.0,0.0,0.0,0.0,0.0,0.0,0.0,0.0,0.0,0.0,0.0,0.0,0.0,0.0,0.0,-3.3511,-3.3042,-3.2876,-3.2307,-3.1829,-3.1415,-3.1415,-3.1415,-3.1415,-3.1829,-3.2019,-3.2019,-3.2947,-3.3463,-3.3463,-3.4409,-3.4839,-3.4905,-3.5294,-3.5519,-3.5519,-3.5519,-3.6118,-3.7045,-3.7315,-3.7753,-3.8238,-3.7907,-3.7508,-3.7087,-3.6988,-3.6359,-3.5538,-3.5797,-3.5839,-3.5629,-3.5303,-3.5755,-3.6358,-3.6358,-3.6358,-3.6358,-3.6358,-3.6358,-3.6358,-3.6358,-3.6358,-3.6358,-3.6358,-3.6358,-3.6358,-3.6358,-3.6358,-3.6358,-3.6358,-3.6634,-3.6734,-3.6408,-3.6634,-3.6995,-3.7361,-3.7402,-3.7678,-3.8405,-3.7769,-3.7324,-3.7,-3.6354,-3.5554,-3.4449,-3.5383,-3.5286,-3.3836,-3.4733,-3.4815,-3.3784,-3.3784,-3.3556,-3.3068,-3.3068,-3.3068,-3.3068,-3.3068,-3.2591,0.0,0.0,0.0,0.0,0.0,0.0,-2.5383,-2.5547,-2.5897,0.0,0.0,0.0,0.0,0.0,0.0,0.0,0.0,0.0,0.0,0.0,0.0,0.0,0.0,0.0,0.0,0.0,-3.2805,-3.2443,-3.1903,-3.1357,-3.0882,-3.0834,-3.0488,-2.9603,-2.9654,-2.9704,-2.9704,-3.0594,-3.1044,-3.1044,-3.1974,-3.2451,-3.2451,-3.3463,-3.3808,-3.3876,-3.4773,-3.5198,-3.5198,-3.5198,-3.5614,-3.6373,-3.6939,-3.6904,-3.6699,-3.7196,-3.6263,-3.4756,-3.5168,-3.4384,-3.3244,-3.3746,-3.4274,-3.4726,-3.4726,-3.5454,-3.6282,-3.6332,-3.6358,-3.6358,-3.6358,-3.6358,-3.6358,-3.6358,-3.6358,-3.6358,-3.6358,-3.6358,-3.6358,-3.6358,-3.6358,-3.6358,-3.6358,-3.6358,-3.6358,-3.6358,-3.6358,-3.6358,-3.6358,-3.6358,-3.6358,-3.6358,-3.6358,-3.6157,-3.568,-3.5579,-3.5102,-3.4224,-3.5174,-3.5425,-3.4924,-3.5814,-3.5814,-3.4759,-3.4594,-3.4037,-3.3068,-3.3068,-3.3068,-3.3068,-3.3018,-3.2667,0.0,0.0,0.0,0.0,0.0,0.0,-2.4345,-2.3823,-2.37,0.0,0.0,0.0,0.0,0.0,0.0,0.0,0.0,0.0,0.0,0.0,0.0,0.0,0.0,0.0,0.0,0.0,-3.1422,-3.136,-3.05,-2.9592,-2.8766,-2.8692,-2.8644,-2.8423,-2.8875,-2.9101,-2.9101,-2.9783,-3.0062,-3.0062,-3.1044,-3.1462,-3.1536,-3.2451,-3.2876,-3.2876,-3.3115,-3.3185,-3.3185,-3.3185,-3.4041,-3.527,-3.5386,-3.5568,-3.5586,-3.4841,-3.4633,-3.4673,-3.4366,-3.3997,-3.3746,-3.3872,-3.4274,-3.4726,-3.4726,-3.5177,-3.5805,-3.6232,-3.6358,-3.6358,-3.6358,-3.6358,-3.6358,-3.6358,-3.6358,-3.6358,-3.6358,-3.6358,-3.6358,-3.6358,-3.6358,-3.6358,-3.6358,-3.6358,-3.6358,-3.6358,-3.6358,-3.6358,-3.6358,-3.6358,-3.6358,-3.6358,-3.6358,-3.6307,-3.6207,-3.5805,-3.5593,-3.5852,-3.6434,-3.6551,-3.5922,-3.6944,-3.6632,-3.4759,-3.3869,-3.3326,-3.3068,-3.3068,-3.3068,-3.3068,-3.2591,-3.2089,0.0,0.0,0.0,-2.7051,0.0,0.0,0.0,-2.4822,0.0,0.0,0.0,0.0,0.0,0.0,0.0,0.0,0.0,0.0,0.0,0.0,0.0,0.0,0.0,0.0,0.0,0.0,-2.9362,-2.9141,-2.8969,-2.8579,-2.8097,-2.8097,-2.8097,-2.8097,-2.8373,-2.8649,-2.8925,-2.9227,-2.9503,-2.9804,-3.0292,-3.0495,-3.057,-3.1462,-3.1901,-3.1947,-3.2379,-3.2593,-3.2593,-3.2593,-3.2786,-3.3162,-3.3972,-3.4205,-3.4065,-3.3887,-3.3822,-3.3861,-3.3871,-3.3721,-3.3545,-3.3796,-3.4098,-3.4349,-3.465,-3.5102,-3.5554,-3.5554,-3.5554,-3.5604,-3.5881,-3.5956,-3.6031,-3.6307,-3.6358,-3.6358,-3.6358,-3.6358,-3.6358,-3.6358,-3.6358,-3.6358,-3.6358,-3.6358,-3.6358,-3.6358,-3.6358,-3.6358,-3.6358,-3.6358,-3.6358,-3.6358,-3.6107,-3.5855,-3.5554,-3.5545,-3.5486,-3.5489,-3.6713,-3.7282,-3.7021,-3.8069,-3.7843,-3.6239,-3.4677,-3.4095,-3.465,-3.3641,-3.3068,-3.3068,-3.2491,-3.2064,0.0,0.0,0.0,0.0,0.0,-2.785,0.0,0.0,0.0,0.0,0.0,0.0,0.0,0.0,0.0,0.0,0.0,0.0,0.0,0.0,0.0,0.0,0.0,0.0,0.0,0.0,-2.7126,-2.6987,-2.7197,-2.7498,-2.777,-2.767,-2.767,-2.7795,-2.7996,-2.8323,-2.8775,-2.8976,-2.9327,-2.9804,-2.9804,-2.9804,-2.9856,-3.0545,-3.0895,-3.097,-3.1756,-3.2046,-3.2046,-3.2046,-3.1609,-3.1097,-3.2562,-3.2885,-3.2567,-3.3117,-3.3276,-3.3144,-3.3596,-3.3445,-3.3144,-3.3596,-3.3822,-3.3972,-3.4424,-3.4951,-3.5303,-3.4851,-3.4726,-3.4851,-3.5403,-3.5554,-3.568,-3.6232,-3.6358,-3.6358,-3.6358,-3.6358,-3.6358,-3.6358,-3.6358,-3.6358,-3.6358,-3.6358,-3.6358,-3.6358,-3.6358,-3.6358,-3.6358,-3.6358,-3.6332,-3.6207,-3.5991,-3.5578,-3.5021,-3.5521,-3.5728,-3.5493,-3.695,-3.7919,-3.8069,-3.8546,-3.8368,-3.751,-3.5601,-3.5116,-3.5894,-3.4262,-3.3386,-3.3386,-3.2449,-3.2114,0.0,0.0,0.0,0.0,-2.8216,0.0,0.0,0.0,0.0,0.0,0.0,0.0,0.0,0.0,0.0,0.0,0.0,0.0,0.0,0.0,0.0,0.0,0.0,0.0,0.0,0.0,0.0,-2.5737,-2.512,-2.5319,-2.659,-2.6163,-2.6113,-2.664,-2.7595,-2.8147,-2.8197,-2.9202,-2.9729,-2.9804,-2.9804,-2.9804,-2.9804,-2.9934,-2.9934,-2.9934,-3.0088,-3.0139,-3.0139,-3.0139,-3.0088,-3.0088,-3.1048,-3.1499,-3.1549,-3.1599,-3.2331,-3.3093,-3.3144,-3.3119,-3.3093,-3.3144,-3.3495,-3.3897,-3.3972,-3.4374,-3.4801,-3.4751,-3.4726,-3.4851,-3.5403,-3.5554,-3.568,-3.6232,-3.6358,-3.6358,-3.6358,-3.6358,-3.6358,-3.6358,-3.6358,-3.6358,-3.6358,-3.6358,-3.6358,-3.6358,-3.6358,-3.6358,-3.6358,-3.6358,-3.6182,-3.568,-3.6353,-3.6671,-3.6184,-3.6599,-3.7285,-3.8182,-3.7978,-3.8219,-3.9192,-3.7482,-3.6526,-3.6369,-3.5278,-3.4733,-3.4897,-3.4677,-3.4511,-3.4485,-3.2434,-3.1738,0.0,0.0,0.0,0.0,0.0,0.0,0.0,0.0,-2.6339,0.0,0.0,0.0,0.0,0.0,0.0,0.0,0.0,0.0,0.0,0.0,0.0,0.0,0.0,0.0,0.0,0.0,0.0,0.0,0.0,-2.4226,-2.5912,-2.5283,-2.5364,-2.644,-2.6917,-2.7444,-2.8097,-2.8574,-2.9151,-2.9804,-2.9804,-2.9804,-2.9804,-2.9804,-2.9804,-2.9804,-2.9804,-2.9804,-2.9804,-2.9804,-2.9804,-2.9856,-3.0216,-3.08,-3.1386,-3.1386,-3.2114,-3.3068,-3.3068,-3.3068,-3.3068,-3.3068,-3.3445,-3.3847,-3.352,-3.3796,-3.4173,-3.3847,-3.3771,-3.3897,-3.4449,-3.46,-3.4726,-3.5278,-3.5655,-3.5805,-3.5479,-3.5655,-3.5881,-3.5881,-3.5881,-3.5981,-3.6307,-3.6358,-3.6358,-3.6358,-3.6358,-3.6232,-3.5931,-3.5881,-3.5932,-3.5981,-3.6123,-3.6326,-3.6737,-3.7226,-3.7678,-3.8141,-3.8543,-3.862,-3.8472,-3.7587,-3.7098,-3.7098,-3.6053,-3.5922,-3.6476,-3.5305,-3.4677,-3.465,-3.2465,-3.1687,-3.0966,0.0,0.0,0.0,0.0,0.0,0.0,0.0,0.0,0.0,0.0,0.0,0.0,0.0,0.0,0.0,0.0,0.0,0.0,0.0,0.0,0.0,0.0,0.0,0.0,0.0,0.0,0.0,-2.3441,0.0,-2.5494,-2.4878,-2.5056,-2.644,-2.6615,-2.7143,-2.8097,-2.8247,-2.8825,-2.9804,-2.9804,-2.9804,-2.9804,-2.9804,-2.9804,-2.9804,-2.9804,-2.9804,-2.9804,-2.9804,-2.9804,-2.9804,-2.9804,-3.0357,-3.1185,-3.1336,-3.2014,-3.2867,-3.3018,-3.3068,-3.3068,-3.3068,-3.3445,-3.3796,-3.3244,-3.347,-3.3796,-3.3244,-3.3068,-3.328,-3.4158,-3.4135,-3.4111,-3.4908,-3.5455,-3.5633,-3.5226,-3.5827,-3.6393,-3.6393,-3.6612,-3.6845,-3.7258,-3.6803,-3.6358,-3.6358,-3.6358,-3.6395,-3.6243,-3.6192,-3.6418,-3.703,-3.6757,-3.6852,-3.7501,-3.7959,-3.8219,-3.8219,-3.8943,-3.8943,-3.7843,-3.751,-3.7281,-3.6972,-3.616,-3.6235,-3.7101,-3.5466,-3.4656,-3.4553,-3.2367,-3.1687,0.0,0.0,0.0,-2.9821,0.0,0.0,0.0,0.0,-2.8177,0.0,0.0,0.0,0.0,0.0,-2.3351,-2.2352,0.0,0.0,0.0,0.0,0.0,0.0,0.0,0.0,0.0,0.0,0.0,0.0,-2.2722,0.0,-2.5511,-2.5043,-2.5335,-2.6483,-2.6967,-2.7519,-2.8097,-2.8624,-2.9202,-2.9804,-2.9804,-2.9804,-2.9804,-2.9804,-2.9804,-2.9804,-2.9804,-2.9804,-2.9804,-2.9804,-2.9804,-2.9804,-2.9804,-3.0131,-3.0708,-3.121,-3.1763,-3.2315,-3.2893,-3.3068,-3.3068,-3.3068,-3.3445,-3.3796,-3.3244,-3.347,-3.3796,-3.3244,-3.3068,-3.3452,-3.5051,-3.4719,-3.4287,-3.5826,-3.6245,-3.6245,-3.6218,-3.7596,-3.8776,-3.8776,-3.9271,-3.9798,-3.9798,-3.7861,-3.6358,-3.6358,-3.6358,-3.6803,-3.7926,-3.799,-3.8202,-3.8803,-3.9222,-3.9269,-3.8822,-3.915,-3.9337,-3.9337,-3.9337,-3.8943,-3.7843,-3.676,-3.5814,-3.4815,-3.4733,-3.4955,-3.5383,-3.4955,-3.4634,-3.4396,-3.2303,-3.1687,0.0,0.0,-3.3004,-3.1082,0.0,0.0,0.0,0.0,0.0,0.0,0.0,0.0,0.0,0.0,-2.4073,-2.3647,-2.3112,0.0,0.0,0.0,0.0,0.0,0.0,0.0,0.0,0.0,0.0,-2.2052,-2.1042,-2.1336,0.0,-2.3838,-2.4516,-2.5862,-2.644,-2.7168,-2.8097,-2.8298,-2.885,-2.9804,-2.9804,-2.9804,-2.9804,-2.9804,-2.9804,-2.9804,-2.9804,-2.9804,-2.9804,-2.9804,-2.9804,-2.9804,-2.9804,-2.9905,-3.0181,-3.106,-3.1738,-3.229,-3.2867,-3.3068,-3.3068,-3.3068,-3.3194,-3.3492,-3.4004,-3.4334,-3.4523,-3.5006,-3.5197,-3.5305,-3.5818,-3.5737,-3.5546,-3.6144,-3.6497,-3.6687,-3.6361,-3.7318,-3.8255,-3.7759,-3.8587,-3.9277,-3.9277,-3.8912,-3.8765,-3.8765,-3.8327,-3.8075,-3.8043,-3.7721,-3.7676,-3.8116,-3.8359,-3.862,-3.9121,-3.9311,-3.9409,-3.9409,-3.9409,-3.8943,-3.7843,-3.7434,-3.69,-3.6095,-3.6095,-3.5939,-3.5674,-3.5574,-3.4754,-3.3349,-3.228,-3.1547,-3.2984,-3.3674,0.0,-3.199,-3.1914,0.0,-2.9665,0.0,0.0,0.0,0.0,0.0,0.0,0.0,0.0,-2.4044,-2.3573,-2.3034,0.0,-2.1886,0.0,0.0,0.0,0.0,0.0,0.0,-2.0631,-2.1628,-2.07,-2.0923,0.0,0.0,-2.4509,-2.5586,-2.6163,-2.6892,-2.7795,-2.7996,-2.8574,-2.9478,-2.9704,-2.9804,-2.9804,-2.9804,-2.9804,-2.9804,-2.9804,-2.9804,-2.9804,-2.9804,-2.9804,-2.9804,-2.9804,-2.9804,-2.9905,-3.0783,-3.1587,-3.229,-3.2867,-3.3068,-3.3154,-3.3556,-3.3769,-3.4126,-3.495,-3.5358,-3.5629,-3.6108,-3.6212,-3.629,-3.6682,-3.6526,-3.629,-3.6682,-3.7097,-3.7265,-3.6872,-3.8088,-3.9121,-3.8695,-3.9634,-4.0485,-4.0174,-4.0487,-4.0605,-3.9944,-3.9554,-3.9142,-3.8949,-3.8611,-3.8535,-3.9051,-3.8865,-3.8884,-3.9367,-3.9409,-3.9409,-3.9409,-3.9409,-3.8943,-3.7843,-3.7843,-3.7501,-3.6968,-3.6467,-3.6265,-3.6186,-3.5593,-3.4594,-3.3234,-3.2697,-3.2084]}]]